<?xml version="1.0" encoding="UTF-8" standalone="no" ?>
<gpx xmlns="http://www.topografix.com/GPX/1/1" xmlns:xsi="http://www.w3.org/2001/XMLSchema-instance" xsi:schemaLocation="http://www.topografix.com/GPX/1/1 http://www.topografix.com/GPX/1/1/gpx.xsd" version="1.1" creator="VisuGPX - https://www.visugpx.com">
  <metadata>
    <name>rando du 3 mars 2012</name>
    <desc><![CDATA[Avec un autre Eric transformé .J\'ai du m\'absenter trop longtemps]]></desc>
  </metadata>
  <trk>
    <name><![CDATA[sortie 3-mars-12]]></name>
    <trkseg>
      <trkpt lat="44.10461" lon="6.9868">
        <ele>1400</ele>
        <time>2012-03-03T07:49:35Z</time>
      </trkpt>
      <trkpt lat="44.10471" lon="6.98683">
        <ele>1392</ele>
        <time>2012-03-03T07:49:36Z</time>
      </trkpt>
      <trkpt lat="44.10459" lon="6.98667">
        <ele>1432</ele>
        <time>2012-03-03T07:49:46Z</time>
      </trkpt>
      <trkpt lat="44.10454" lon="6.98663">
        <ele>1446</ele>
        <time>2012-03-03T07:50:11Z</time>
      </trkpt>
      <trkpt lat="44.10466" lon="6.98674">
        <ele>1438</ele>
        <time>2012-03-03T07:50:12Z</time>
      </trkpt>
      <trkpt lat="44.10468" lon="6.98685">
        <ele>1429</ele>
        <time>2012-03-03T07:50:30Z</time>
      </trkpt>
      <trkpt lat="44.1046" lon="6.9868">
        <ele>1435</ele>
        <time>2012-03-03T07:52:01Z</time>
      </trkpt>
      <trkpt lat="44.1046" lon="6.9868">
        <ele>1435</ele>
        <time>2012-03-03T07:52:02Z</time>
      </trkpt>
      <trkpt lat="44.1047" lon="6.9868">
        <ele>1442</ele>
        <time>2012-03-03T07:55:08Z</time>
      </trkpt>
      <trkpt lat="44.10481" lon="6.98683">
        <ele>1447</ele>
        <time>2012-03-03T07:58:47Z</time>
      </trkpt>
      <trkpt lat="44.10482" lon="6.98683">
        <ele>1446</ele>
        <time>2012-03-03T07:58:48Z</time>
      </trkpt>
      <trkpt lat="44.10497" lon="6.98685">
        <ele>1446</ele>
        <time>2012-03-03T07:59:00Z</time>
      </trkpt>
      <trkpt lat="44.10505" lon="6.98691">
        <ele>1447</ele>
        <time>2012-03-03T07:59:08Z</time>
      </trkpt>
      <trkpt lat="44.10511" lon="6.98699">
        <ele>1448</ele>
        <time>2012-03-03T07:59:16Z</time>
      </trkpt>
      <trkpt lat="44.10518" lon="6.98703">
        <ele>1448</ele>
        <time>2012-03-03T07:59:24Z</time>
      </trkpt>
      <trkpt lat="44.10526" lon="6.98709">
        <ele>1453</ele>
        <time>2012-03-03T07:59:30Z</time>
      </trkpt>
      <trkpt lat="44.10534" lon="6.98709">
        <ele>1452</ele>
        <time>2012-03-03T07:59:36Z</time>
      </trkpt>
      <trkpt lat="44.10543" lon="6.98709">
        <ele>1452</ele>
        <time>2012-03-03T07:59:45Z</time>
      </trkpt>
      <trkpt lat="44.10552" lon="6.98709">
        <ele>1450</ele>
        <time>2012-03-03T07:59:56Z</time>
      </trkpt>
      <trkpt lat="44.10553" lon="6.9871">
        <ele>1450</ele>
        <time>2012-03-03T07:59:57Z</time>
      </trkpt>
      <trkpt lat="44.10565" lon="6.9871">
        <ele>1446</ele>
        <time>2012-03-03T08:00:03Z</time>
      </trkpt>
      <trkpt lat="44.10572" lon="6.98708">
        <ele>1447</ele>
        <time>2012-03-03T08:00:06Z</time>
      </trkpt>
      <trkpt lat="44.1058" lon="6.98711">
        <ele>1448</ele>
        <time>2012-03-03T08:00:13Z</time>
      </trkpt>
      <trkpt lat="44.10588" lon="6.98715">
        <ele>1448</ele>
        <time>2012-03-03T08:00:24Z</time>
      </trkpt>
      <trkpt lat="44.10596" lon="6.98718">
        <ele>1451</ele>
        <time>2012-03-03T08:00:33Z</time>
      </trkpt>
      <trkpt lat="44.10604" lon="6.98722">
        <ele>1450</ele>
        <time>2012-03-03T08:00:40Z</time>
      </trkpt>
      <trkpt lat="44.10612" lon="6.98724">
        <ele>1450</ele>
        <time>2012-03-03T08:00:46Z</time>
      </trkpt>
      <trkpt lat="44.1062" lon="6.98727">
        <ele>1453</ele>
        <time>2012-03-03T08:00:52Z</time>
      </trkpt>
      <trkpt lat="44.10629" lon="6.9873">
        <ele>1453</ele>
        <time>2012-03-03T08:01:01Z</time>
      </trkpt>
      <trkpt lat="44.1063" lon="6.9873">
        <ele>1453</ele>
        <time>2012-03-03T08:01:02Z</time>
      </trkpt>
      <trkpt lat="44.10645" lon="6.98729">
        <ele>1454</ele>
        <time>2012-03-03T08:01:12Z</time>
      </trkpt>
      <trkpt lat="44.10654" lon="6.98728">
        <ele>1456</ele>
        <time>2012-03-03T08:01:18Z</time>
      </trkpt>
      <trkpt lat="44.10662" lon="6.98728">
        <ele>1457</ele>
        <time>2012-03-03T08:01:26Z</time>
      </trkpt>
      <trkpt lat="44.10669" lon="6.98734">
        <ele>1457</ele>
        <time>2012-03-03T08:01:33Z</time>
      </trkpt>
      <trkpt lat="44.10677" lon="6.98735">
        <ele>1458</ele>
        <time>2012-03-03T08:01:45Z</time>
      </trkpt>
      <trkpt lat="44.10684" lon="6.98729">
        <ele>1460</ele>
        <time>2012-03-03T08:01:54Z</time>
      </trkpt>
      <trkpt lat="44.10693" lon="6.98729">
        <ele>1460</ele>
        <time>2012-03-03T08:02:04Z</time>
      </trkpt>
      <trkpt lat="44.10694" lon="6.98729">
        <ele>1462</ele>
        <time>2012-03-03T08:02:05Z</time>
      </trkpt>
      <trkpt lat="44.10707" lon="6.98739">
        <ele>1463</ele>
        <time>2012-03-03T08:02:16Z</time>
      </trkpt>
      <trkpt lat="44.10716" lon="6.9874">
        <ele>1459</ele>
        <time>2012-03-03T08:02:24Z</time>
      </trkpt>
      <trkpt lat="44.10723" lon="6.98748">
        <ele>1461</ele>
        <time>2012-03-03T08:02:33Z</time>
      </trkpt>
      <trkpt lat="44.1073" lon="6.98747">
        <ele>1460</ele>
        <time>2012-03-03T08:02:38Z</time>
      </trkpt>
      <trkpt lat="44.10736" lon="6.9874">
        <ele>1446</ele>
        <time>2012-03-03T08:02:41Z</time>
      </trkpt>
      <trkpt lat="44.10745" lon="6.9874">
        <ele>1451</ele>
        <time>2012-03-03T08:02:48Z</time>
      </trkpt>
      <trkpt lat="44.10754" lon="6.98743">
        <ele>1454</ele>
        <time>2012-03-03T08:02:54Z</time>
      </trkpt>
      <trkpt lat="44.10762" lon="6.9874">
        <ele>1451</ele>
        <time>2012-03-03T08:02:58Z</time>
      </trkpt>
      <trkpt lat="44.10771" lon="6.98741">
        <ele>1452</ele>
        <time>2012-03-03T08:03:08Z</time>
      </trkpt>
      <trkpt lat="44.10771" lon="6.98742">
        <ele>1452</ele>
        <time>2012-03-03T08:03:09Z</time>
      </trkpt>
      <trkpt lat="44.10784" lon="6.98747">
        <ele>1455</ele>
        <time>2012-03-03T08:03:19Z</time>
      </trkpt>
      <trkpt lat="44.10793" lon="6.98749">
        <ele>1447</ele>
        <time>2012-03-03T08:03:24Z</time>
      </trkpt>
      <trkpt lat="44.10801" lon="6.98753">
        <ele>1453</ele>
        <time>2012-03-03T08:03:31Z</time>
      </trkpt>
      <trkpt lat="44.10809" lon="6.98756">
        <ele>1456</ele>
        <time>2012-03-03T08:03:37Z</time>
      </trkpt>
      <trkpt lat="44.10817" lon="6.9876">
        <ele>1455</ele>
        <time>2012-03-03T08:03:46Z</time>
      </trkpt>
      <trkpt lat="44.10825" lon="6.98767">
        <ele>1452</ele>
        <time>2012-03-03T08:03:58Z</time>
      </trkpt>
      <trkpt lat="44.10833" lon="6.9877">
        <ele>1453</ele>
        <time>2012-03-03T08:04:04Z</time>
      </trkpt>
      <trkpt lat="44.10841" lon="6.98775">
        <ele>1452</ele>
        <time>2012-03-03T08:04:13Z</time>
      </trkpt>
      <trkpt lat="44.10841" lon="6.98776">
        <ele>1456</ele>
        <time>2012-03-03T08:04:14Z</time>
      </trkpt>
      <trkpt lat="44.10852" lon="6.98794">
        <ele>1461</ele>
        <time>2012-03-03T08:04:29Z</time>
      </trkpt>
      <trkpt lat="44.10858" lon="6.98803">
        <ele>1469</ele>
        <time>2012-03-03T08:04:38Z</time>
      </trkpt>
      <trkpt lat="44.10866" lon="6.98802">
        <ele>1469</ele>
        <time>2012-03-03T08:04:41Z</time>
      </trkpt>
      <trkpt lat="44.10872" lon="6.98799">
        <ele>1471</ele>
        <time>2012-03-03T08:04:47Z</time>
      </trkpt>
      <trkpt lat="44.10879" lon="6.98794">
        <ele>1467</ele>
        <time>2012-03-03T08:04:52Z</time>
      </trkpt>
      <trkpt lat="44.10887" lon="6.98798">
        <ele>1473</ele>
        <time>2012-03-03T08:04:57Z</time>
      </trkpt>
      <trkpt lat="44.10895" lon="6.98804">
        <ele>1471</ele>
        <time>2012-03-03T08:05:05Z</time>
      </trkpt>
      <trkpt lat="44.10902" lon="6.98808">
        <ele>1473</ele>
        <time>2012-03-03T08:05:11Z</time>
      </trkpt>
      <trkpt lat="44.1091" lon="6.98813">
        <ele>1478</ele>
        <time>2012-03-03T08:05:15Z</time>
      </trkpt>
      <trkpt lat="44.1091" lon="6.98814">
        <ele>1480</ele>
        <time>2012-03-03T08:05:16Z</time>
      </trkpt>
      <trkpt lat="44.10926" lon="6.98818">
        <ele>1478</ele>
        <time>2012-03-03T08:05:29Z</time>
      </trkpt>
      <trkpt lat="44.10935" lon="6.98819">
        <ele>1477</ele>
        <time>2012-03-03T08:05:36Z</time>
      </trkpt>
      <trkpt lat="44.10942" lon="6.98823">
        <ele>1480</ele>
        <time>2012-03-03T08:05:43Z</time>
      </trkpt>
      <trkpt lat="44.10951" lon="6.98827">
        <ele>1482</ele>
        <time>2012-03-03T08:05:50Z</time>
      </trkpt>
      <trkpt lat="44.10956" lon="6.98836">
        <ele>1481</ele>
        <time>2012-03-03T08:05:58Z</time>
      </trkpt>
      <trkpt lat="44.10965" lon="6.98835">
        <ele>1481</ele>
        <time>2012-03-03T08:06:08Z</time>
      </trkpt>
      <trkpt lat="44.10973" lon="6.98835">
        <ele>1484</ele>
        <time>2012-03-03T08:06:16Z</time>
      </trkpt>
      <trkpt lat="44.10974" lon="6.98834">
        <ele>1484</ele>
        <time>2012-03-03T08:06:17Z</time>
      </trkpt>
      <trkpt lat="44.1099" lon="6.98833">
        <ele>1485</ele>
        <time>2012-03-03T08:06:33Z</time>
      </trkpt>
      <trkpt lat="44.10997" lon="6.98833">
        <ele>1479</ele>
        <time>2012-03-03T08:06:38Z</time>
      </trkpt>
      <trkpt lat="44.11005" lon="6.98836">
        <ele>1487</ele>
        <time>2012-03-03T08:06:41Z</time>
      </trkpt>
      <trkpt lat="44.11013" lon="6.9884">
        <ele>1488</ele>
        <time>2012-03-03T08:06:48Z</time>
      </trkpt>
      <trkpt lat="44.11021" lon="6.9884">
        <ele>1492</ele>
        <time>2012-03-03T08:06:54Z</time>
      </trkpt>
      <trkpt lat="44.11029" lon="6.98841">
        <ele>1492</ele>
        <time>2012-03-03T08:06:58Z</time>
      </trkpt>
      <trkpt lat="44.11035" lon="6.98848">
        <ele>1491</ele>
        <time>2012-03-03T08:07:03Z</time>
      </trkpt>
      <trkpt lat="44.11042" lon="6.98855">
        <ele>1488</ele>
        <time>2012-03-03T08:07:12Z</time>
      </trkpt>
      <trkpt lat="44.11049" lon="6.9886">
        <ele>1486</ele>
        <time>2012-03-03T08:07:18Z</time>
      </trkpt>
      <trkpt lat="44.11051" lon="6.98861">
        <ele>1485</ele>
        <time>2012-03-03T08:07:19Z</time>
      </trkpt>
      <trkpt lat="44.11062" lon="6.98873">
        <ele>1486</ele>
        <time>2012-03-03T08:07:31Z</time>
      </trkpt>
      <trkpt lat="44.11071" lon="6.98875">
        <ele>1487</ele>
        <time>2012-03-03T08:07:35Z</time>
      </trkpt>
      <trkpt lat="44.11079" lon="6.98871">
        <ele>1485</ele>
        <time>2012-03-03T08:07:43Z</time>
      </trkpt>
      <trkpt lat="44.11087" lon="6.98873">
        <ele>1495</ele>
        <time>2012-03-03T08:07:59Z</time>
      </trkpt>
      <trkpt lat="44.11095" lon="6.98868">
        <ele>1490</ele>
        <time>2012-03-03T08:08:06Z</time>
      </trkpt>
      <trkpt lat="44.11103" lon="6.98866">
        <ele>1484</ele>
        <time>2012-03-03T08:08:12Z</time>
      </trkpt>
      <trkpt lat="44.11111" lon="6.98865">
        <ele>1481</ele>
        <time>2012-03-03T08:08:19Z</time>
      </trkpt>
      <trkpt lat="44.11112" lon="6.98866">
        <ele>1480</ele>
        <time>2012-03-03T08:08:20Z</time>
      </trkpt>
      <trkpt lat="44.11126" lon="6.98864">
        <ele>1482</ele>
        <time>2012-03-03T08:08:32Z</time>
      </trkpt>
      <trkpt lat="44.11135" lon="6.98865">
        <ele>1486</ele>
        <time>2012-03-03T08:08:36Z</time>
      </trkpt>
      <trkpt lat="44.11144" lon="6.98864">
        <ele>1496</ele>
        <time>2012-03-03T08:08:48Z</time>
      </trkpt>
      <trkpt lat="44.11151" lon="6.98866">
        <ele>1490</ele>
        <time>2012-03-03T08:09:00Z</time>
      </trkpt>
      <trkpt lat="44.11158" lon="6.9886">
        <ele>1487</ele>
        <time>2012-03-03T08:09:06Z</time>
      </trkpt>
      <trkpt lat="44.11166" lon="6.98862">
        <ele>1485</ele>
        <time>2012-03-03T08:09:16Z</time>
      </trkpt>
      <trkpt lat="44.11174" lon="6.98862">
        <ele>1487</ele>
        <time>2012-03-03T08:09:20Z</time>
      </trkpt>
      <trkpt lat="44.11175" lon="6.98862">
        <ele>1487</ele>
        <time>2012-03-03T08:09:21Z</time>
      </trkpt>
      <trkpt lat="44.11189" lon="6.98863">
        <ele>1476</ele>
        <time>2012-03-03T08:09:40Z</time>
      </trkpt>
      <trkpt lat="44.11197" lon="6.98861">
        <ele>1482</ele>
        <time>2012-03-03T08:09:47Z</time>
      </trkpt>
      <trkpt lat="44.11206" lon="6.98859">
        <ele>1481</ele>
        <time>2012-03-03T08:09:53Z</time>
      </trkpt>
      <trkpt lat="44.11214" lon="6.9886">
        <ele>1483</ele>
        <time>2012-03-03T08:09:59Z</time>
      </trkpt>
      <trkpt lat="44.11221" lon="6.98854">
        <ele>1489</ele>
        <time>2012-03-03T08:10:02Z</time>
      </trkpt>
      <trkpt lat="44.11229" lon="6.9885">
        <ele>1488</ele>
        <time>2012-03-03T08:10:13Z</time>
      </trkpt>
      <trkpt lat="44.11236" lon="6.98851">
        <ele>1488</ele>
        <time>2012-03-03T08:10:20Z</time>
      </trkpt>
      <trkpt lat="44.11238" lon="6.98851">
        <ele>1489</ele>
        <time>2012-03-03T08:10:21Z</time>
      </trkpt>
      <trkpt lat="44.11253" lon="6.98852">
        <ele>1502</ele>
        <time>2012-03-03T08:10:30Z</time>
      </trkpt>
      <trkpt lat="44.11258" lon="6.9885">
        <ele>1508</ele>
        <time>2012-03-03T08:10:32Z</time>
      </trkpt>
      <trkpt lat="44.11265" lon="6.98845">
        <ele>1509</ele>
        <time>2012-03-03T08:10:34Z</time>
      </trkpt>
      <trkpt lat="44.11273" lon="6.98846">
        <ele>1509</ele>
        <time>2012-03-03T08:10:44Z</time>
      </trkpt>
      <trkpt lat="44.11282" lon="6.98847">
        <ele>1509</ele>
        <time>2012-03-03T08:10:53Z</time>
      </trkpt>
      <trkpt lat="44.1129" lon="6.98849">
        <ele>1508</ele>
        <time>2012-03-03T08:11:01Z</time>
      </trkpt>
      <trkpt lat="44.11297" lon="6.98852">
        <ele>1512</ele>
        <time>2012-03-03T08:11:10Z</time>
      </trkpt>
      <trkpt lat="44.11306" lon="6.98856">
        <ele>1513</ele>
        <time>2012-03-03T08:11:18Z</time>
      </trkpt>
      <trkpt lat="44.1131" lon="6.98865">
        <ele>1515</ele>
        <time>2012-03-03T08:11:26Z</time>
      </trkpt>
      <trkpt lat="44.11311" lon="6.98867">
        <ele>1517</ele>
        <time>2012-03-03T08:11:27Z</time>
      </trkpt>
      <trkpt lat="44.1132" lon="6.98883">
        <ele>1521</ele>
        <time>2012-03-03T08:11:38Z</time>
      </trkpt>
      <trkpt lat="44.11328" lon="6.98886">
        <ele>1523</ele>
        <time>2012-03-03T08:11:44Z</time>
      </trkpt>
      <trkpt lat="44.11336" lon="6.9889">
        <ele>1520</ele>
        <time>2012-03-03T08:11:54Z</time>
      </trkpt>
      <trkpt lat="44.11342" lon="6.98899">
        <ele>1517</ele>
        <time>2012-03-03T08:12:01Z</time>
      </trkpt>
      <trkpt lat="44.11343" lon="6.98911">
        <ele>1517</ele>
        <time>2012-03-03T08:12:08Z</time>
      </trkpt>
      <trkpt lat="44.11348" lon="6.9892">
        <ele>1517</ele>
        <time>2012-03-03T08:12:13Z</time>
      </trkpt>
      <trkpt lat="44.11354" lon="6.98928">
        <ele>1514</ele>
        <time>2012-03-03T08:12:26Z</time>
      </trkpt>
      <trkpt lat="44.11362" lon="6.98928">
        <ele>1518</ele>
        <time>2012-03-03T08:12:31Z</time>
      </trkpt>
      <trkpt lat="44.11364" lon="6.98928">
        <ele>1519</ele>
        <time>2012-03-03T08:12:32Z</time>
      </trkpt>
      <trkpt lat="44.11379" lon="6.98934">
        <ele>1522</ele>
        <time>2012-03-03T08:12:43Z</time>
      </trkpt>
      <trkpt lat="44.11387" lon="6.98935">
        <ele>1521</ele>
        <time>2012-03-03T08:12:49Z</time>
      </trkpt>
      <trkpt lat="44.11394" lon="6.98942">
        <ele>1517</ele>
        <time>2012-03-03T08:12:59Z</time>
      </trkpt>
      <trkpt lat="44.11397" lon="6.98954">
        <ele>1520</ele>
        <time>2012-03-03T08:13:07Z</time>
      </trkpt>
      <trkpt lat="44.11403" lon="6.98962">
        <ele>1520</ele>
        <time>2012-03-03T08:13:16Z</time>
      </trkpt>
      <trkpt lat="44.11406" lon="6.98974">
        <ele>1523</ele>
        <time>2012-03-03T08:13:27Z</time>
      </trkpt>
      <trkpt lat="44.11414" lon="6.9898">
        <ele>1521</ele>
        <time>2012-03-03T08:13:32Z</time>
      </trkpt>
      <trkpt lat="44.11415" lon="6.98981">
        <ele>1521</ele>
        <time>2012-03-03T08:13:33Z</time>
      </trkpt>
      <trkpt lat="44.1143" lon="6.98988">
        <ele>1522</ele>
        <time>2012-03-03T08:13:49Z</time>
      </trkpt>
      <trkpt lat="44.11438" lon="6.9899">
        <ele>1524</ele>
        <time>2012-03-03T08:13:57Z</time>
      </trkpt>
      <trkpt lat="44.11445" lon="6.98997">
        <ele>1524</ele>
        <time>2012-03-03T08:14:06Z</time>
      </trkpt>
      <trkpt lat="44.11451" lon="6.99003">
        <ele>1523</ele>
        <time>2012-03-03T08:14:13Z</time>
      </trkpt>
      <trkpt lat="44.11457" lon="6.99011">
        <ele>1525</ele>
        <time>2012-03-03T08:14:17Z</time>
      </trkpt>
      <trkpt lat="44.11462" lon="6.99019">
        <ele>1528</ele>
        <time>2012-03-03T08:14:22Z</time>
      </trkpt>
      <trkpt lat="44.1147" lon="6.99023">
        <ele>1536</ele>
        <time>2012-03-03T08:14:27Z</time>
      </trkpt>
      <trkpt lat="44.11474" lon="6.99032">
        <ele>1533</ele>
        <time>2012-03-03T08:14:35Z</time>
      </trkpt>
      <trkpt lat="44.11475" lon="6.99033">
        <ele>1534</ele>
        <time>2012-03-03T08:14:36Z</time>
      </trkpt>
      <trkpt lat="44.11486" lon="6.99048">
        <ele>1535</ele>
        <time>2012-03-03T08:14:54Z</time>
      </trkpt>
      <trkpt lat="44.11492" lon="6.99056">
        <ele>1539</ele>
        <time>2012-03-03T08:15:02Z</time>
      </trkpt>
      <trkpt lat="44.11499" lon="6.99063">
        <ele>1538</ele>
        <time>2012-03-03T08:15:09Z</time>
      </trkpt>
      <trkpt lat="44.11505" lon="6.99072">
        <ele>1546</ele>
        <time>2012-03-03T08:15:15Z</time>
      </trkpt>
      <trkpt lat="44.11512" lon="6.9908">
        <ele>1546</ele>
        <time>2012-03-03T08:15:24Z</time>
      </trkpt>
      <trkpt lat="44.11514" lon="6.99092">
        <ele>1543</ele>
        <time>2012-03-03T08:15:34Z</time>
      </trkpt>
      <trkpt lat="44.11519" lon="6.99102">
        <ele>1540</ele>
        <time>2012-03-03T08:15:44Z</time>
      </trkpt>
      <trkpt lat="44.11521" lon="6.99103">
        <ele>1539</ele>
        <time>2012-03-03T08:15:45Z</time>
      </trkpt>
      <trkpt lat="44.11532" lon="6.99113">
        <ele>1543</ele>
        <time>2012-03-03T08:15:57Z</time>
      </trkpt>
      <trkpt lat="44.1154" lon="6.9912">
        <ele>1546</ele>
        <time>2012-03-03T08:16:10Z</time>
      </trkpt>
      <trkpt lat="44.11546" lon="6.99129">
        <ele>1545</ele>
        <time>2012-03-03T08:16:16Z</time>
      </trkpt>
      <trkpt lat="44.11553" lon="6.99134">
        <ele>1547</ele>
        <time>2012-03-03T08:16:21Z</time>
      </trkpt>
      <trkpt lat="44.11561" lon="6.99136">
        <ele>1550</ele>
        <time>2012-03-03T08:16:26Z</time>
      </trkpt>
      <trkpt lat="44.11569" lon="6.99136">
        <ele>1552</ele>
        <time>2012-03-03T08:16:30Z</time>
      </trkpt>
      <trkpt lat="44.11577" lon="6.99141">
        <ele>1562</ele>
        <time>2012-03-03T08:16:35Z</time>
      </trkpt>
      <trkpt lat="44.11581" lon="6.99152">
        <ele>1568</ele>
        <time>2012-03-03T08:16:44Z</time>
      </trkpt>
      <trkpt lat="44.11585" lon="6.9916">
        <ele>1560</ele>
        <time>2012-03-03T08:16:54Z</time>
      </trkpt>
      <trkpt lat="44.11587" lon="6.9916">
        <ele>1559</ele>
        <time>2012-03-03T08:16:55Z</time>
      </trkpt>
      <trkpt lat="44.11601" lon="6.99164">
        <ele>1560</ele>
        <time>2012-03-03T08:17:04Z</time>
      </trkpt>
      <trkpt lat="44.11606" lon="6.99174">
        <ele>1555</ele>
        <time>2012-03-03T08:17:12Z</time>
      </trkpt>
      <trkpt lat="44.11614" lon="6.99181">
        <ele>1558</ele>
        <time>2012-03-03T08:17:22Z</time>
      </trkpt>
      <trkpt lat="44.11622" lon="6.99183">
        <ele>1560</ele>
        <time>2012-03-03T08:17:28Z</time>
      </trkpt>
      <trkpt lat="44.11631" lon="6.99184">
        <ele>1558</ele>
        <time>2012-03-03T08:17:35Z</time>
      </trkpt>
      <trkpt lat="44.11638" lon="6.99182">
        <ele>1559</ele>
        <time>2012-03-03T08:17:53Z</time>
      </trkpt>
      <trkpt lat="44.11645" lon="6.99177">
        <ele>1559</ele>
        <time>2012-03-03T08:18:01Z</time>
      </trkpt>
      <trkpt lat="44.11646" lon="6.99174">
        <ele>1558</ele>
        <time>2012-03-03T08:18:02Z</time>
      </trkpt>
      <trkpt lat="44.11652" lon="6.99168">
        <ele>1563</ele>
        <time>2012-03-03T08:18:28Z</time>
      </trkpt>
      <trkpt lat="44.11649" lon="6.99158">
        <ele>1564</ele>
        <time>2012-03-03T08:18:32Z</time>
      </trkpt>
      <trkpt lat="44.11644" lon="6.99148">
        <ele>1562</ele>
        <time>2012-03-03T08:18:40Z</time>
      </trkpt>
      <trkpt lat="44.11637" lon="6.9914">
        <ele>1555</ele>
        <time>2012-03-03T08:18:54Z</time>
      </trkpt>
      <trkpt lat="44.11638" lon="6.99129">
        <ele>1554</ele>
        <time>2012-03-03T08:19:00Z</time>
      </trkpt>
      <trkpt lat="44.11633" lon="6.99119">
        <ele>1554</ele>
        <time>2012-03-03T08:19:16Z</time>
      </trkpt>
      <trkpt lat="44.11632" lon="6.99117">
        <ele>1555</ele>
        <time>2012-03-03T08:19:17Z</time>
      </trkpt>
      <trkpt lat="44.11633" lon="6.99118">
        <ele>1565</ele>
        <time>2012-03-03T08:19:38Z</time>
      </trkpt>
      <trkpt lat="44.1164" lon="6.99119">
        <ele>1562</ele>
        <time>2012-03-03T08:19:41Z</time>
      </trkpt>
      <trkpt lat="44.11649" lon="6.99121">
        <ele>1560</ele>
        <time>2012-03-03T08:19:48Z</time>
      </trkpt>
      <trkpt lat="44.11657" lon="6.99124">
        <ele>1556</ele>
        <time>2012-03-03T08:19:55Z</time>
      </trkpt>
      <trkpt lat="44.11665" lon="6.99128">
        <ele>1554</ele>
        <time>2012-03-03T08:20:05Z</time>
      </trkpt>
      <trkpt lat="44.11671" lon="6.99135">
        <ele>1555</ele>
        <time>2012-03-03T08:20:10Z</time>
      </trkpt>
      <trkpt lat="44.11678" lon="6.99143">
        <ele>1563</ele>
        <time>2012-03-03T08:20:19Z</time>
      </trkpt>
      <trkpt lat="44.11679" lon="6.99144">
        <ele>1564</ele>
        <time>2012-03-03T08:20:20Z</time>
      </trkpt>
      <trkpt lat="44.11692" lon="6.99157">
        <ele>1569</ele>
        <time>2012-03-03T08:20:35Z</time>
      </trkpt>
      <trkpt lat="44.117" lon="6.9916">
        <ele>1564</ele>
        <time>2012-03-03T08:20:43Z</time>
      </trkpt>
      <trkpt lat="44.11706" lon="6.99167">
        <ele>1569</ele>
        <time>2012-03-03T08:20:49Z</time>
      </trkpt>
      <trkpt lat="44.11712" lon="6.99176">
        <ele>1572</ele>
        <time>2012-03-03T08:20:57Z</time>
      </trkpt>
      <trkpt lat="44.11721" lon="6.99176">
        <ele>1573</ele>
        <time>2012-03-03T08:21:09Z</time>
      </trkpt>
      <trkpt lat="44.11729" lon="6.99179">
        <ele>1573</ele>
        <time>2012-03-03T08:21:15Z</time>
      </trkpt>
      <trkpt lat="44.11737" lon="6.99182">
        <ele>1580</ele>
        <time>2012-03-03T08:21:24Z</time>
      </trkpt>
      <trkpt lat="44.11738" lon="6.99182">
        <ele>1580</ele>
        <time>2012-03-03T08:21:25Z</time>
      </trkpt>
      <trkpt lat="44.11753" lon="6.99187">
        <ele>1584</ele>
        <time>2012-03-03T08:21:39Z</time>
      </trkpt>
      <trkpt lat="44.11761" lon="6.99186">
        <ele>1586</ele>
        <time>2012-03-03T08:21:45Z</time>
      </trkpt>
      <trkpt lat="44.11768" lon="6.99192">
        <ele>1589</ele>
        <time>2012-03-03T08:21:51Z</time>
      </trkpt>
      <trkpt lat="44.11777" lon="6.99195">
        <ele>1592</ele>
        <time>2012-03-03T08:22:03Z</time>
      </trkpt>
      <trkpt lat="44.11785" lon="6.992">
        <ele>1591</ele>
        <time>2012-03-03T08:22:16Z</time>
      </trkpt>
      <trkpt lat="44.11793" lon="6.99202">
        <ele>1592</ele>
        <time>2012-03-03T08:22:25Z</time>
      </trkpt>
      <trkpt lat="44.11794" lon="6.99202">
        <ele>1592</ele>
        <time>2012-03-03T08:22:26Z</time>
      </trkpt>
      <trkpt lat="44.11809" lon="6.99205">
        <ele>1603</ele>
        <time>2012-03-03T08:22:44Z</time>
      </trkpt>
      <trkpt lat="44.11816" lon="6.99207">
        <ele>1602</ele>
        <time>2012-03-03T08:22:51Z</time>
      </trkpt>
      <trkpt lat="44.11821" lon="6.99216">
        <ele>1605</ele>
        <time>2012-03-03T08:22:57Z</time>
      </trkpt>
      <trkpt lat="44.11828" lon="6.99222">
        <ele>1605</ele>
        <time>2012-03-03T08:23:04Z</time>
      </trkpt>
      <trkpt lat="44.11836" lon="6.99224">
        <ele>1601</ele>
        <time>2012-03-03T08:23:11Z</time>
      </trkpt>
      <trkpt lat="44.11845" lon="6.99225">
        <ele>1606</ele>
        <time>2012-03-03T08:23:19Z</time>
      </trkpt>
      <trkpt lat="44.11854" lon="6.99225">
        <ele>1605</ele>
        <time>2012-03-03T08:23:27Z</time>
      </trkpt>
      <trkpt lat="44.11855" lon="6.99223">
        <ele>1604</ele>
        <time>2012-03-03T08:23:28Z</time>
      </trkpt>
      <trkpt lat="44.11868" lon="6.99211">
        <ele>1609</ele>
        <time>2012-03-03T08:23:42Z</time>
      </trkpt>
      <trkpt lat="44.11875" lon="6.99204">
        <ele>1607</ele>
        <time>2012-03-03T08:23:57Z</time>
      </trkpt>
      <trkpt lat="44.11882" lon="6.99197">
        <ele>1609</ele>
        <time>2012-03-03T08:24:07Z</time>
      </trkpt>
      <trkpt lat="44.11891" lon="6.99197">
        <ele>1611</ele>
        <time>2012-03-03T08:24:17Z</time>
      </trkpt>
      <trkpt lat="44.11899" lon="6.99199">
        <ele>1613</ele>
        <time>2012-03-03T08:24:34Z</time>
      </trkpt>
      <trkpt lat="44.119" lon="6.992">
        <ele>1613</ele>
        <time>2012-03-03T08:24:35Z</time>
      </trkpt>
      <trkpt lat="44.11914" lon="6.9919">
        <ele>1617</ele>
        <time>2012-03-03T08:24:52Z</time>
      </trkpt>
      <trkpt lat="44.11923" lon="6.99189">
        <ele>1617</ele>
        <time>2012-03-03T08:24:58Z</time>
      </trkpt>
      <trkpt lat="44.11927" lon="6.99178">
        <ele>1618</ele>
        <time>2012-03-03T08:25:06Z</time>
      </trkpt>
      <trkpt lat="44.1193" lon="6.99167">
        <ele>1619</ele>
        <time>2012-03-03T08:25:14Z</time>
      </trkpt>
      <trkpt lat="44.11938" lon="6.99165">
        <ele>1626</ele>
        <time>2012-03-03T08:25:35Z</time>
      </trkpt>
      <trkpt lat="44.11939" lon="6.99166">
        <ele>1626</ele>
        <time>2012-03-03T08:25:36Z</time>
      </trkpt>
      <trkpt lat="44.11953" lon="6.99156">
        <ele>1634</ele>
        <time>2012-03-03T08:25:56Z</time>
      </trkpt>
      <trkpt lat="44.1196" lon="6.99148">
        <ele>1645</ele>
        <time>2012-03-03T08:26:13Z</time>
      </trkpt>
      <trkpt lat="44.11969" lon="6.99145">
        <ele>1645</ele>
        <time>2012-03-03T08:26:22Z</time>
      </trkpt>
      <trkpt lat="44.11976" lon="6.99143">
        <ele>1645</ele>
        <time>2012-03-03T08:26:36Z</time>
      </trkpt>
      <trkpt lat="44.11979" lon="6.99143">
        <ele>1642</ele>
        <time>2012-03-03T08:26:37Z</time>
      </trkpt>
      <trkpt lat="44.11993" lon="6.99144">
        <ele>1649</ele>
        <time>2012-03-03T08:26:59Z</time>
      </trkpt>
      <trkpt lat="44.12001" lon="6.99139">
        <ele>1643</ele>
        <time>2012-03-03T08:27:06Z</time>
      </trkpt>
      <trkpt lat="44.12009" lon="6.99133">
        <ele>1643</ele>
        <time>2012-03-03T08:27:15Z</time>
      </trkpt>
      <trkpt lat="44.12017" lon="6.99129">
        <ele>1641</ele>
        <time>2012-03-03T08:27:23Z</time>
      </trkpt>
      <trkpt lat="44.12023" lon="6.99122">
        <ele>1668</ele>
        <time>2012-03-03T08:27:54Z</time>
      </trkpt>
      <trkpt lat="44.12024" lon="6.9912">
        <ele>1667</ele>
        <time>2012-03-03T08:27:55Z</time>
      </trkpt>
      <trkpt lat="44.12039" lon="6.99131">
        <ele>1658</ele>
        <time>2012-03-03T08:28:14Z</time>
      </trkpt>
      <trkpt lat="44.12044" lon="6.9914">
        <ele>1662</ele>
        <time>2012-03-03T08:28:22Z</time>
      </trkpt>
      <trkpt lat="44.12048" lon="6.99151">
        <ele>1667</ele>
        <time>2012-03-03T08:28:31Z</time>
      </trkpt>
      <trkpt lat="44.12053" lon="6.99161">
        <ele>1662</ele>
        <time>2012-03-03T08:28:37Z</time>
      </trkpt>
      <trkpt lat="44.12061" lon="6.99163">
        <ele>1659</ele>
        <time>2012-03-03T08:28:44Z</time>
      </trkpt>
      <trkpt lat="44.12069" lon="6.99159">
        <ele>1660</ele>
        <time>2012-03-03T08:28:50Z</time>
      </trkpt>
      <trkpt lat="44.12077" lon="6.9916">
        <ele>1658</ele>
        <time>2012-03-03T08:28:56Z</time>
      </trkpt>
      <trkpt lat="44.12079" lon="6.99161">
        <ele>1658</ele>
        <time>2012-03-03T08:28:57Z</time>
      </trkpt>
      <trkpt lat="44.12093" lon="6.99164">
        <ele>1662</ele>
        <time>2012-03-03T08:29:15Z</time>
      </trkpt>
      <trkpt lat="44.12101" lon="6.99163">
        <ele>1665</ele>
        <time>2012-03-03T08:29:23Z</time>
      </trkpt>
      <trkpt lat="44.12109" lon="6.99167">
        <ele>1670</ele>
        <time>2012-03-03T08:29:35Z</time>
      </trkpt>
      <trkpt lat="44.12116" lon="6.99175">
        <ele>1671</ele>
        <time>2012-03-03T08:29:43Z</time>
      </trkpt>
      <trkpt lat="44.1212" lon="6.99185">
        <ele>1676</ele>
        <time>2012-03-03T08:29:57Z</time>
      </trkpt>
      <trkpt lat="44.12121" lon="6.99186">
        <ele>1676</ele>
        <time>2012-03-03T08:29:58Z</time>
      </trkpt>
      <trkpt lat="44.12123" lon="6.99197">
        <ele>1681</ele>
        <time>2012-03-03T08:33:57Z</time>
      </trkpt>
      <trkpt lat="44.12137" lon="6.9921">
        <ele>1682</ele>
        <time>2012-03-03T08:34:23Z</time>
      </trkpt>
      <trkpt lat="44.12143" lon="6.99218">
        <ele>1687</ele>
        <time>2012-03-03T08:34:30Z</time>
      </trkpt>
      <trkpt lat="44.1215" lon="6.99215">
        <ele>1692</ele>
        <time>2012-03-03T08:34:36Z</time>
      </trkpt>
      <trkpt lat="44.12159" lon="6.99217">
        <ele>1688</ele>
        <time>2012-03-03T08:34:49Z</time>
      </trkpt>
      <trkpt lat="44.12168" lon="6.99221">
        <ele>1686</ele>
        <time>2012-03-03T08:34:56Z</time>
      </trkpt>
      <trkpt lat="44.12175" lon="6.99224">
        <ele>1695</ele>
        <time>2012-03-03T08:35:07Z</time>
      </trkpt>
      <trkpt lat="44.12177" lon="6.99224">
        <ele>1695</ele>
        <time>2012-03-03T08:35:08Z</time>
      </trkpt>
      <trkpt lat="44.12192" lon="6.99228">
        <ele>1694</ele>
        <time>2012-03-03T08:35:20Z</time>
      </trkpt>
      <trkpt lat="44.122" lon="6.9923">
        <ele>1690</ele>
        <time>2012-03-03T08:35:29Z</time>
      </trkpt>
      <trkpt lat="44.12207" lon="6.99236">
        <ele>1692</ele>
        <time>2012-03-03T08:35:39Z</time>
      </trkpt>
      <trkpt lat="44.12215" lon="6.99237">
        <ele>1692</ele>
        <time>2012-03-03T08:35:48Z</time>
      </trkpt>
      <trkpt lat="44.12224" lon="6.99236">
        <ele>1691</ele>
        <time>2012-03-03T08:35:58Z</time>
      </trkpt>
      <trkpt lat="44.12231" lon="6.99242">
        <ele>1700</ele>
        <time>2012-03-03T08:36:31Z</time>
      </trkpt>
      <trkpt lat="44.12232" lon="6.99243">
        <ele>1700</ele>
        <time>2012-03-03T08:36:32Z</time>
      </trkpt>
      <trkpt lat="44.12241" lon="6.9926">
        <ele>1697</ele>
        <time>2012-03-03T08:36:45Z</time>
      </trkpt>
      <trkpt lat="44.12246" lon="6.99269">
        <ele>1699</ele>
        <time>2012-03-03T08:36:53Z</time>
      </trkpt>
      <trkpt lat="44.12251" lon="6.99278">
        <ele>1700</ele>
        <time>2012-03-03T08:37:00Z</time>
      </trkpt>
      <trkpt lat="44.1226" lon="6.99282">
        <ele>1708</ele>
        <time>2012-03-03T08:37:06Z</time>
      </trkpt>
      <trkpt lat="44.12268" lon="6.99287">
        <ele>1705</ele>
        <time>2012-03-03T08:37:13Z</time>
      </trkpt>
      <trkpt lat="44.12277" lon="6.99287">
        <ele>1706</ele>
        <time>2012-03-03T08:37:21Z</time>
      </trkpt>
      <trkpt lat="44.12284" lon="6.99294">
        <ele>1709</ele>
        <time>2012-03-03T08:37:30Z</time>
      </trkpt>
      <trkpt lat="44.12291" lon="6.993">
        <ele>1707</ele>
        <time>2012-03-03T08:37:39Z</time>
      </trkpt>
      <trkpt lat="44.12292" lon="6.993">
        <ele>1707</ele>
        <time>2012-03-03T08:37:40Z</time>
      </trkpt>
      <trkpt lat="44.12307" lon="6.99308">
        <ele>1715</ele>
        <time>2012-03-03T08:38:18Z</time>
      </trkpt>
      <trkpt lat="44.12313" lon="6.99315">
        <ele>1725</ele>
        <time>2012-03-03T08:38:33Z</time>
      </trkpt>
      <trkpt lat="44.12321" lon="6.9932">
        <ele>1733</ele>
        <time>2012-03-03T08:38:47Z</time>
      </trkpt>
      <trkpt lat="44.12321" lon="6.99322">
        <ele>1734</ele>
        <time>2012-03-03T08:38:48Z</time>
      </trkpt>
      <trkpt lat="44.12334" lon="6.99334">
        <ele>1737</ele>
        <time>2012-03-03T08:39:10Z</time>
      </trkpt>
      <trkpt lat="44.12341" lon="6.9934">
        <ele>1740</ele>
        <time>2012-03-03T08:39:19Z</time>
      </trkpt>
      <trkpt lat="44.12348" lon="6.99346">
        <ele>1741</ele>
        <time>2012-03-03T08:39:28Z</time>
      </trkpt>
      <trkpt lat="44.12356" lon="6.99343">
        <ele>1743</ele>
        <time>2012-03-03T08:39:35Z</time>
      </trkpt>
      <trkpt lat="44.12364" lon="6.99344">
        <ele>1741</ele>
        <time>2012-03-03T08:39:41Z</time>
      </trkpt>
      <trkpt lat="44.12371" lon="6.99347">
        <ele>1742</ele>
        <time>2012-03-03T08:39:48Z</time>
      </trkpt>
      <trkpt lat="44.12373" lon="6.99348">
        <ele>1742</ele>
        <time>2012-03-03T08:39:49Z</time>
      </trkpt>
      <trkpt lat="44.12384" lon="6.99361">
        <ele>1740</ele>
        <time>2012-03-03T08:40:00Z</time>
      </trkpt>
      <trkpt lat="44.12392" lon="6.99364">
        <ele>1740</ele>
        <time>2012-03-03T08:40:10Z</time>
      </trkpt>
      <trkpt lat="44.12401" lon="6.99367">
        <ele>1743</ele>
        <time>2012-03-03T08:40:20Z</time>
      </trkpt>
      <trkpt lat="44.12409" lon="6.99367">
        <ele>1748</ele>
        <time>2012-03-03T08:40:27Z</time>
      </trkpt>
      <trkpt lat="44.12417" lon="6.99367">
        <ele>1747</ele>
        <time>2012-03-03T08:40:34Z</time>
      </trkpt>
      <trkpt lat="44.12425" lon="6.99372">
        <ele>1748</ele>
        <time>2012-03-03T08:40:42Z</time>
      </trkpt>
      <trkpt lat="44.12432" lon="6.9938">
        <ele>1746</ele>
        <time>2012-03-03T08:40:50Z</time>
      </trkpt>
      <trkpt lat="44.12433" lon="6.99381">
        <ele>1746</ele>
        <time>2012-03-03T08:40:51Z</time>
      </trkpt>
      <trkpt lat="44.12447" lon="6.99381">
        <ele>1747</ele>
        <time>2012-03-03T08:41:03Z</time>
      </trkpt>
      <trkpt lat="44.12454" lon="6.99386">
        <ele>1749</ele>
        <time>2012-03-03T08:41:10Z</time>
      </trkpt>
      <trkpt lat="44.12461" lon="6.99393">
        <ele>1746</ele>
        <time>2012-03-03T08:41:20Z</time>
      </trkpt>
      <trkpt lat="44.12467" lon="6.99403">
        <ele>1749</ele>
        <time>2012-03-03T08:41:30Z</time>
      </trkpt>
      <trkpt lat="44.12473" lon="6.99411">
        <ele>1754</ele>
        <time>2012-03-03T08:41:40Z</time>
      </trkpt>
      <trkpt lat="44.1248" lon="6.99418">
        <ele>1757</ele>
        <time>2012-03-03T08:41:47Z</time>
      </trkpt>
      <trkpt lat="44.12489" lon="6.9942">
        <ele>1761</ele>
        <time>2012-03-03T08:41:56Z</time>
      </trkpt>
      <trkpt lat="44.1249" lon="6.99421">
        <ele>1760</ele>
        <time>2012-03-03T08:41:57Z</time>
      </trkpt>
      <trkpt lat="44.12506" lon="6.99416">
        <ele>1760</ele>
        <time>2012-03-03T08:42:14Z</time>
      </trkpt>
      <trkpt lat="44.12514" lon="6.99419">
        <ele>1759</ele>
        <time>2012-03-03T08:42:22Z</time>
      </trkpt>
      <trkpt lat="44.12523" lon="6.9942">
        <ele>1766</ele>
        <time>2012-03-03T08:42:33Z</time>
      </trkpt>
      <trkpt lat="44.12532" lon="6.99418">
        <ele>1766</ele>
        <time>2012-03-03T08:42:42Z</time>
      </trkpt>
      <trkpt lat="44.1254" lon="6.99418">
        <ele>1768</ele>
        <time>2012-03-03T08:42:52Z</time>
      </trkpt>
      <trkpt lat="44.12549" lon="6.99421">
        <ele>1772</ele>
        <time>2012-03-03T08:42:59Z</time>
      </trkpt>
      <trkpt lat="44.12549" lon="6.9942">
        <ele>1772</ele>
        <time>2012-03-03T08:43:00Z</time>
      </trkpt>
      <trkpt lat="44.12565" lon="6.99417">
        <ele>1783</ele>
        <time>2012-03-03T08:43:25Z</time>
      </trkpt>
      <trkpt lat="44.12573" lon="6.99415">
        <ele>1792</ele>
        <time>2012-03-03T08:43:42Z</time>
      </trkpt>
      <trkpt lat="44.12582" lon="6.99416">
        <ele>1794</ele>
        <time>2012-03-03T08:43:53Z</time>
      </trkpt>
      <trkpt lat="44.12589" lon="6.99411">
        <ele>1796</ele>
        <time>2012-03-03T08:44:06Z</time>
      </trkpt>
      <trkpt lat="44.1259" lon="6.99411">
        <ele>1795</ele>
        <time>2012-03-03T08:44:07Z</time>
      </trkpt>
      <trkpt lat="44.12599" lon="6.99426">
        <ele>1789</ele>
        <time>2012-03-03T08:44:16Z</time>
      </trkpt>
      <trkpt lat="44.12607" lon="6.99429">
        <ele>1791</ele>
        <time>2012-03-03T08:44:22Z</time>
      </trkpt>
      <trkpt lat="44.12614" lon="6.99434">
        <ele>1787</ele>
        <time>2012-03-03T08:44:28Z</time>
      </trkpt>
      <trkpt lat="44.12623" lon="6.99432">
        <ele>1786</ele>
        <time>2012-03-03T08:44:35Z</time>
      </trkpt>
      <trkpt lat="44.12632" lon="6.99435">
        <ele>1791</ele>
        <time>2012-03-03T08:44:45Z</time>
      </trkpt>
      <trkpt lat="44.12641" lon="6.99436">
        <ele>1793</ele>
        <time>2012-03-03T08:44:59Z</time>
      </trkpt>
      <trkpt lat="44.12647" lon="6.99442">
        <ele>1793</ele>
        <time>2012-03-03T08:45:07Z</time>
      </trkpt>
      <trkpt lat="44.12648" lon="6.99444">
        <ele>1794</ele>
        <time>2012-03-03T08:45:08Z</time>
      </trkpt>
      <trkpt lat="44.12659" lon="6.99459">
        <ele>1790</ele>
        <time>2012-03-03T08:45:18Z</time>
      </trkpt>
      <trkpt lat="44.12664" lon="6.99467">
        <ele>1789</ele>
        <time>2012-03-03T08:45:22Z</time>
      </trkpt>
      <trkpt lat="44.12669" lon="6.99476">
        <ele>1789</ele>
        <time>2012-03-03T08:45:27Z</time>
      </trkpt>
      <trkpt lat="44.12676" lon="6.99481">
        <ele>1794</ele>
        <time>2012-03-03T08:45:36Z</time>
      </trkpt>
      <trkpt lat="44.12685" lon="6.99482">
        <ele>1800</ele>
        <time>2012-03-03T08:45:50Z</time>
      </trkpt>
      <trkpt lat="44.12693" lon="6.99477">
        <ele>1802</ele>
        <time>2012-03-03T08:46:03Z</time>
      </trkpt>
      <trkpt lat="44.12698" lon="6.99468">
        <ele>1803</ele>
        <time>2012-03-03T08:46:13Z</time>
      </trkpt>
      <trkpt lat="44.12698" lon="6.99466">
        <ele>1803</ele>
        <time>2012-03-03T08:46:14Z</time>
      </trkpt>
      <trkpt lat="44.1271" lon="6.99454">
        <ele>1812</ele>
        <time>2012-03-03T08:46:33Z</time>
      </trkpt>
      <trkpt lat="44.12716" lon="6.99445">
        <ele>1816</ele>
        <time>2012-03-03T08:46:41Z</time>
      </trkpt>
      <trkpt lat="44.12722" lon="6.99437">
        <ele>1819</ele>
        <time>2012-03-03T08:46:56Z</time>
      </trkpt>
      <trkpt lat="44.1273" lon="6.99431">
        <ele>1819</ele>
        <time>2012-03-03T08:47:09Z</time>
      </trkpt>
      <trkpt lat="44.12737" lon="6.99424">
        <ele>1822</ele>
        <time>2012-03-03T08:47:19Z</time>
      </trkpt>
      <trkpt lat="44.12737" lon="6.99423">
        <ele>1822</ele>
        <time>2012-03-03T08:47:20Z</time>
      </trkpt>
      <trkpt lat="44.1275" lon="6.99415">
        <ele>1827</ele>
        <time>2012-03-03T08:47:40Z</time>
      </trkpt>
      <trkpt lat="44.12758" lon="6.99416">
        <ele>1828</ele>
        <time>2012-03-03T08:47:48Z</time>
      </trkpt>
      <trkpt lat="44.12766" lon="6.99415">
        <ele>1831</ele>
        <time>2012-03-03T08:47:58Z</time>
      </trkpt>
      <trkpt lat="44.12773" lon="6.99421">
        <ele>1832</ele>
        <time>2012-03-03T08:48:04Z</time>
      </trkpt>
      <trkpt lat="44.12781" lon="6.99418">
        <ele>1841</ele>
        <time>2012-03-03T08:48:19Z</time>
      </trkpt>
      <trkpt lat="44.1279" lon="6.99421">
        <ele>1835</ele>
        <time>2012-03-03T08:48:26Z</time>
      </trkpt>
      <trkpt lat="44.12792" lon="6.99423">
        <ele>1835</ele>
        <time>2012-03-03T08:48:27Z</time>
      </trkpt>
      <trkpt lat="44.128" lon="6.99408">
        <ele>1835</ele>
        <time>2012-03-03T08:48:52Z</time>
      </trkpt>
      <trkpt lat="44.12804" lon="6.99399">
        <ele>1837</ele>
        <time>2012-03-03T08:49:01Z</time>
      </trkpt>
      <trkpt lat="44.12812" lon="6.99395">
        <ele>1846</ele>
        <time>2012-03-03T08:49:16Z</time>
      </trkpt>
      <trkpt lat="44.12813" lon="6.99384">
        <ele>1852</ele>
        <time>2012-03-03T08:49:31Z</time>
      </trkpt>
      <trkpt lat="44.12813" lon="6.99382">
        <ele>1852</ele>
        <time>2012-03-03T08:49:32Z</time>
      </trkpt>
      <trkpt lat="44.12827" lon="6.99368">
        <ele>1862</ele>
        <time>2012-03-03T08:50:00Z</time>
      </trkpt>
      <trkpt lat="44.12832" lon="6.99358">
        <ele>1865</ele>
        <time>2012-03-03T08:50:19Z</time>
      </trkpt>
      <trkpt lat="44.12836" lon="6.99347">
        <ele>1872</ele>
        <time>2012-03-03T08:50:36Z</time>
      </trkpt>
      <trkpt lat="44.12836" lon="6.99346">
        <ele>1872</ele>
        <time>2012-03-03T08:50:37Z</time>
      </trkpt>
      <trkpt lat="44.12851" lon="6.99337">
        <ele>1874</ele>
        <time>2012-03-03T08:51:03Z</time>
      </trkpt>
      <trkpt lat="44.12859" lon="6.99331">
        <ele>1875</ele>
        <time>2012-03-03T08:51:17Z</time>
      </trkpt>
      <trkpt lat="44.12866" lon="6.99325">
        <ele>1880</ele>
        <time>2012-03-03T08:51:31Z</time>
      </trkpt>
      <trkpt lat="44.12875" lon="6.99322">
        <ele>1887</ele>
        <time>2012-03-03T08:51:42Z</time>
      </trkpt>
      <trkpt lat="44.12875" lon="6.99321">
        <ele>1887</ele>
        <time>2012-03-03T08:51:43Z</time>
      </trkpt>
      <trkpt lat="44.12891" lon="6.99312">
        <ele>1887</ele>
        <time>2012-03-03T08:52:04Z</time>
      </trkpt>
      <trkpt lat="44.12899" lon="6.99316">
        <ele>1888</ele>
        <time>2012-03-03T08:52:12Z</time>
      </trkpt>
      <trkpt lat="44.12908" lon="6.99318">
        <ele>1891</ele>
        <time>2012-03-03T08:52:21Z</time>
      </trkpt>
      <trkpt lat="44.12914" lon="6.9932">
        <ele>1899</ele>
        <time>2012-03-03T08:53:31Z</time>
      </trkpt>
      <trkpt lat="44.12917" lon="6.99325">
        <ele>1900</ele>
        <time>2012-03-03T08:53:32Z</time>
      </trkpt>
      <trkpt lat="44.12914" lon="6.9932">
        <ele>1894</ele>
        <time>2012-03-03T08:58:39Z</time>
      </trkpt>
      <trkpt lat="44.12912" lon="6.99319">
        <ele>1895</ele>
        <time>2012-03-03T08:58:40Z</time>
      </trkpt>
      <trkpt lat="44.12898" lon="6.99311">
        <ele>1901</ele>
        <time>2012-03-03T08:58:57Z</time>
      </trkpt>
      <trkpt lat="44.12907" lon="6.99308">
        <ele>1905</ele>
        <time>2012-03-03T08:59:13Z</time>
      </trkpt>
      <trkpt lat="44.12915" lon="6.99304">
        <ele>1903</ele>
        <time>2012-03-03T08:59:23Z</time>
      </trkpt>
      <trkpt lat="44.12923" lon="6.99307">
        <ele>1905</ele>
        <time>2012-03-03T08:59:31Z</time>
      </trkpt>
      <trkpt lat="44.12932" lon="6.99308">
        <ele>1904</ele>
        <time>2012-03-03T08:59:37Z</time>
      </trkpt>
      <trkpt lat="44.12939" lon="6.99305">
        <ele>1907</ele>
        <time>2012-03-03T08:59:43Z</time>
      </trkpt>
      <trkpt lat="44.12941" lon="6.99304">
        <ele>1907</ele>
        <time>2012-03-03T08:59:44Z</time>
      </trkpt>
      <trkpt lat="44.12955" lon="6.99297">
        <ele>1909</ele>
        <time>2012-03-03T08:59:57Z</time>
      </trkpt>
      <trkpt lat="44.12964" lon="6.99296">
        <ele>1912</ele>
        <time>2012-03-03T09:00:04Z</time>
      </trkpt>
      <trkpt lat="44.12971" lon="6.99295">
        <ele>1912</ele>
        <time>2012-03-03T09:00:11Z</time>
      </trkpt>
      <trkpt lat="44.12979" lon="6.99293">
        <ele>1916</ele>
        <time>2012-03-03T09:00:18Z</time>
      </trkpt>
      <trkpt lat="44.12987" lon="6.99293">
        <ele>1916</ele>
        <time>2012-03-03T09:00:24Z</time>
      </trkpt>
      <trkpt lat="44.12995" lon="6.99293">
        <ele>1918</ele>
        <time>2012-03-03T09:00:31Z</time>
      </trkpt>
      <trkpt lat="44.13003" lon="6.99287">
        <ele>1920</ele>
        <time>2012-03-03T09:00:39Z</time>
      </trkpt>
      <trkpt lat="44.1301" lon="6.99284">
        <ele>1914</ele>
        <time>2012-03-03T09:00:46Z</time>
      </trkpt>
      <trkpt lat="44.13012" lon="6.99284">
        <ele>1914</ele>
        <time>2012-03-03T09:00:47Z</time>
      </trkpt>
      <trkpt lat="44.13024" lon="6.99272">
        <ele>1922</ele>
        <time>2012-03-03T09:01:00Z</time>
      </trkpt>
      <trkpt lat="44.13033" lon="6.99269">
        <ele>1924</ele>
        <time>2012-03-03T09:01:08Z</time>
      </trkpt>
      <trkpt lat="44.1304" lon="6.99275">
        <ele>1925</ele>
        <time>2012-03-03T09:01:18Z</time>
      </trkpt>
      <trkpt lat="44.13046" lon="6.99284">
        <ele>1924</ele>
        <time>2012-03-03T09:01:28Z</time>
      </trkpt>
      <trkpt lat="44.13054" lon="6.99289">
        <ele>1924</ele>
        <time>2012-03-03T09:01:37Z</time>
      </trkpt>
      <trkpt lat="44.13061" lon="6.99295">
        <ele>1926</ele>
        <time>2012-03-03T09:01:46Z</time>
      </trkpt>
      <trkpt lat="44.13065" lon="6.99306">
        <ele>1933</ele>
        <time>2012-03-03T09:01:56Z</time>
      </trkpt>
      <trkpt lat="44.13066" lon="6.99307">
        <ele>1933</ele>
        <time>2012-03-03T09:01:57Z</time>
      </trkpt>
      <trkpt lat="44.1308" lon="6.9932">
        <ele>1934</ele>
        <time>2012-03-03T09:02:16Z</time>
      </trkpt>
      <trkpt lat="44.13086" lon="6.99329">
        <ele>1935</ele>
        <time>2012-03-03T09:02:27Z</time>
      </trkpt>
      <trkpt lat="44.13094" lon="6.99329">
        <ele>1938</ele>
        <time>2012-03-03T09:02:36Z</time>
      </trkpt>
      <trkpt lat="44.13103" lon="6.99333">
        <ele>1941</ele>
        <time>2012-03-03T09:02:50Z</time>
      </trkpt>
      <trkpt lat="44.13109" lon="6.99338">
        <ele>1943</ele>
        <time>2012-03-03T09:02:59Z</time>
      </trkpt>
      <trkpt lat="44.13111" lon="6.9934">
        <ele>1945</ele>
        <time>2012-03-03T09:03:00Z</time>
      </trkpt>
      <trkpt lat="44.13125" lon="6.99347">
        <ele>1949</ele>
        <time>2012-03-03T09:03:11Z</time>
      </trkpt>
      <trkpt lat="44.13133" lon="6.99352">
        <ele>1953</ele>
        <time>2012-03-03T09:03:18Z</time>
      </trkpt>
      <trkpt lat="44.13141" lon="6.99351">
        <ele>1955</ele>
        <time>2012-03-03T09:03:27Z</time>
      </trkpt>
      <trkpt lat="44.1315" lon="6.99355">
        <ele>1957</ele>
        <time>2012-03-03T09:03:35Z</time>
      </trkpt>
      <trkpt lat="44.13156" lon="6.99363">
        <ele>1960</ele>
        <time>2012-03-03T09:03:43Z</time>
      </trkpt>
      <trkpt lat="44.13163" lon="6.99369">
        <ele>1960</ele>
        <time>2012-03-03T09:03:50Z</time>
      </trkpt>
      <trkpt lat="44.13169" lon="6.99376">
        <ele>1960</ele>
        <time>2012-03-03T09:03:59Z</time>
      </trkpt>
      <trkpt lat="44.1317" lon="6.99376">
        <ele>1959</ele>
        <time>2012-03-03T09:04:00Z</time>
      </trkpt>
      <trkpt lat="44.13183" lon="6.99385">
        <ele>1964</ele>
        <time>2012-03-03T09:04:21Z</time>
      </trkpt>
      <trkpt lat="44.13191" lon="6.99389">
        <ele>1966</ele>
        <time>2012-03-03T09:04:27Z</time>
      </trkpt>
      <trkpt lat="44.13197" lon="6.99397">
        <ele>1966</ele>
        <time>2012-03-03T09:04:32Z</time>
      </trkpt>
      <trkpt lat="44.13205" lon="6.99397">
        <ele>1968</ele>
        <time>2012-03-03T09:04:38Z</time>
      </trkpt>
      <trkpt lat="44.13213" lon="6.99403">
        <ele>1969</ele>
        <time>2012-03-03T09:04:48Z</time>
      </trkpt>
      <trkpt lat="44.1322" lon="6.9941">
        <ele>1972</ele>
        <time>2012-03-03T09:05:01Z</time>
      </trkpt>
      <trkpt lat="44.13221" lon="6.9941">
        <ele>1972</ele>
        <time>2012-03-03T09:05:02Z</time>
      </trkpt>
      <trkpt lat="44.13236" lon="6.99413">
        <ele>1972</ele>
        <time>2012-03-03T09:05:13Z</time>
      </trkpt>
      <trkpt lat="44.13237" lon="6.99402">
        <ele>1978</ele>
        <time>2012-03-03T09:12:26Z</time>
      </trkpt>
      <trkpt lat="44.13236" lon="6.99401">
        <ele>1979</ele>
        <time>2012-03-03T09:12:27Z</time>
      </trkpt>
      <trkpt lat="44.13233" lon="6.99379">
        <ele>1982</ele>
        <time>2012-03-03T09:12:47Z</time>
      </trkpt>
      <trkpt lat="44.13238" lon="6.99368">
        <ele>1988</ele>
        <time>2012-03-03T09:13:00Z</time>
      </trkpt>
      <trkpt lat="44.13244" lon="6.99359">
        <ele>1988</ele>
        <time>2012-03-03T09:13:17Z</time>
      </trkpt>
      <trkpt lat="44.13245" lon="6.99353">
        <ele>1991</ele>
        <time>2012-03-03T09:13:27Z</time>
      </trkpt>
      <trkpt lat="44.13246" lon="6.99347">
        <ele>1990</ele>
        <time>2012-03-03T09:13:28Z</time>
      </trkpt>
      <trkpt lat="44.13245" lon="6.99332">
        <ele>2000</ele>
        <time>2012-03-03T09:13:48Z</time>
      </trkpt>
      <trkpt lat="44.13248" lon="6.99321">
        <ele>2001</ele>
        <time>2012-03-03T09:14:03Z</time>
      </trkpt>
      <trkpt lat="44.13251" lon="6.9931">
        <ele>2003</ele>
        <time>2012-03-03T09:14:16Z</time>
      </trkpt>
      <trkpt lat="44.13252" lon="6.99298">
        <ele>2006</ele>
        <time>2012-03-03T09:14:29Z</time>
      </trkpt>
      <trkpt lat="44.13253" lon="6.99297">
        <ele>2005</ele>
        <time>2012-03-03T09:14:30Z</time>
      </trkpt>
      <trkpt lat="44.13253" lon="6.99274">
        <ele>2013</ele>
        <time>2012-03-03T09:14:55Z</time>
      </trkpt>
      <trkpt lat="44.13254" lon="6.99261">
        <ele>2017</ele>
        <time>2012-03-03T09:15:07Z</time>
      </trkpt>
      <trkpt lat="44.13252" lon="6.9925">
        <ele>2019</ele>
        <time>2012-03-03T09:15:16Z</time>
      </trkpt>
      <trkpt lat="44.1325" lon="6.99238">
        <ele>2022</ele>
        <time>2012-03-03T09:15:31Z</time>
      </trkpt>
      <trkpt lat="44.1325" lon="6.99236">
        <ele>2023</ele>
        <time>2012-03-03T09:15:32Z</time>
      </trkpt>
      <trkpt lat="44.13247" lon="6.99215">
        <ele>2032</ele>
        <time>2012-03-03T09:15:50Z</time>
      </trkpt>
      <trkpt lat="44.13247" lon="6.99203">
        <ele>2033</ele>
        <time>2012-03-03T09:16:01Z</time>
      </trkpt>
      <trkpt lat="44.13243" lon="6.99192">
        <ele>2035</ele>
        <time>2012-03-03T09:16:11Z</time>
      </trkpt>
      <trkpt lat="44.13237" lon="6.99183">
        <ele>2033</ele>
        <time>2012-03-03T09:16:20Z</time>
      </trkpt>
      <trkpt lat="44.13234" lon="6.99172">
        <ele>2035</ele>
        <time>2012-03-03T09:16:27Z</time>
      </trkpt>
      <trkpt lat="44.13232" lon="6.99161">
        <ele>2036</ele>
        <time>2012-03-03T09:16:37Z</time>
      </trkpt>
      <trkpt lat="44.13232" lon="6.9916">
        <ele>2036</ele>
        <time>2012-03-03T09:16:38Z</time>
      </trkpt>
      <trkpt lat="44.13231" lon="6.99139">
        <ele>2040</ele>
        <time>2012-03-03T09:16:52Z</time>
      </trkpt>
      <trkpt lat="44.13232" lon="6.99127">
        <ele>2041</ele>
        <time>2012-03-03T09:17:00Z</time>
      </trkpt>
      <trkpt lat="44.13233" lon="6.99115">
        <ele>2042</ele>
        <time>2012-03-03T09:17:07Z</time>
      </trkpt>
      <trkpt lat="44.1323" lon="6.99103">
        <ele>2040</ele>
        <time>2012-03-03T09:17:20Z</time>
      </trkpt>
      <trkpt lat="44.13227" lon="6.99093">
        <ele>2040</ele>
        <time>2012-03-03T09:17:31Z</time>
      </trkpt>
      <trkpt lat="44.13229" lon="6.99082">
        <ele>2038</ele>
        <time>2012-03-03T09:17:40Z</time>
      </trkpt>
      <trkpt lat="44.13231" lon="6.9908">
        <ele>2039</ele>
        <time>2012-03-03T09:17:41Z</time>
      </trkpt>
      <trkpt lat="44.1322" lon="6.99063">
        <ele>2038</ele>
        <time>2012-03-03T09:18:11Z</time>
      </trkpt>
      <trkpt lat="44.13213" lon="6.99056">
        <ele>2033</ele>
        <time>2012-03-03T09:18:21Z</time>
      </trkpt>
      <trkpt lat="44.13206" lon="6.99052">
        <ele>2029</ele>
        <time>2012-03-03T09:18:29Z</time>
      </trkpt>
      <trkpt lat="44.132" lon="6.99043">
        <ele>2034</ele>
        <time>2012-03-03T09:18:36Z</time>
      </trkpt>
      <trkpt lat="44.13192" lon="6.9904">
        <ele>2038</ele>
        <time>2012-03-03T09:18:42Z</time>
      </trkpt>
      <trkpt lat="44.1319" lon="6.99042">
        <ele>2036</ele>
        <time>2012-03-03T09:18:43Z</time>
      </trkpt>
      <trkpt lat="44.13188" lon="6.99019">
        <ele>2030</ele>
        <time>2012-03-03T09:18:55Z</time>
      </trkpt>
      <trkpt lat="44.13183" lon="6.99009">
        <ele>2031</ele>
        <time>2012-03-03T09:19:02Z</time>
      </trkpt>
      <trkpt lat="44.1318" lon="6.98998">
        <ele>2031</ele>
        <time>2012-03-03T09:19:09Z</time>
      </trkpt>
      <trkpt lat="44.13177" lon="6.98987">
        <ele>2029</ele>
        <time>2012-03-03T09:19:16Z</time>
      </trkpt>
      <trkpt lat="44.13176" lon="6.98976">
        <ele>2030</ele>
        <time>2012-03-03T09:19:24Z</time>
      </trkpt>
      <trkpt lat="44.13175" lon="6.98964">
        <ele>2032</ele>
        <time>2012-03-03T09:19:34Z</time>
      </trkpt>
      <trkpt lat="44.13174" lon="6.98953">
        <ele>2023</ele>
        <time>2012-03-03T09:20:24Z</time>
      </trkpt>
      <trkpt lat="44.13173" lon="6.98951">
        <ele>2023</ele>
        <time>2012-03-03T09:20:25Z</time>
      </trkpt>
      <trkpt lat="44.13169" lon="6.98931">
        <ele>2026</ele>
        <time>2012-03-03T09:20:35Z</time>
      </trkpt>
      <trkpt lat="44.13165" lon="6.9892">
        <ele>2024</ele>
        <time>2012-03-03T09:20:42Z</time>
      </trkpt>
      <trkpt lat="44.13166" lon="6.98908">
        <ele>2028</ele>
        <time>2012-03-03T09:20:48Z</time>
      </trkpt>
      <trkpt lat="44.13166" lon="6.98895">
        <ele>2032</ele>
        <time>2012-03-03T09:20:57Z</time>
      </trkpt>
      <trkpt lat="44.13167" lon="6.98884">
        <ele>2029</ele>
        <time>2012-03-03T09:21:05Z</time>
      </trkpt>
      <trkpt lat="44.13169" lon="6.98872">
        <ele>2028</ele>
        <time>2012-03-03T09:21:12Z</time>
      </trkpt>
      <trkpt lat="44.13162" lon="6.98867">
        <ele>2030</ele>
        <time>2012-03-03T09:21:23Z</time>
      </trkpt>
      <trkpt lat="44.1316" lon="6.98857">
        <ele>2034</ele>
        <time>2012-03-03T09:21:28Z</time>
      </trkpt>
      <trkpt lat="44.1316" lon="6.98853">
        <ele>2033</ele>
        <time>2012-03-03T09:21:29Z</time>
      </trkpt>
      <trkpt lat="44.13157" lon="6.98833">
        <ele>2043</ele>
        <time>2012-03-03T09:21:44Z</time>
      </trkpt>
      <trkpt lat="44.13154" lon="6.98823">
        <ele>2041</ele>
        <time>2012-03-03T09:21:52Z</time>
      </trkpt>
      <trkpt lat="44.1315" lon="6.98812">
        <ele>2041</ele>
        <time>2012-03-03T09:22:03Z</time>
      </trkpt>
      <trkpt lat="44.13152" lon="6.98799">
        <ele>2036</ele>
        <time>2012-03-03T09:22:14Z</time>
      </trkpt>
      <trkpt lat="44.13154" lon="6.98787">
        <ele>2036</ele>
        <time>2012-03-03T09:22:23Z</time>
      </trkpt>
      <trkpt lat="44.13149" lon="6.98779">
        <ele>2033</ele>
        <time>2012-03-03T09:22:31Z</time>
      </trkpt>
      <trkpt lat="44.13149" lon="6.98777">
        <ele>2033</ele>
        <time>2012-03-03T09:22:32Z</time>
      </trkpt>
      <trkpt lat="44.13147" lon="6.98757">
        <ele>2041</ele>
        <time>2012-03-03T09:22:43Z</time>
      </trkpt>
      <trkpt lat="44.13149" lon="6.98746">
        <ele>2040</ele>
        <time>2012-03-03T09:22:50Z</time>
      </trkpt>
      <trkpt lat="44.13149" lon="6.98734">
        <ele>2040</ele>
        <time>2012-03-03T09:22:58Z</time>
      </trkpt>
      <trkpt lat="44.13148" lon="6.98722">
        <ele>2041</ele>
        <time>2012-03-03T09:23:12Z</time>
      </trkpt>
      <trkpt lat="44.13149" lon="6.98711">
        <ele>2053</ele>
        <time>2012-03-03T09:23:24Z</time>
      </trkpt>
      <trkpt lat="44.13145" lon="6.987">
        <ele>2060</ele>
        <time>2012-03-03T09:23:32Z</time>
      </trkpt>
      <trkpt lat="44.13145" lon="6.98698">
        <ele>2059</ele>
        <time>2012-03-03T09:23:33Z</time>
      </trkpt>
      <trkpt lat="44.1315" lon="6.98677">
        <ele>2059</ele>
        <time>2012-03-03T09:23:59Z</time>
      </trkpt>
      <trkpt lat="44.13149" lon="6.98664">
        <ele>2065</ele>
        <time>2012-03-03T09:24:06Z</time>
      </trkpt>
      <trkpt lat="44.13147" lon="6.98654">
        <ele>2068</ele>
        <time>2012-03-03T09:24:14Z</time>
      </trkpt>
      <trkpt lat="44.13145" lon="6.98644">
        <ele>2072</ele>
        <time>2012-03-03T09:24:21Z</time>
      </trkpt>
      <trkpt lat="44.13144" lon="6.98632">
        <ele>2075</ele>
        <time>2012-03-03T09:24:25Z</time>
      </trkpt>
      <trkpt lat="44.13149" lon="6.98623">
        <ele>2074</ele>
        <time>2012-03-03T09:24:30Z</time>
      </trkpt>
      <trkpt lat="44.13147" lon="6.98611">
        <ele>2080</ele>
        <time>2012-03-03T09:24:42Z</time>
      </trkpt>
      <trkpt lat="44.13147" lon="6.9861">
        <ele>2079</ele>
        <time>2012-03-03T09:24:43Z</time>
      </trkpt>
      <trkpt lat="44.13147" lon="6.98588">
        <ele>2084</ele>
        <time>2012-03-03T09:25:01Z</time>
      </trkpt>
      <trkpt lat="44.13153" lon="6.9858">
        <ele>2089</ele>
        <time>2012-03-03T09:25:10Z</time>
      </trkpt>
      <trkpt lat="44.13157" lon="6.98569">
        <ele>2092</ele>
        <time>2012-03-03T09:25:21Z</time>
      </trkpt>
      <trkpt lat="44.13163" lon="6.98562">
        <ele>2099</ele>
        <time>2012-03-03T09:25:33Z</time>
      </trkpt>
      <trkpt lat="44.13166" lon="6.9855">
        <ele>2091</ele>
        <time>2012-03-03T09:25:36Z</time>
      </trkpt>
      <trkpt lat="44.13168" lon="6.98541">
        <ele>2091</ele>
        <time>2012-03-03T09:25:38Z</time>
      </trkpt>
      <trkpt lat="44.13171" lon="6.98531">
        <ele>2090</ele>
        <time>2012-03-03T09:25:41Z</time>
      </trkpt>
      <trkpt lat="44.13179" lon="6.98533">
        <ele>2092</ele>
        <time>2012-03-03T09:25:54Z</time>
      </trkpt>
      <trkpt lat="44.1318" lon="6.98533">
        <ele>2092</ele>
        <time>2012-03-03T09:25:55Z</time>
      </trkpt>
      <trkpt lat="44.13184" lon="6.98511">
        <ele>2094</ele>
        <time>2012-03-03T09:26:08Z</time>
      </trkpt>
      <trkpt lat="44.13192" lon="6.98504">
        <ele>2096</ele>
        <time>2012-03-03T09:26:15Z</time>
      </trkpt>
      <trkpt lat="44.132" lon="6.98502">
        <ele>2093</ele>
        <time>2012-03-03T09:26:21Z</time>
      </trkpt>
      <trkpt lat="44.13207" lon="6.98495">
        <ele>2096</ele>
        <time>2012-03-03T09:26:30Z</time>
      </trkpt>
      <trkpt lat="44.13214" lon="6.98491">
        <ele>2097</ele>
        <time>2012-03-03T09:26:39Z</time>
      </trkpt>
      <trkpt lat="44.13221" lon="6.98487">
        <ele>2095</ele>
        <time>2012-03-03T09:26:45Z</time>
      </trkpt>
      <trkpt lat="44.13227" lon="6.98481">
        <ele>2098</ele>
        <time>2012-03-03T09:26:50Z</time>
      </trkpt>
      <trkpt lat="44.13233" lon="6.98473">
        <ele>2096</ele>
        <time>2012-03-03T09:26:55Z</time>
      </trkpt>
      <trkpt lat="44.13234" lon="6.98472">
        <ele>2096</ele>
        <time>2012-03-03T09:26:56Z</time>
      </trkpt>
      <trkpt lat="44.13246" lon="6.98456">
        <ele>2101</ele>
        <time>2012-03-03T09:27:14Z</time>
      </trkpt>
      <trkpt lat="44.1325" lon="6.98446">
        <ele>2102</ele>
        <time>2012-03-03T09:27:23Z</time>
      </trkpt>
      <trkpt lat="44.13253" lon="6.98436">
        <ele>2102</ele>
        <time>2012-03-03T09:27:29Z</time>
      </trkpt>
      <trkpt lat="44.13254" lon="6.98425">
        <ele>2106</ele>
        <time>2012-03-03T09:27:33Z</time>
      </trkpt>
      <trkpt lat="44.13257" lon="6.98414">
        <ele>2113</ele>
        <time>2012-03-03T09:27:43Z</time>
      </trkpt>
      <trkpt lat="44.13262" lon="6.98403">
        <ele>2114</ele>
        <time>2012-03-03T09:27:53Z</time>
      </trkpt>
      <trkpt lat="44.13264" lon="6.98391">
        <ele>2116</ele>
        <time>2012-03-03T09:28:02Z</time>
      </trkpt>
      <trkpt lat="44.13263" lon="6.9839">
        <ele>2116</ele>
        <time>2012-03-03T09:28:03Z</time>
      </trkpt>
      <trkpt lat="44.13272" lon="6.9837">
        <ele>2118</ele>
        <time>2012-03-03T09:28:19Z</time>
      </trkpt>
      <trkpt lat="44.13275" lon="6.98361">
        <ele>2122</ele>
        <time>2012-03-03T09:28:27Z</time>
      </trkpt>
      <trkpt lat="44.13278" lon="6.98349">
        <ele>2121</ele>
        <time>2012-03-03T09:28:36Z</time>
      </trkpt>
      <trkpt lat="44.1328" lon="6.98338">
        <ele>2128</ele>
        <time>2012-03-03T09:28:44Z</time>
      </trkpt>
      <trkpt lat="44.13287" lon="6.98331">
        <ele>2129</ele>
        <time>2012-03-03T09:28:55Z</time>
      </trkpt>
      <trkpt lat="44.13293" lon="6.98323">
        <ele>2127</ele>
        <time>2012-03-03T09:29:05Z</time>
      </trkpt>
      <trkpt lat="44.13294" lon="6.98322">
        <ele>2126</ele>
        <time>2012-03-03T09:29:06Z</time>
      </trkpt>
      <trkpt lat="44.13302" lon="6.98302">
        <ele>2125</ele>
        <time>2012-03-03T09:29:24Z</time>
      </trkpt>
      <trkpt lat="44.13301" lon="6.9829">
        <ele>2129</ele>
        <time>2012-03-03T09:29:33Z</time>
      </trkpt>
      <trkpt lat="44.13305" lon="6.9828">
        <ele>2131</ele>
        <time>2012-03-03T09:29:41Z</time>
      </trkpt>
      <trkpt lat="44.13309" lon="6.9827">
        <ele>2133</ele>
        <time>2012-03-03T09:29:48Z</time>
      </trkpt>
      <trkpt lat="44.13309" lon="6.98257">
        <ele>2134</ele>
        <time>2012-03-03T09:29:53Z</time>
      </trkpt>
      <trkpt lat="44.13312" lon="6.98247">
        <ele>2134</ele>
        <time>2012-03-03T09:30:02Z</time>
      </trkpt>
      <trkpt lat="44.13318" lon="6.98238">
        <ele>2133</ele>
        <time>2012-03-03T09:30:11Z</time>
      </trkpt>
      <trkpt lat="44.13318" lon="6.98237">
        <ele>2134</ele>
        <time>2012-03-03T09:30:12Z</time>
      </trkpt>
      <trkpt lat="44.13326" lon="6.98218">
        <ele>2134</ele>
        <time>2012-03-03T09:30:29Z</time>
      </trkpt>
      <trkpt lat="44.13332" lon="6.98209">
        <ele>2136</ele>
        <time>2012-03-03T09:30:37Z</time>
      </trkpt>
      <trkpt lat="44.13337" lon="6.98199">
        <ele>2141</ele>
        <time>2012-03-03T09:30:47Z</time>
      </trkpt>
      <trkpt lat="44.13339" lon="6.98187">
        <ele>2143</ele>
        <time>2012-03-03T09:30:54Z</time>
      </trkpt>
      <trkpt lat="44.13342" lon="6.98177">
        <ele>2146</ele>
        <time>2012-03-03T09:31:02Z</time>
      </trkpt>
      <trkpt lat="44.13347" lon="6.98168">
        <ele>2147</ele>
        <time>2012-03-03T09:31:10Z</time>
      </trkpt>
      <trkpt lat="44.13353" lon="6.98159">
        <ele>2147</ele>
        <time>2012-03-03T09:31:18Z</time>
      </trkpt>
      <trkpt lat="44.13354" lon="6.98158">
        <ele>2147</ele>
        <time>2012-03-03T09:31:19Z</time>
      </trkpt>
      <trkpt lat="44.13365" lon="6.98143">
        <ele>2148</ele>
        <time>2012-03-03T09:31:32Z</time>
      </trkpt>
      <trkpt lat="44.13373" lon="6.98137">
        <ele>2146</ele>
        <time>2012-03-03T09:31:42Z</time>
      </trkpt>
      <trkpt lat="44.13379" lon="6.98128">
        <ele>2148</ele>
        <time>2012-03-03T09:31:51Z</time>
      </trkpt>
      <trkpt lat="44.13386" lon="6.9812">
        <ele>2148</ele>
        <time>2012-03-03T09:32:01Z</time>
      </trkpt>
      <trkpt lat="44.13392" lon="6.98112">
        <ele>2146</ele>
        <time>2012-03-03T09:32:09Z</time>
      </trkpt>
      <trkpt lat="44.13396" lon="6.98102">
        <ele>2146</ele>
        <time>2012-03-03T09:32:20Z</time>
      </trkpt>
      <trkpt lat="44.13396" lon="6.98101">
        <ele>2147</ele>
        <time>2012-03-03T09:32:21Z</time>
      </trkpt>
      <trkpt lat="44.13409" lon="6.98087">
        <ele>2147</ele>
        <time>2012-03-03T09:32:42Z</time>
      </trkpt>
      <trkpt lat="44.13417" lon="6.98083">
        <ele>2146</ele>
        <time>2012-03-03T09:32:51Z</time>
      </trkpt>
      <trkpt lat="44.13421" lon="6.98072">
        <ele>2147</ele>
        <time>2012-03-03T09:33:00Z</time>
      </trkpt>
      <trkpt lat="44.13421" lon="6.9806">
        <ele>2144</ele>
        <time>2012-03-03T09:33:26Z</time>
      </trkpt>
      <trkpt lat="44.13422" lon="6.98059">
        <ele>2143</ele>
        <time>2012-03-03T09:33:27Z</time>
      </trkpt>
      <trkpt lat="44.13429" lon="6.98038">
        <ele>2142</ele>
        <time>2012-03-03T09:33:42Z</time>
      </trkpt>
      <trkpt lat="44.13433" lon="6.98027">
        <ele>2142</ele>
        <time>2012-03-03T09:33:50Z</time>
      </trkpt>
      <trkpt lat="44.13429" lon="6.98017">
        <ele>2145</ele>
        <time>2012-03-03T09:33:57Z</time>
      </trkpt>
      <trkpt lat="44.13425" lon="6.98007">
        <ele>2146</ele>
        <time>2012-03-03T09:34:03Z</time>
      </trkpt>
      <trkpt lat="44.13421" lon="6.97996">
        <ele>2146</ele>
        <time>2012-03-03T09:34:10Z</time>
      </trkpt>
      <trkpt lat="44.13427" lon="6.97987">
        <ele>2144</ele>
        <time>2012-03-03T09:34:22Z</time>
      </trkpt>
      <trkpt lat="44.13429" lon="6.97976">
        <ele>2147</ele>
        <time>2012-03-03T09:34:33Z</time>
      </trkpt>
      <trkpt lat="44.13429" lon="6.97975">
        <ele>2147</ele>
        <time>2012-03-03T09:34:34Z</time>
      </trkpt>
      <trkpt lat="44.13437" lon="6.97957">
        <ele>2144</ele>
        <time>2012-03-03T09:34:50Z</time>
      </trkpt>
      <trkpt lat="44.13433" lon="6.97946">
        <ele>2144</ele>
        <time>2012-03-03T09:34:59Z</time>
      </trkpt>
      <trkpt lat="44.13434" lon="6.97936">
        <ele>2148</ele>
        <time>2012-03-03T09:35:07Z</time>
      </trkpt>
      <trkpt lat="44.13438" lon="6.97925">
        <ele>2146</ele>
        <time>2012-03-03T09:35:15Z</time>
      </trkpt>
      <trkpt lat="44.13443" lon="6.97916">
        <ele>2149</ele>
        <time>2012-03-03T09:35:23Z</time>
      </trkpt>
      <trkpt lat="44.13448" lon="6.97906">
        <ele>2147</ele>
        <time>2012-03-03T09:35:34Z</time>
      </trkpt>
      <trkpt lat="44.13449" lon="6.97905">
        <ele>2147</ele>
        <time>2012-03-03T09:35:35Z</time>
      </trkpt>
      <trkpt lat="44.13455" lon="6.97885">
        <ele>2156</ele>
        <time>2012-03-03T09:36:05Z</time>
      </trkpt>
      <trkpt lat="44.13461" lon="6.97877">
        <ele>2160</ele>
        <time>2012-03-03T09:36:14Z</time>
      </trkpt>
      <trkpt lat="44.13467" lon="6.97869">
        <ele>2165</ele>
        <time>2012-03-03T09:36:22Z</time>
      </trkpt>
      <trkpt lat="44.13472" lon="6.9786">
        <ele>2167</ele>
        <time>2012-03-03T09:36:30Z</time>
      </trkpt>
      <trkpt lat="44.13478" lon="6.97852">
        <ele>2171</ele>
        <time>2012-03-03T09:36:43Z</time>
      </trkpt>
      <trkpt lat="44.13479" lon="6.97851">
        <ele>2171</ele>
        <time>2012-03-03T09:36:44Z</time>
      </trkpt>
      <trkpt lat="44.13487" lon="6.97832">
        <ele>2174</ele>
        <time>2012-03-03T09:36:59Z</time>
      </trkpt>
      <trkpt lat="44.13491" lon="6.97822">
        <ele>2178</ele>
        <time>2012-03-03T09:37:07Z</time>
      </trkpt>
      <trkpt lat="44.13497" lon="6.97813">
        <ele>2178</ele>
        <time>2012-03-03T09:37:17Z</time>
      </trkpt>
      <trkpt lat="44.13498" lon="6.97802">
        <ele>2172</ele>
        <time>2012-03-03T09:37:23Z</time>
      </trkpt>
      <trkpt lat="44.13501" lon="6.9779">
        <ele>2171</ele>
        <time>2012-03-03T09:37:33Z</time>
      </trkpt>
      <trkpt lat="44.13501" lon="6.9778">
        <ele>2169</ele>
        <time>2012-03-03T09:37:44Z</time>
      </trkpt>
      <trkpt lat="44.135" lon="6.97778">
        <ele>2169</ele>
        <time>2012-03-03T09:37:45Z</time>
      </trkpt>
      <trkpt lat="44.13499" lon="6.97757">
        <ele>2174</ele>
        <time>2012-03-03T09:38:09Z</time>
      </trkpt>
      <trkpt lat="44.13499" lon="6.97745">
        <ele>2174</ele>
        <time>2012-03-03T09:38:27Z</time>
      </trkpt>
      <trkpt lat="44.13495" lon="6.97734">
        <ele>2190</ele>
        <time>2012-03-03T09:38:44Z</time>
      </trkpt>
      <trkpt lat="44.13495" lon="6.97733">
        <ele>2190</ele>
        <time>2012-03-03T09:38:45Z</time>
      </trkpt>
      <trkpt lat="44.13492" lon="6.97715">
        <ele>2207</ele>
        <time>2012-03-03T09:39:02Z</time>
      </trkpt>
      <trkpt lat="44.13486" lon="6.97705">
        <ele>2217</ele>
        <time>2012-03-03T09:39:17Z</time>
      </trkpt>
      <trkpt lat="44.13492" lon="6.97697">
        <ele>2216</ele>
        <time>2012-03-03T09:39:38Z</time>
      </trkpt>
      <trkpt lat="44.13491" lon="6.97686">
        <ele>2222</ele>
        <time>2012-03-03T09:39:48Z</time>
      </trkpt>
      <trkpt lat="44.1349" lon="6.97684">
        <ele>2222</ele>
        <time>2012-03-03T09:39:49Z</time>
      </trkpt>
      <trkpt lat="44.13484" lon="6.97664">
        <ele>2228</ele>
        <time>2012-03-03T09:40:01Z</time>
      </trkpt>
      <trkpt lat="44.1348" lon="6.97653">
        <ele>2233</ele>
        <time>2012-03-03T09:40:15Z</time>
      </trkpt>
      <trkpt lat="44.13478" lon="6.97641">
        <ele>2234</ele>
        <time>2012-03-03T09:40:33Z</time>
      </trkpt>
      <trkpt lat="44.1348" lon="6.9763">
        <ele>2235</ele>
        <time>2012-03-03T09:40:41Z</time>
      </trkpt>
      <trkpt lat="44.1348" lon="6.97619">
        <ele>2241</ele>
        <time>2012-03-03T09:40:50Z</time>
      </trkpt>
      <trkpt lat="44.13479" lon="6.97617">
        <ele>2241</ele>
        <time>2012-03-03T09:40:51Z</time>
      </trkpt>
      <trkpt lat="44.13485" lon="6.97598">
        <ele>2246</ele>
        <time>2012-03-03T09:41:13Z</time>
      </trkpt>
      <trkpt lat="44.13485" lon="6.97586">
        <ele>2249</ele>
        <time>2012-03-03T09:41:27Z</time>
      </trkpt>
      <trkpt lat="44.1349" lon="6.97576">
        <ele>2249</ele>
        <time>2012-03-03T09:41:39Z</time>
      </trkpt>
      <trkpt lat="44.13498" lon="6.9757">
        <ele>2246</ele>
        <time>2012-03-03T09:41:49Z</time>
      </trkpt>
      <trkpt lat="44.13499" lon="6.97558">
        <ele>2246</ele>
        <time>2012-03-03T09:42:02Z</time>
      </trkpt>
      <trkpt lat="44.13499" lon="6.97557">
        <ele>2247</ele>
        <time>2012-03-03T09:42:03Z</time>
      </trkpt>
      <trkpt lat="44.13502" lon="6.97537">
        <ele>2255</ele>
        <time>2012-03-03T09:42:22Z</time>
      </trkpt>
      <trkpt lat="44.13501" lon="6.97524">
        <ele>2256</ele>
        <time>2012-03-03T09:42:35Z</time>
      </trkpt>
      <trkpt lat="44.13501" lon="6.97512">
        <ele>2260</ele>
        <time>2012-03-03T09:42:44Z</time>
      </trkpt>
      <trkpt lat="44.13506" lon="6.97502">
        <ele>2264</ele>
        <time>2012-03-03T09:43:01Z</time>
      </trkpt>
      <trkpt lat="44.13505" lon="6.9749">
        <ele>2268</ele>
        <time>2012-03-03T09:43:17Z</time>
      </trkpt>
      <trkpt lat="44.13505" lon="6.97489">
        <ele>2268</ele>
        <time>2012-03-03T09:43:18Z</time>
      </trkpt>
      <trkpt lat="44.13515" lon="6.9747">
        <ele>2268</ele>
        <time>2012-03-03T09:43:36Z</time>
      </trkpt>
      <trkpt lat="44.13517" lon="6.97459">
        <ele>2271</ele>
        <time>2012-03-03T09:43:50Z</time>
      </trkpt>
      <trkpt lat="44.13519" lon="6.97447">
        <ele>2273</ele>
        <time>2012-03-03T09:43:59Z</time>
      </trkpt>
      <trkpt lat="44.13519" lon="6.97435">
        <ele>2272</ele>
        <time>2012-03-03T09:44:06Z</time>
      </trkpt>
      <trkpt lat="44.13522" lon="6.97424">
        <ele>2278</ele>
        <time>2012-03-03T09:44:13Z</time>
      </trkpt>
      <trkpt lat="44.13522" lon="6.97412">
        <ele>2283</ele>
        <time>2012-03-03T09:44:24Z</time>
      </trkpt>
      <trkpt lat="44.13522" lon="6.97411">
        <ele>2284</ele>
        <time>2012-03-03T09:44:25Z</time>
      </trkpt>
      <trkpt lat="44.13529" lon="6.97392">
        <ele>2279</ele>
        <time>2012-03-03T09:44:39Z</time>
      </trkpt>
      <trkpt lat="44.13534" lon="6.97382">
        <ele>2284</ele>
        <time>2012-03-03T09:44:47Z</time>
      </trkpt>
      <trkpt lat="44.13538" lon="6.97372">
        <ele>2291</ele>
        <time>2012-03-03T09:45:22Z</time>
      </trkpt>
      <trkpt lat="44.1354" lon="6.9736">
        <ele>2285</ele>
        <time>2012-03-03T09:45:51Z</time>
      </trkpt>
      <trkpt lat="44.1354" lon="6.97359">
        <ele>2285</ele>
        <time>2012-03-03T09:45:52Z</time>
      </trkpt>
      <trkpt lat="44.13548" lon="6.9734">
        <ele>2285</ele>
        <time>2012-03-03T09:46:08Z</time>
      </trkpt>
      <trkpt lat="44.13551" lon="6.97329">
        <ele>2287</ele>
        <time>2012-03-03T09:46:19Z</time>
      </trkpt>
      <trkpt lat="44.13557" lon="6.9732">
        <ele>2283</ele>
        <time>2012-03-03T09:46:38Z</time>
      </trkpt>
      <trkpt lat="44.13553" lon="6.97309">
        <ele>2285</ele>
        <time>2012-03-03T09:46:47Z</time>
      </trkpt>
      <trkpt lat="44.13552" lon="6.97297">
        <ele>2291</ele>
        <time>2012-03-03T09:46:58Z</time>
      </trkpt>
      <trkpt lat="44.13552" lon="6.97296">
        <ele>2291</ele>
        <time>2012-03-03T09:46:59Z</time>
      </trkpt>
      <trkpt lat="44.13551" lon="6.97273">
        <ele>2308</ele>
        <time>2012-03-03T09:47:36Z</time>
      </trkpt>
      <trkpt lat="44.13556" lon="6.97263">
        <ele>2307</ele>
        <time>2012-03-03T09:47:51Z</time>
      </trkpt>
      <trkpt lat="44.13559" lon="6.97252">
        <ele>2309</ele>
        <time>2012-03-03T09:48:01Z</time>
      </trkpt>
      <trkpt lat="44.1356" lon="6.97251">
        <ele>2310</ele>
        <time>2012-03-03T09:48:02Z</time>
      </trkpt>
      <trkpt lat="44.13567" lon="6.97229">
        <ele>2322</ele>
        <time>2012-03-03T09:48:24Z</time>
      </trkpt>
      <trkpt lat="44.13566" lon="6.97218">
        <ele>2328</ele>
        <time>2012-03-03T09:48:35Z</time>
      </trkpt>
      <trkpt lat="44.13567" lon="6.97206">
        <ele>2326</ele>
        <time>2012-03-03T09:49:01Z</time>
      </trkpt>
      <trkpt lat="44.13559" lon="6.97202">
        <ele>2331</ele>
        <time>2012-03-03T09:49:12Z</time>
      </trkpt>
      <trkpt lat="44.13558" lon="6.97202">
        <ele>2331</ele>
        <time>2012-03-03T09:49:13Z</time>
      </trkpt>
      <trkpt lat="44.1355" lon="6.97181">
        <ele>2339</ele>
        <time>2012-03-03T09:49:54Z</time>
      </trkpt>
      <trkpt lat="44.13545" lon="6.97172">
        <ele>2346</ele>
        <time>2012-03-03T09:50:14Z</time>
      </trkpt>
      <trkpt lat="44.13544" lon="6.97171">
        <ele>2346</ele>
        <time>2012-03-03T09:50:15Z</time>
      </trkpt>
      <trkpt lat="44.13535" lon="6.97154">
        <ele>2357</ele>
        <time>2012-03-03T09:50:50Z</time>
      </trkpt>
      <trkpt lat="44.1353" lon="6.97145">
        <ele>2359</ele>
        <time>2012-03-03T09:50:58Z</time>
      </trkpt>
      <trkpt lat="44.13538" lon="6.97143">
        <ele>2356</ele>
        <time>2012-03-03T09:51:17Z</time>
      </trkpt>
      <trkpt lat="44.1354" lon="6.97145">
        <ele>2356</ele>
        <time>2012-03-03T09:51:18Z</time>
      </trkpt>
      <trkpt lat="44.13553" lon="6.97136">
        <ele>2357</ele>
        <time>2012-03-03T09:51:40Z</time>
      </trkpt>
      <trkpt lat="44.13559" lon="6.97127">
        <ele>2358</ele>
        <time>2012-03-03T09:51:51Z</time>
      </trkpt>
      <trkpt lat="44.13563" lon="6.97116">
        <ele>2361</ele>
        <time>2012-03-03T09:52:11Z</time>
      </trkpt>
      <trkpt lat="44.13572" lon="6.97117">
        <ele>2359</ele>
        <time>2012-03-03T09:52:22Z</time>
      </trkpt>
      <trkpt lat="44.13572" lon="6.97117">
        <ele>2360</ele>
        <time>2012-03-03T09:52:23Z</time>
      </trkpt>
      <trkpt lat="44.13585" lon="6.97101">
        <ele>2361</ele>
        <time>2012-03-03T09:52:48Z</time>
      </trkpt>
      <trkpt lat="44.13592" lon="6.97095">
        <ele>2364</ele>
        <time>2012-03-03T09:53:00Z</time>
      </trkpt>
      <trkpt lat="44.13598" lon="6.97087">
        <ele>2366</ele>
        <time>2012-03-03T09:53:12Z</time>
      </trkpt>
      <trkpt lat="44.13607" lon="6.97086">
        <ele>2364</ele>
        <time>2012-03-03T09:53:22Z</time>
      </trkpt>
      <trkpt lat="44.13608" lon="6.97085">
        <ele>2364</ele>
        <time>2012-03-03T09:53:23Z</time>
      </trkpt>
      <trkpt lat="44.1362" lon="6.97071">
        <ele>2373</ele>
        <time>2012-03-03T09:53:41Z</time>
      </trkpt>
      <trkpt lat="44.13628" lon="6.97066">
        <ele>2378</ele>
        <time>2012-03-03T09:53:49Z</time>
      </trkpt>
      <trkpt lat="44.13636" lon="6.97063">
        <ele>2380</ele>
        <time>2012-03-03T09:53:58Z</time>
      </trkpt>
      <trkpt lat="44.13644" lon="6.97058">
        <ele>2388</ele>
        <time>2012-03-03T09:54:12Z</time>
      </trkpt>
      <trkpt lat="44.13652" lon="6.97055">
        <ele>2392</ele>
        <time>2012-03-03T09:54:19Z</time>
      </trkpt>
      <trkpt lat="44.1366" lon="6.97051">
        <ele>2392</ele>
        <time>2012-03-03T09:54:25Z</time>
      </trkpt>
      <trkpt lat="44.13661" lon="6.9705">
        <ele>2393</ele>
        <time>2012-03-03T09:54:26Z</time>
      </trkpt>
      <trkpt lat="44.13674" lon="6.97041">
        <ele>2393</ele>
        <time>2012-03-03T09:54:46Z</time>
      </trkpt>
      <trkpt lat="44.13681" lon="6.97036">
        <ele>2392</ele>
        <time>2012-03-03T09:54:58Z</time>
      </trkpt>
      <trkpt lat="44.13688" lon="6.97029">
        <ele>2393</ele>
        <time>2012-03-03T09:55:06Z</time>
      </trkpt>
      <trkpt lat="44.13693" lon="6.97019">
        <ele>2395</ele>
        <time>2012-03-03T09:55:16Z</time>
      </trkpt>
      <trkpt lat="44.137" lon="6.9701">
        <ele>2405</ele>
        <time>2012-03-03T09:55:38Z</time>
      </trkpt>
      <trkpt lat="44.13702" lon="6.97009">
        <ele>2405</ele>
        <time>2012-03-03T09:55:39Z</time>
      </trkpt>
      <trkpt lat="44.13715" lon="6.97004">
        <ele>2403</ele>
        <time>2012-03-03T09:55:48Z</time>
      </trkpt>
      <trkpt lat="44.13722" lon="6.96998">
        <ele>2402</ele>
        <time>2012-03-03T09:55:53Z</time>
      </trkpt>
      <trkpt lat="44.13728" lon="6.96989">
        <ele>2401</ele>
        <time>2012-03-03T09:56:02Z</time>
      </trkpt>
      <trkpt lat="44.13729" lon="6.96977">
        <ele>2403</ele>
        <time>2012-03-03T09:56:25Z</time>
      </trkpt>
      <trkpt lat="44.13736" lon="6.96984">
        <ele>2400</ele>
        <time>2012-03-03T10:15:37Z</time>
      </trkpt>
      <trkpt lat="44.13736" lon="6.96986">
        <ele>2400</ele>
        <time>2012-03-03T10:15:38Z</time>
      </trkpt>
      <trkpt lat="44.13735" lon="6.96985">
        <ele>2403</ele>
        <time>2012-03-03T10:16:16Z</time>
      </trkpt>
      <trkpt lat="44.13729" lon="6.96978">
        <ele>2408</ele>
        <time>2012-03-03T10:16:30Z</time>
      </trkpt>
      <trkpt lat="44.13723" lon="6.96968">
        <ele>2404</ele>
        <time>2012-03-03T10:17:33Z</time>
      </trkpt>
      <trkpt lat="44.13723" lon="6.96967">
        <ele>2404</ele>
        <time>2012-03-03T10:17:34Z</time>
      </trkpt>
      <trkpt lat="44.13717" lon="6.96946">
        <ele>2406</ele>
        <time>2012-03-03T10:17:51Z</time>
      </trkpt>
      <trkpt lat="44.13714" lon="6.96934">
        <ele>2409</ele>
        <time>2012-03-03T10:18:08Z</time>
      </trkpt>
      <trkpt lat="44.13712" lon="6.96922">
        <ele>2406</ele>
        <time>2012-03-03T10:18:19Z</time>
      </trkpt>
      <trkpt lat="44.13711" lon="6.96911">
        <ele>2409</ele>
        <time>2012-03-03T10:18:29Z</time>
      </trkpt>
      <trkpt lat="44.13707" lon="6.96899">
        <ele>2412</ele>
        <time>2012-03-03T10:18:40Z</time>
      </trkpt>
      <trkpt lat="44.13707" lon="6.96898">
        <ele>2412</ele>
        <time>2012-03-03T10:18:41Z</time>
      </trkpt>
      <trkpt lat="44.13703" lon="6.96876">
        <ele>2412</ele>
        <time>2012-03-03T10:19:00Z</time>
      </trkpt>
      <trkpt lat="44.13702" lon="6.96864">
        <ele>2413</ele>
        <time>2012-03-03T10:19:10Z</time>
      </trkpt>
      <trkpt lat="44.13703" lon="6.96853">
        <ele>2414</ele>
        <time>2012-03-03T10:19:24Z</time>
      </trkpt>
      <trkpt lat="44.13703" lon="6.9684">
        <ele>2418</ele>
        <time>2012-03-03T10:19:37Z</time>
      </trkpt>
      <trkpt lat="44.13702" lon="6.96828">
        <ele>2418</ele>
        <time>2012-03-03T10:19:50Z</time>
      </trkpt>
      <trkpt lat="44.13702" lon="6.96827">
        <ele>2418</ele>
        <time>2012-03-03T10:19:51Z</time>
      </trkpt>
      <trkpt lat="44.13704" lon="6.96804">
        <ele>2422</ele>
        <time>2012-03-03T10:20:16Z</time>
      </trkpt>
      <trkpt lat="44.13707" lon="6.96792">
        <ele>2426</ele>
        <time>2012-03-03T10:20:28Z</time>
      </trkpt>
      <trkpt lat="44.1371" lon="6.96781">
        <ele>2425</ele>
        <time>2012-03-03T10:20:40Z</time>
      </trkpt>
      <trkpt lat="44.13711" lon="6.96769">
        <ele>2427</ele>
        <time>2012-03-03T10:20:49Z</time>
      </trkpt>
      <trkpt lat="44.13715" lon="6.96759">
        <ele>2428</ele>
        <time>2012-03-03T10:21:05Z</time>
      </trkpt>
      <trkpt lat="44.13716" lon="6.96758">
        <ele>2428</ele>
        <time>2012-03-03T10:21:06Z</time>
      </trkpt>
      <trkpt lat="44.1372" lon="6.96736">
        <ele>2425</ele>
        <time>2012-03-03T10:21:24Z</time>
      </trkpt>
      <trkpt lat="44.13724" lon="6.96726">
        <ele>2428</ele>
        <time>2012-03-03T10:21:33Z</time>
      </trkpt>
      <trkpt lat="44.13725" lon="6.96714">
        <ele>2429</ele>
        <time>2012-03-03T10:21:42Z</time>
      </trkpt>
      <trkpt lat="44.13726" lon="6.96702">
        <ele>2429</ele>
        <time>2012-03-03T10:21:51Z</time>
      </trkpt>
      <trkpt lat="44.13726" lon="6.9669">
        <ele>2430</ele>
        <time>2012-03-03T10:22:01Z</time>
      </trkpt>
      <trkpt lat="44.13722" lon="6.9668">
        <ele>2428</ele>
        <time>2012-03-03T10:22:12Z</time>
      </trkpt>
      <trkpt lat="44.13722" lon="6.96679">
        <ele>2428</ele>
        <time>2012-03-03T10:22:13Z</time>
      </trkpt>
      <trkpt lat="44.13712" lon="6.9666">
        <ele>2428</ele>
        <time>2012-03-03T10:22:34Z</time>
      </trkpt>
      <trkpt lat="44.13708" lon="6.96651">
        <ele>2428</ele>
        <time>2012-03-03T10:22:43Z</time>
      </trkpt>
      <trkpt lat="44.13704" lon="6.9664">
        <ele>2429</ele>
        <time>2012-03-03T10:22:52Z</time>
      </trkpt>
      <trkpt lat="44.13701" lon="6.96628">
        <ele>2428</ele>
        <time>2012-03-03T10:23:01Z</time>
      </trkpt>
      <trkpt lat="44.13699" lon="6.96617">
        <ele>2427</ele>
        <time>2012-03-03T10:23:09Z</time>
      </trkpt>
      <trkpt lat="44.13697" lon="6.96606">
        <ele>2431</ele>
        <time>2012-03-03T10:23:21Z</time>
      </trkpt>
      <trkpt lat="44.13697" lon="6.96604">
        <ele>2432</ele>
        <time>2012-03-03T10:23:22Z</time>
      </trkpt>
      <trkpt lat="44.13695" lon="6.96582">
        <ele>2433</ele>
        <time>2012-03-03T10:23:41Z</time>
      </trkpt>
      <trkpt lat="44.137" lon="6.96571">
        <ele>2435</ele>
        <time>2012-03-03T10:23:59Z</time>
      </trkpt>
      <trkpt lat="44.13707" lon="6.96576">
        <ele>2443</ele>
        <time>2012-03-03T10:24:18Z</time>
      </trkpt>
      <trkpt lat="44.13715" lon="6.96583">
        <ele>2442</ele>
        <time>2012-03-03T10:24:31Z</time>
      </trkpt>
      <trkpt lat="44.13715" lon="6.96584">
        <ele>2443</ele>
        <time>2012-03-03T10:24:32Z</time>
      </trkpt>
      <trkpt lat="44.1373" lon="6.96574">
        <ele>2448</ele>
        <time>2012-03-03T10:26:43Z</time>
      </trkpt>
      <trkpt lat="44.13731" lon="6.96572">
        <ele>2448</ele>
        <time>2012-03-03T10:26:44Z</time>
      </trkpt>
      <trkpt lat="44.13734" lon="6.9655">
        <ele>2454</ele>
        <time>2012-03-03T10:27:02Z</time>
      </trkpt>
      <trkpt lat="44.13737" lon="6.96539">
        <ele>2455</ele>
        <time>2012-03-03T10:27:10Z</time>
      </trkpt>
      <trkpt lat="44.13736" lon="6.96528">
        <ele>2455</ele>
        <time>2012-03-03T10:27:17Z</time>
      </trkpt>
      <trkpt lat="44.13735" lon="6.96516">
        <ele>2457</ele>
        <time>2012-03-03T10:27:25Z</time>
      </trkpt>
      <trkpt lat="44.13735" lon="6.96504">
        <ele>2459</ele>
        <time>2012-03-03T10:27:34Z</time>
      </trkpt>
      <trkpt lat="44.13737" lon="6.96492">
        <ele>2461</ele>
        <time>2012-03-03T10:27:44Z</time>
      </trkpt>
      <trkpt lat="44.13737" lon="6.96491">
        <ele>2461</ele>
        <time>2012-03-03T10:27:45Z</time>
      </trkpt>
      <trkpt lat="44.13737" lon="6.9647">
        <ele>2463</ele>
        <time>2012-03-03T10:28:02Z</time>
      </trkpt>
      <trkpt lat="44.13739" lon="6.96458">
        <ele>2462</ele>
        <time>2012-03-03T10:28:11Z</time>
      </trkpt>
      <trkpt lat="44.13739" lon="6.96447">
        <ele>2463</ele>
        <time>2012-03-03T10:28:20Z</time>
      </trkpt>
      <trkpt lat="44.13739" lon="6.96436">
        <ele>2465</ele>
        <time>2012-03-03T10:28:29Z</time>
      </trkpt>
      <trkpt lat="44.1374" lon="6.96424">
        <ele>2466</ele>
        <time>2012-03-03T10:28:39Z</time>
      </trkpt>
      <trkpt lat="44.13742" lon="6.96412">
        <ele>2467</ele>
        <time>2012-03-03T10:28:49Z</time>
      </trkpt>
      <trkpt lat="44.13742" lon="6.96411">
        <ele>2468</ele>
        <time>2012-03-03T10:28:50Z</time>
      </trkpt>
      <trkpt lat="44.13746" lon="6.9639">
        <ele>2469</ele>
        <time>2012-03-03T10:29:08Z</time>
      </trkpt>
      <trkpt lat="44.13748" lon="6.96378">
        <ele>2470</ele>
        <time>2012-03-03T10:29:16Z</time>
      </trkpt>
      <trkpt lat="44.1375" lon="6.96367">
        <ele>2469</ele>
        <time>2012-03-03T10:29:26Z</time>
      </trkpt>
      <trkpt lat="44.13753" lon="6.96356">
        <ele>2468</ele>
        <time>2012-03-03T10:29:34Z</time>
      </trkpt>
      <trkpt lat="44.13754" lon="6.96344">
        <ele>2469</ele>
        <time>2012-03-03T10:29:42Z</time>
      </trkpt>
      <trkpt lat="44.13757" lon="6.96333">
        <ele>2469</ele>
        <time>2012-03-03T10:29:50Z</time>
      </trkpt>
      <trkpt lat="44.13758" lon="6.96331">
        <ele>2470</ele>
        <time>2012-03-03T10:29:51Z</time>
      </trkpt>
      <trkpt lat="44.13764" lon="6.96311">
        <ele>2469</ele>
        <time>2012-03-03T10:30:07Z</time>
      </trkpt>
      <trkpt lat="44.13766" lon="6.963">
        <ele>2471</ele>
        <time>2012-03-03T10:30:14Z</time>
      </trkpt>
      <trkpt lat="44.13768" lon="6.9629">
        <ele>2473</ele>
        <time>2012-03-03T10:30:22Z</time>
      </trkpt>
      <trkpt lat="44.13771" lon="6.96278">
        <ele>2473</ele>
        <time>2012-03-03T10:30:31Z</time>
      </trkpt>
      <trkpt lat="44.13773" lon="6.96267">
        <ele>2474</ele>
        <time>2012-03-03T10:30:39Z</time>
      </trkpt>
      <trkpt lat="44.13776" lon="6.96257">
        <ele>2474</ele>
        <time>2012-03-03T10:30:46Z</time>
      </trkpt>
      <trkpt lat="44.1378" lon="6.96246">
        <ele>2474</ele>
        <time>2012-03-03T10:30:54Z</time>
      </trkpt>
      <trkpt lat="44.13781" lon="6.96245">
        <ele>2474</ele>
        <time>2012-03-03T10:30:55Z</time>
      </trkpt>
      <trkpt lat="44.13789" lon="6.96225">
        <ele>2476</ele>
        <time>2012-03-03T10:31:10Z</time>
      </trkpt>
      <trkpt lat="44.13793" lon="6.96215">
        <ele>2476</ele>
        <time>2012-03-03T10:31:17Z</time>
      </trkpt>
      <trkpt lat="44.13797" lon="6.96205">
        <ele>2474</ele>
        <time>2012-03-03T10:31:24Z</time>
      </trkpt>
      <trkpt lat="44.13801" lon="6.96195">
        <ele>2474</ele>
        <time>2012-03-03T10:31:31Z</time>
      </trkpt>
      <trkpt lat="44.13805" lon="6.96185">
        <ele>2474</ele>
        <time>2012-03-03T10:31:39Z</time>
      </trkpt>
      <trkpt lat="44.13812" lon="6.96176">
        <ele>2475</ele>
        <time>2012-03-03T10:31:48Z</time>
      </trkpt>
      <trkpt lat="44.13816" lon="6.96166">
        <ele>2476</ele>
        <time>2012-03-03T10:31:56Z</time>
      </trkpt>
      <trkpt lat="44.13816" lon="6.96165">
        <ele>2476</ele>
        <time>2012-03-03T10:31:57Z</time>
      </trkpt>
      <trkpt lat="44.13825" lon="6.96147">
        <ele>2477</ele>
        <time>2012-03-03T10:32:12Z</time>
      </trkpt>
      <trkpt lat="44.13827" lon="6.96136">
        <ele>2475</ele>
        <time>2012-03-03T10:32:23Z</time>
      </trkpt>
      <trkpt lat="44.13832" lon="6.96126">
        <ele>2476</ele>
        <time>2012-03-03T10:32:32Z</time>
      </trkpt>
      <trkpt lat="44.13838" lon="6.96117">
        <ele>2475</ele>
        <time>2012-03-03T10:32:41Z</time>
      </trkpt>
      <trkpt lat="44.13843" lon="6.96107">
        <ele>2475</ele>
        <time>2012-03-03T10:32:50Z</time>
      </trkpt>
      <trkpt lat="44.13849" lon="6.96098">
        <ele>2476</ele>
        <time>2012-03-03T10:33:00Z</time>
      </trkpt>
      <trkpt lat="44.1385" lon="6.96097">
        <ele>2476</ele>
        <time>2012-03-03T10:33:01Z</time>
      </trkpt>
      <trkpt lat="44.13857" lon="6.96092">
        <ele>2475</ele>
        <time>2012-03-03T10:36:43Z</time>
      </trkpt>
      <trkpt lat="44.13865" lon="6.96072">
        <ele>2474</ele>
        <time>2012-03-03T10:36:58Z</time>
      </trkpt>
      <trkpt lat="44.13869" lon="6.96062">
        <ele>2474</ele>
        <time>2012-03-03T10:37:06Z</time>
      </trkpt>
      <trkpt lat="44.13875" lon="6.96053">
        <ele>2476</ele>
        <time>2012-03-03T10:37:14Z</time>
      </trkpt>
      <trkpt lat="44.1388" lon="6.96043">
        <ele>2473</ele>
        <time>2012-03-03T10:37:23Z</time>
      </trkpt>
      <trkpt lat="44.13886" lon="6.96035">
        <ele>2474</ele>
        <time>2012-03-03T10:37:31Z</time>
      </trkpt>
      <trkpt lat="44.13892" lon="6.96027">
        <ele>2473</ele>
        <time>2012-03-03T10:37:39Z</time>
      </trkpt>
      <trkpt lat="44.13899" lon="6.96021">
        <ele>2471</ele>
        <time>2012-03-03T10:37:47Z</time>
      </trkpt>
      <trkpt lat="44.139" lon="6.9602">
        <ele>2471</ele>
        <time>2012-03-03T10:37:48Z</time>
      </trkpt>
      <trkpt lat="44.13913" lon="6.96009">
        <ele>2468</ele>
        <time>2012-03-03T10:38:02Z</time>
      </trkpt>
      <trkpt lat="44.13919" lon="6.96001">
        <ele>2469</ele>
        <time>2012-03-03T10:38:10Z</time>
      </trkpt>
      <trkpt lat="44.13923" lon="6.95992">
        <ele>2469</ele>
        <time>2012-03-03T10:38:17Z</time>
      </trkpt>
      <trkpt lat="44.13929" lon="6.95983">
        <ele>2465</ele>
        <time>2012-03-03T10:38:25Z</time>
      </trkpt>
      <trkpt lat="44.13935" lon="6.95975">
        <ele>2460</ele>
        <time>2012-03-03T10:38:33Z</time>
      </trkpt>
      <trkpt lat="44.13942" lon="6.95967">
        <ele>2457</ele>
        <time>2012-03-03T10:38:41Z</time>
      </trkpt>
      <trkpt lat="44.13947" lon="6.95959">
        <ele>2458</ele>
        <time>2012-03-03T10:38:48Z</time>
      </trkpt>
      <trkpt lat="44.13948" lon="6.95958">
        <ele>2458</ele>
        <time>2012-03-03T10:38:49Z</time>
      </trkpt>
      <trkpt lat="44.13959" lon="6.95944">
        <ele>2458</ele>
        <time>2012-03-03T10:39:01Z</time>
      </trkpt>
      <trkpt lat="44.13965" lon="6.95936">
        <ele>2455</ele>
        <time>2012-03-03T10:39:08Z</time>
      </trkpt>
      <trkpt lat="44.13971" lon="6.95927">
        <ele>2454</ele>
        <time>2012-03-03T10:39:16Z</time>
      </trkpt>
      <trkpt lat="44.13979" lon="6.95921">
        <ele>2456</ele>
        <time>2012-03-03T10:39:24Z</time>
      </trkpt>
      <trkpt lat="44.13985" lon="6.95913">
        <ele>2455</ele>
        <time>2012-03-03T10:39:31Z</time>
      </trkpt>
      <trkpt lat="44.13991" lon="6.95906">
        <ele>2454</ele>
        <time>2012-03-03T10:39:39Z</time>
      </trkpt>
      <trkpt lat="44.13999" lon="6.95899">
        <ele>2453</ele>
        <time>2012-03-03T10:39:46Z</time>
      </trkpt>
      <trkpt lat="44.14005" lon="6.95891">
        <ele>2452</ele>
        <time>2012-03-03T10:39:53Z</time>
      </trkpt>
      <trkpt lat="44.14006" lon="6.9589">
        <ele>2452</ele>
        <time>2012-03-03T10:39:54Z</time>
      </trkpt>
      <trkpt lat="44.14019" lon="6.95879">
        <ele>2451</ele>
        <time>2012-03-03T10:40:09Z</time>
      </trkpt>
      <trkpt lat="44.14027" lon="6.95874">
        <ele>2451</ele>
        <time>2012-03-03T10:40:17Z</time>
      </trkpt>
      <trkpt lat="44.14035" lon="6.9587">
        <ele>2449</ele>
        <time>2012-03-03T10:40:24Z</time>
      </trkpt>
      <trkpt lat="44.14042" lon="6.95865">
        <ele>2448</ele>
        <time>2012-03-03T10:40:31Z</time>
      </trkpt>
      <trkpt lat="44.1405" lon="6.95859">
        <ele>2449</ele>
        <time>2012-03-03T10:40:39Z</time>
      </trkpt>
      <trkpt lat="44.14058" lon="6.95856">
        <ele>2448</ele>
        <time>2012-03-03T10:40:45Z</time>
      </trkpt>
      <trkpt lat="44.14066" lon="6.9585">
        <ele>2448</ele>
        <time>2012-03-03T10:40:52Z</time>
      </trkpt>
      <trkpt lat="44.14073" lon="6.95844">
        <ele>2448</ele>
        <time>2012-03-03T10:40:59Z</time>
      </trkpt>
      <trkpt lat="44.14074" lon="6.95843">
        <ele>2448</ele>
        <time>2012-03-03T10:41:00Z</time>
      </trkpt>
      <trkpt lat="44.14087" lon="6.9583">
        <ele>2445</ele>
        <time>2012-03-03T10:41:14Z</time>
      </trkpt>
      <trkpt lat="44.14093" lon="6.95822">
        <ele>2445</ele>
        <time>2012-03-03T10:41:21Z</time>
      </trkpt>
      <trkpt lat="44.141" lon="6.95815">
        <ele>2445</ele>
        <time>2012-03-03T10:41:28Z</time>
      </trkpt>
      <trkpt lat="44.14107" lon="6.95811">
        <ele>2446</ele>
        <time>2012-03-03T10:41:36Z</time>
      </trkpt>
      <trkpt lat="44.14114" lon="6.95804">
        <ele>2446</ele>
        <time>2012-03-03T10:41:44Z</time>
      </trkpt>
      <trkpt lat="44.14119" lon="6.95794">
        <ele>2447</ele>
        <time>2012-03-03T10:41:53Z</time>
      </trkpt>
      <trkpt lat="44.14123" lon="6.95784">
        <ele>2446</ele>
        <time>2012-03-03T10:42:01Z</time>
      </trkpt>
      <trkpt lat="44.14124" lon="6.95783">
        <ele>2446</ele>
        <time>2012-03-03T10:42:02Z</time>
      </trkpt>
      <trkpt lat="44.14132" lon="6.95764">
        <ele>2449</ele>
        <time>2012-03-03T10:42:17Z</time>
      </trkpt>
      <trkpt lat="44.14136" lon="6.95753">
        <ele>2451</ele>
        <time>2012-03-03T10:42:26Z</time>
      </trkpt>
      <trkpt lat="44.1414" lon="6.95742">
        <ele>2451</ele>
        <time>2012-03-03T10:42:34Z</time>
      </trkpt>
      <trkpt lat="44.14144" lon="6.95732">
        <ele>2453</ele>
        <time>2012-03-03T10:42:43Z</time>
      </trkpt>
      <trkpt lat="44.14148" lon="6.95721">
        <ele>2457</ele>
        <time>2012-03-03T10:42:52Z</time>
      </trkpt>
      <trkpt lat="44.14154" lon="6.95712">
        <ele>2461</ele>
        <time>2012-03-03T10:43:05Z</time>
      </trkpt>
      <trkpt lat="44.14154" lon="6.95711">
        <ele>2461</ele>
        <time>2012-03-03T10:43:06Z</time>
      </trkpt>
      <trkpt lat="44.14161" lon="6.9569">
        <ele>2465</ele>
        <time>2012-03-03T10:43:27Z</time>
      </trkpt>
      <trkpt lat="44.14167" lon="6.95681">
        <ele>2466</ele>
        <time>2012-03-03T10:43:39Z</time>
      </trkpt>
      <trkpt lat="44.14173" lon="6.95673">
        <ele>2466</ele>
        <time>2012-03-03T10:43:50Z</time>
      </trkpt>
      <trkpt lat="44.14179" lon="6.95664">
        <ele>2468</ele>
        <time>2012-03-03T10:44:02Z</time>
      </trkpt>
      <trkpt lat="44.14184" lon="6.95654">
        <ele>2470</ele>
        <time>2012-03-03T10:44:15Z</time>
      </trkpt>
      <trkpt lat="44.14184" lon="6.95654">
        <ele>2470</ele>
        <time>2012-03-03T10:44:16Z</time>
      </trkpt>
      <trkpt lat="44.14194" lon="6.95635">
        <ele>2475</ele>
        <time>2012-03-03T10:44:42Z</time>
      </trkpt>
      <trkpt lat="44.142" lon="6.95626">
        <ele>2477</ele>
        <time>2012-03-03T10:44:53Z</time>
      </trkpt>
      <trkpt lat="44.14204" lon="6.95615">
        <ele>2479</ele>
        <time>2012-03-03T10:45:07Z</time>
      </trkpt>
      <trkpt lat="44.1421" lon="6.95606">
        <ele>2482</ele>
        <time>2012-03-03T10:45:18Z</time>
      </trkpt>
      <trkpt lat="44.1421" lon="6.95605">
        <ele>2482</ele>
        <time>2012-03-03T10:45:19Z</time>
      </trkpt>
      <trkpt lat="44.1422" lon="6.95587">
        <ele>2485</ele>
        <time>2012-03-03T10:45:41Z</time>
      </trkpt>
      <trkpt lat="44.14225" lon="6.95577">
        <ele>2488</ele>
        <time>2012-03-03T10:45:54Z</time>
      </trkpt>
      <trkpt lat="44.14229" lon="6.95566">
        <ele>2490</ele>
        <time>2012-03-03T10:46:08Z</time>
      </trkpt>
      <trkpt lat="44.14233" lon="6.95555">
        <ele>2490</ele>
        <time>2012-03-03T10:46:21Z</time>
      </trkpt>
      <trkpt lat="44.14233" lon="6.95554">
        <ele>2491</ele>
        <time>2012-03-03T10:46:22Z</time>
      </trkpt>
      <trkpt lat="44.14243" lon="6.95536">
        <ele>2494</ele>
        <time>2012-03-03T10:46:45Z</time>
      </trkpt>
      <trkpt lat="44.1425" lon="6.95528">
        <ele>2497</ele>
        <time>2012-03-03T10:46:57Z</time>
      </trkpt>
      <trkpt lat="44.14254" lon="6.95517">
        <ele>2502</ele>
        <time>2012-03-03T10:47:09Z</time>
      </trkpt>
      <trkpt lat="44.1426" lon="6.95509">
        <ele>2503</ele>
        <time>2012-03-03T10:47:18Z</time>
      </trkpt>
      <trkpt lat="44.14265" lon="6.955">
        <ele>2504</ele>
        <time>2012-03-03T10:47:28Z</time>
      </trkpt>
      <trkpt lat="44.14265" lon="6.95499">
        <ele>2504</ele>
        <time>2012-03-03T10:47:29Z</time>
      </trkpt>
      <trkpt lat="44.14276" lon="6.95481">
        <ele>2509</ele>
        <time>2012-03-03T10:47:52Z</time>
      </trkpt>
      <trkpt lat="44.1428" lon="6.95471">
        <ele>2512</ele>
        <time>2012-03-03T10:48:03Z</time>
      </trkpt>
      <trkpt lat="44.14285" lon="6.95461">
        <ele>2512</ele>
        <time>2012-03-03T10:48:14Z</time>
      </trkpt>
      <trkpt lat="44.14292" lon="6.95455">
        <ele>2516</ele>
        <time>2012-03-03T10:48:24Z</time>
      </trkpt>
      <trkpt lat="44.14297" lon="6.95446">
        <ele>2519</ele>
        <time>2012-03-03T10:48:36Z</time>
      </trkpt>
      <trkpt lat="44.14297" lon="6.95445">
        <ele>2520</ele>
        <time>2012-03-03T10:48:37Z</time>
      </trkpt>
      <trkpt lat="44.1431" lon="6.9543">
        <ele>2525</ele>
        <time>2012-03-03T10:49:03Z</time>
      </trkpt>
      <trkpt lat="44.14317" lon="6.95425">
        <ele>2526</ele>
        <time>2012-03-03T10:49:13Z</time>
      </trkpt>
      <trkpt lat="44.14323" lon="6.95416">
        <ele>2530</ele>
        <time>2012-03-03T10:49:28Z</time>
      </trkpt>
      <trkpt lat="44.14329" lon="6.95409">
        <ele>2531</ele>
        <time>2012-03-03T10:49:39Z</time>
      </trkpt>
      <trkpt lat="44.1433" lon="6.95408">
        <ele>2532</ele>
        <time>2012-03-03T10:49:40Z</time>
      </trkpt>
      <trkpt lat="44.14342" lon="6.95391">
        <ele>2537</ele>
        <time>2012-03-03T10:50:06Z</time>
      </trkpt>
      <trkpt lat="44.14349" lon="6.95383">
        <ele>2539</ele>
        <time>2012-03-03T10:50:20Z</time>
      </trkpt>
      <trkpt lat="44.14356" lon="6.95377">
        <ele>2543</ele>
        <time>2012-03-03T10:50:34Z</time>
      </trkpt>
      <trkpt lat="44.14362" lon="6.95368">
        <ele>2547</ele>
        <time>2012-03-03T10:50:48Z</time>
      </trkpt>
      <trkpt lat="44.14363" lon="6.95367">
        <ele>2547</ele>
        <time>2012-03-03T10:50:49Z</time>
      </trkpt>
      <trkpt lat="44.14375" lon="6.95352">
        <ele>2552</ele>
        <time>2012-03-03T10:51:15Z</time>
      </trkpt>
      <trkpt lat="44.14384" lon="6.95348">
        <ele>2554</ele>
        <time>2012-03-03T10:51:32Z</time>
      </trkpt>
      <trkpt lat="44.14391" lon="6.95342">
        <ele>2556</ele>
        <time>2012-03-03T10:51:48Z</time>
      </trkpt>
      <trkpt lat="44.14391" lon="6.95341">
        <ele>2556</ele>
        <time>2012-03-03T10:51:49Z</time>
      </trkpt>
      <trkpt lat="44.14405" lon="6.95328">
        <ele>2568</ele>
        <time>2012-03-03T10:52:28Z</time>
      </trkpt>
      <trkpt lat="44.14412" lon="6.95321">
        <ele>2570</ele>
        <time>2012-03-03T10:52:47Z</time>
      </trkpt>
      <trkpt lat="44.1442" lon="6.95318">
        <ele>2572</ele>
        <time>2012-03-03T10:53:01Z</time>
      </trkpt>
      <trkpt lat="44.14421" lon="6.95317">
        <ele>2573</ele>
        <time>2012-03-03T10:53:02Z</time>
      </trkpt>
      <trkpt lat="44.14432" lon="6.95302">
        <ele>2580</ele>
        <time>2012-03-03T10:53:42Z</time>
      </trkpt>
      <trkpt lat="44.1444" lon="6.95296">
        <ele>2584</ele>
        <time>2012-03-03T10:53:59Z</time>
      </trkpt>
      <trkpt lat="44.14448" lon="6.95291">
        <ele>2587</ele>
        <time>2012-03-03T10:54:17Z</time>
      </trkpt>
      <trkpt lat="44.14448" lon="6.95291">
        <ele>2588</ele>
        <time>2012-03-03T10:54:18Z</time>
      </trkpt>
      <trkpt lat="44.14464" lon="6.95287">
        <ele>2589</ele>
        <time>2012-03-03T10:54:41Z</time>
      </trkpt>
      <trkpt lat="44.14471" lon="6.95281">
        <ele>2595</ele>
        <time>2012-03-03T10:55:12Z</time>
      </trkpt>
      <trkpt lat="44.14479" lon="6.95283">
        <ele>2594</ele>
        <time>2012-03-03T10:55:23Z</time>
      </trkpt>
      <trkpt lat="44.1448" lon="6.95283">
        <ele>2594</ele>
        <time>2012-03-03T10:55:24Z</time>
      </trkpt>
      <trkpt lat="44.14496" lon="6.95288">
        <ele>2596</ele>
        <time>2012-03-03T10:55:42Z</time>
      </trkpt>
      <trkpt lat="44.14504" lon="6.95291">
        <ele>2595</ele>
        <time>2012-03-03T10:55:50Z</time>
      </trkpt>
      <trkpt lat="44.14512" lon="6.95293">
        <ele>2596</ele>
        <time>2012-03-03T10:55:57Z</time>
      </trkpt>
      <trkpt lat="44.1452" lon="6.95294">
        <ele>2597</ele>
        <time>2012-03-03T10:56:06Z</time>
      </trkpt>
      <trkpt lat="44.14529" lon="6.95295">
        <ele>2597</ele>
        <time>2012-03-03T10:56:14Z</time>
      </trkpt>
      <trkpt lat="44.14538" lon="6.95297">
        <ele>2596</ele>
        <time>2012-03-03T10:56:22Z</time>
      </trkpt>
      <trkpt lat="44.14545" lon="6.95301">
        <ele>2594</ele>
        <time>2012-03-03T10:56:31Z</time>
      </trkpt>
      <trkpt lat="44.14546" lon="6.95302">
        <ele>2595</ele>
        <time>2012-03-03T10:56:32Z</time>
      </trkpt>
      <trkpt lat="44.14562" lon="6.95308">
        <ele>2594</ele>
        <time>2012-03-03T10:56:47Z</time>
      </trkpt>
      <trkpt lat="44.1457" lon="6.95312">
        <ele>2597</ele>
        <time>2012-03-03T10:56:55Z</time>
      </trkpt>
      <trkpt lat="44.14578" lon="6.95315">
        <ele>2596</ele>
        <time>2012-03-03T10:57:03Z</time>
      </trkpt>
      <trkpt lat="44.14586" lon="6.95317">
        <ele>2598</ele>
        <time>2012-03-03T10:57:11Z</time>
      </trkpt>
      <trkpt lat="44.14594" lon="6.9532">
        <ele>2598</ele>
        <time>2012-03-03T10:57:20Z</time>
      </trkpt>
      <trkpt lat="44.14603" lon="6.95322">
        <ele>2598</ele>
        <time>2012-03-03T10:57:27Z</time>
      </trkpt>
      <trkpt lat="44.14611" lon="6.95326">
        <ele>2600</ele>
        <time>2012-03-03T10:57:36Z</time>
      </trkpt>
      <trkpt lat="44.14612" lon="6.95326">
        <ele>2600</ele>
        <time>2012-03-03T10:57:37Z</time>
      </trkpt>
      <trkpt lat="44.14627" lon="6.95333">
        <ele>2601</ele>
        <time>2012-03-03T10:57:56Z</time>
      </trkpt>
      <trkpt lat="44.14635" lon="6.95337">
        <ele>2602</ele>
        <time>2012-03-03T10:58:05Z</time>
      </trkpt>
      <trkpt lat="44.14644" lon="6.95338">
        <ele>2602</ele>
        <time>2012-03-03T10:58:16Z</time>
      </trkpt>
      <trkpt lat="44.14652" lon="6.95342">
        <ele>2602</ele>
        <time>2012-03-03T10:58:27Z</time>
      </trkpt>
      <trkpt lat="44.14661" lon="6.95344">
        <ele>2603</ele>
        <time>2012-03-03T10:58:37Z</time>
      </trkpt>
      <trkpt lat="44.14661" lon="6.95345">
        <ele>2604</ele>
        <time>2012-03-03T10:58:38Z</time>
      </trkpt>
      <trkpt lat="44.14677" lon="6.95342">
        <ele>2609</ele>
        <time>2012-03-03T10:58:52Z</time>
      </trkpt>
      <trkpt lat="44.14685" lon="6.95341">
        <ele>2610</ele>
        <time>2012-03-03T10:59:03Z</time>
      </trkpt>
      <trkpt lat="44.14694" lon="6.95343">
        <ele>2618</ele>
        <time>2012-03-03T10:59:21Z</time>
      </trkpt>
      <trkpt lat="44.14702" lon="6.95349">
        <ele>2618</ele>
        <time>2012-03-03T10:59:41Z</time>
      </trkpt>
      <trkpt lat="44.14702" lon="6.95349">
        <ele>2617</ele>
        <time>2012-03-03T10:59:42Z</time>
      </trkpt>
      <trkpt lat="44.14719" lon="6.95348">
        <ele>2620</ele>
        <time>2012-03-03T11:00:14Z</time>
      </trkpt>
      <trkpt lat="44.14725" lon="6.95357">
        <ele>2617</ele>
        <time>2012-03-03T11:00:33Z</time>
      </trkpt>
      <trkpt lat="44.14732" lon="6.95365">
        <ele>2618</ele>
        <time>2012-03-03T11:00:54Z</time>
      </trkpt>
      <trkpt lat="44.14732" lon="6.95365">
        <ele>2618</ele>
        <time>2012-03-03T11:00:55Z</time>
      </trkpt>
      <trkpt lat="44.14743" lon="6.95375">
        <ele>2633</ele>
        <time>2012-03-03T11:01:31Z</time>
      </trkpt>
      <trkpt lat="44.14751" lon="6.95371">
        <ele>2640</ele>
        <time>2012-03-03T11:01:45Z</time>
      </trkpt>
      <trkpt lat="44.14756" lon="6.95381">
        <ele>2636</ele>
        <time>2012-03-03T11:02:03Z</time>
      </trkpt>
      <trkpt lat="44.14756" lon="6.95381">
        <ele>2636</ele>
        <time>2012-03-03T11:02:04Z</time>
      </trkpt>
      <trkpt lat="44.14771" lon="6.95391">
        <ele>2643</ele>
        <time>2012-03-03T11:02:36Z</time>
      </trkpt>
      <trkpt lat="44.14777" lon="6.95401">
        <ele>2646</ele>
        <time>2012-03-03T11:03:02Z</time>
      </trkpt>
      <trkpt lat="44.14783" lon="6.95408">
        <ele>2646</ele>
        <time>2012-03-03T11:03:13Z</time>
      </trkpt>
      <trkpt lat="44.14784" lon="6.95409">
        <ele>2645</ele>
        <time>2012-03-03T11:03:14Z</time>
      </trkpt>
      <trkpt lat="44.14795" lon="6.95425">
        <ele>2648</ele>
        <time>2012-03-03T11:03:33Z</time>
      </trkpt>
      <trkpt lat="44.14802" lon="6.95433">
        <ele>2648</ele>
        <time>2012-03-03T11:03:44Z</time>
      </trkpt>
      <trkpt lat="44.14806" lon="6.95444">
        <ele>2648</ele>
        <time>2012-03-03T11:03:54Z</time>
      </trkpt>
      <trkpt lat="44.14808" lon="6.95456">
        <ele>2653</ele>
        <time>2012-03-03T11:04:12Z</time>
      </trkpt>
      <trkpt lat="44.14811" lon="6.95466">
        <ele>2655</ele>
        <time>2012-03-03T11:04:19Z</time>
      </trkpt>
      <trkpt lat="44.14811" lon="6.95467">
        <ele>2655</ele>
        <time>2012-03-03T11:04:20Z</time>
      </trkpt>
      <trkpt lat="44.14816" lon="6.95488">
        <ele>2654</ele>
        <time>2012-03-03T11:04:34Z</time>
      </trkpt>
      <trkpt lat="44.14818" lon="6.955">
        <ele>2655</ele>
        <time>2012-03-03T11:04:43Z</time>
      </trkpt>
      <trkpt lat="44.1482" lon="6.95512">
        <ele>2655</ele>
        <time>2012-03-03T11:04:51Z</time>
      </trkpt>
      <trkpt lat="44.14824" lon="6.95521">
        <ele>2655</ele>
        <time>2012-03-03T11:04:58Z</time>
      </trkpt>
      <trkpt lat="44.14828" lon="6.95531">
        <ele>2655</ele>
        <time>2012-03-03T11:05:06Z</time>
      </trkpt>
      <trkpt lat="44.14831" lon="6.95542">
        <ele>2652</ele>
        <time>2012-03-03T11:05:14Z</time>
      </trkpt>
      <trkpt lat="44.14836" lon="6.95551">
        <ele>2652</ele>
        <time>2012-03-03T11:05:22Z</time>
      </trkpt>
      <trkpt lat="44.14837" lon="6.95553">
        <ele>2652</ele>
        <time>2012-03-03T11:05:23Z</time>
      </trkpt>
      <trkpt lat="44.14848" lon="6.95566">
        <ele>2649</ele>
        <time>2012-03-03T11:05:37Z</time>
      </trkpt>
      <trkpt lat="44.14854" lon="6.95575">
        <ele>2648</ele>
        <time>2012-03-03T11:05:45Z</time>
      </trkpt>
      <trkpt lat="44.1486" lon="6.95584">
        <ele>2650</ele>
        <time>2012-03-03T11:05:52Z</time>
      </trkpt>
      <trkpt lat="44.14863" lon="6.95595">
        <ele>2650</ele>
        <time>2012-03-03T11:05:59Z</time>
      </trkpt>
      <trkpt lat="44.14866" lon="6.95607">
        <ele>2651</ele>
        <time>2012-03-03T11:06:08Z</time>
      </trkpt>
      <trkpt lat="44.14868" lon="6.95619">
        <ele>2650</ele>
        <time>2012-03-03T11:06:16Z</time>
      </trkpt>
      <trkpt lat="44.14867" lon="6.95631">
        <ele>2651</ele>
        <time>2012-03-03T11:06:24Z</time>
      </trkpt>
      <trkpt lat="44.14867" lon="6.95632">
        <ele>2651</ele>
        <time>2012-03-03T11:06:25Z</time>
      </trkpt>
      <trkpt lat="44.1487" lon="6.95654">
        <ele>2652</ele>
        <time>2012-03-03T11:06:41Z</time>
      </trkpt>
      <trkpt lat="44.1487" lon="6.95666">
        <ele>2655</ele>
        <time>2012-03-03T11:06:50Z</time>
      </trkpt>
      <trkpt lat="44.14871" lon="6.95678">
        <ele>2655</ele>
        <time>2012-03-03T11:06:58Z</time>
      </trkpt>
      <trkpt lat="44.14869" lon="6.9569">
        <ele>2655</ele>
        <time>2012-03-03T11:07:08Z</time>
      </trkpt>
      <trkpt lat="44.14869" lon="6.95702">
        <ele>2658</ele>
        <time>2012-03-03T11:07:19Z</time>
      </trkpt>
      <trkpt lat="44.14868" lon="6.95714">
        <ele>2660</ele>
        <time>2012-03-03T11:07:32Z</time>
      </trkpt>
      <trkpt lat="44.14868" lon="6.95715">
        <ele>2661</ele>
        <time>2012-03-03T11:07:33Z</time>
      </trkpt>
      <trkpt lat="44.14868" lon="6.95739">
        <ele>2672</ele>
        <time>2012-03-03T11:08:04Z</time>
      </trkpt>
      <trkpt lat="44.14866" lon="6.95751">
        <ele>2675</ele>
        <time>2012-03-03T11:08:25Z</time>
      </trkpt>
      <trkpt lat="44.14867" lon="6.95763">
        <ele>2677</ele>
        <time>2012-03-03T11:08:48Z</time>
      </trkpt>
      <trkpt lat="44.14867" lon="6.95764">
        <ele>2677</ele>
        <time>2012-03-03T11:08:49Z</time>
      </trkpt>
      <trkpt lat="44.14866" lon="6.95783">
        <ele>2680</ele>
        <time>2012-03-03T11:09:24Z</time>
      </trkpt>
      <trkpt lat="44.14867" lon="6.95796">
        <ele>2684</ele>
        <time>2012-03-03T11:09:44Z</time>
      </trkpt>
      <trkpt lat="44.14872" lon="6.95805">
        <ele>2687</ele>
        <time>2012-03-03T11:10:00Z</time>
      </trkpt>
      <trkpt lat="44.14873" lon="6.95806">
        <ele>2687</ele>
        <time>2012-03-03T11:10:01Z</time>
      </trkpt>
      <trkpt lat="44.14885" lon="6.95823">
        <ele>2692</ele>
        <time>2012-03-03T11:10:23Z</time>
      </trkpt>
      <trkpt lat="44.14891" lon="6.9583">
        <ele>2693</ele>
        <time>2012-03-03T11:10:35Z</time>
      </trkpt>
      <trkpt lat="44.14898" lon="6.95837">
        <ele>2696</ele>
        <time>2012-03-03T11:10:52Z</time>
      </trkpt>
      <trkpt lat="44.14904" lon="6.95847">
        <ele>2698</ele>
        <time>2012-03-03T11:11:05Z</time>
      </trkpt>
      <trkpt lat="44.14904" lon="6.95847">
        <ele>2698</ele>
        <time>2012-03-03T11:11:06Z</time>
      </trkpt>
      <trkpt lat="44.14915" lon="6.95863">
        <ele>2699</ele>
        <time>2012-03-03T11:11:26Z</time>
      </trkpt>
      <trkpt lat="44.1492" lon="6.95873">
        <ele>2700</ele>
        <time>2012-03-03T11:11:34Z</time>
      </trkpt>
      <trkpt lat="44.14925" lon="6.95883">
        <ele>2702</ele>
        <time>2012-03-03T11:11:43Z</time>
      </trkpt>
      <trkpt lat="44.14933" lon="6.95889">
        <ele>2703</ele>
        <time>2012-03-03T11:11:55Z</time>
      </trkpt>
      <trkpt lat="44.14938" lon="6.95899">
        <ele>2706</ele>
        <time>2012-03-03T11:12:09Z</time>
      </trkpt>
      <trkpt lat="44.14938" lon="6.959">
        <ele>2706</ele>
        <time>2012-03-03T11:12:10Z</time>
      </trkpt>
      <trkpt lat="44.1495" lon="6.95917">
        <ele>2710</ele>
        <time>2012-03-03T11:12:38Z</time>
      </trkpt>
      <trkpt lat="44.14954" lon="6.95927">
        <ele>2711</ele>
        <time>2012-03-03T11:12:51Z</time>
      </trkpt>
      <trkpt lat="44.14956" lon="6.95939">
        <ele>2713</ele>
        <time>2012-03-03T11:13:01Z</time>
      </trkpt>
      <trkpt lat="44.14959" lon="6.95949">
        <ele>2715</ele>
        <time>2012-03-03T11:13:11Z</time>
      </trkpt>
      <trkpt lat="44.1496" lon="6.95951">
        <ele>2716</ele>
        <time>2012-03-03T11:13:12Z</time>
      </trkpt>
      <trkpt lat="44.14969" lon="6.9597">
        <ele>2723</ele>
        <time>2012-03-03T11:13:33Z</time>
      </trkpt>
      <trkpt lat="44.1497" lon="6.95981">
        <ele>2725</ele>
        <time>2012-03-03T11:13:43Z</time>
      </trkpt>
      <trkpt lat="44.14973" lon="6.95992">
        <ele>2725</ele>
        <time>2012-03-03T11:13:52Z</time>
      </trkpt>
      <trkpt lat="44.14975" lon="6.96003">
        <ele>2725</ele>
        <time>2012-03-03T11:13:59Z</time>
      </trkpt>
      <trkpt lat="44.14977" lon="6.96014">
        <ele>2725</ele>
        <time>2012-03-03T11:14:07Z</time>
      </trkpt>
      <trkpt lat="44.14979" lon="6.96025">
        <ele>2726</ele>
        <time>2012-03-03T11:14:17Z</time>
      </trkpt>
      <trkpt lat="44.14979" lon="6.96027">
        <ele>2727</ele>
        <time>2012-03-03T11:14:18Z</time>
      </trkpt>
      <trkpt lat="44.14984" lon="6.96036">
        <ele>2728</ele>
        <time>2012-03-03T11:15:23Z</time>
      </trkpt>
      <trkpt lat="44.14985" lon="6.96058">
        <ele>2728</ele>
        <time>2012-03-03T11:15:38Z</time>
      </trkpt>
      <trkpt lat="44.14984" lon="6.9607">
        <ele>2727</ele>
        <time>2012-03-03T11:15:45Z</time>
      </trkpt>
      <trkpt lat="44.14983" lon="6.96081">
        <ele>2725</ele>
        <time>2012-03-03T11:15:53Z</time>
      </trkpt>
      <trkpt lat="44.14982" lon="6.96093">
        <ele>2727</ele>
        <time>2012-03-03T11:16:01Z</time>
      </trkpt>
      <trkpt lat="44.14981" lon="6.96104">
        <ele>2729</ele>
        <time>2012-03-03T11:16:09Z</time>
      </trkpt>
      <trkpt lat="44.14978" lon="6.96116">
        <ele>2732</ele>
        <time>2012-03-03T11:16:19Z</time>
      </trkpt>
      <trkpt lat="44.14976" lon="6.96127">
        <ele>2732</ele>
        <time>2012-03-03T11:16:28Z</time>
      </trkpt>
      <trkpt lat="44.14976" lon="6.96129">
        <ele>2732</ele>
        <time>2012-03-03T11:16:29Z</time>
      </trkpt>
      <trkpt lat="44.14968" lon="6.96149">
        <ele>2734</ele>
        <time>2012-03-03T11:17:07Z</time>
      </trkpt>
      <trkpt lat="44.14963" lon="6.96158">
        <ele>2735</ele>
        <time>2012-03-03T11:17:16Z</time>
      </trkpt>
      <trkpt lat="44.14959" lon="6.96169">
        <ele>2734</ele>
        <time>2012-03-03T11:17:26Z</time>
      </trkpt>
      <trkpt lat="44.14958" lon="6.96181">
        <ele>2733</ele>
        <time>2012-03-03T11:17:38Z</time>
      </trkpt>
      <trkpt lat="44.14958" lon="6.96181">
        <ele>2734</ele>
        <time>2012-03-03T11:17:39Z</time>
      </trkpt>
      <trkpt lat="44.14957" lon="6.96203">
        <ele>2734</ele>
        <time>2012-03-03T11:37:13Z</time>
      </trkpt>
      <trkpt lat="44.14957" lon="6.96204">
        <ele>2734</ele>
        <time>2012-03-03T11:37:14Z</time>
      </trkpt>
      <trkpt lat="44.14972" lon="6.96214">
        <ele>2725</ele>
        <time>2012-03-03T11:38:02Z</time>
      </trkpt>
      <trkpt lat="44.1498" lon="6.96218">
        <ele>2723</ele>
        <time>2012-03-03T11:38:21Z</time>
      </trkpt>
      <trkpt lat="44.14981" lon="6.96218">
        <ele>2722</ele>
        <time>2012-03-03T11:38:22Z</time>
      </trkpt>
      <trkpt lat="44.14995" lon="6.96228">
        <ele>2716</ele>
        <time>2012-03-03T11:38:38Z</time>
      </trkpt>
      <trkpt lat="44.15001" lon="6.96235">
        <ele>2713</ele>
        <time>2012-03-03T11:38:41Z</time>
      </trkpt>
      <trkpt lat="44.15007" lon="6.96241">
        <ele>2714</ele>
        <time>2012-03-03T11:38:43Z</time>
      </trkpt>
      <trkpt lat="44.15012" lon="6.96245">
        <ele>2714</ele>
        <time>2012-03-03T11:38:45Z</time>
      </trkpt>
      <trkpt lat="44.1501" lon="6.96234">
        <ele>2727</ele>
        <time>2012-03-03T11:39:44Z</time>
      </trkpt>
      <trkpt lat="44.1501" lon="6.96233">
        <ele>2727</ele>
        <time>2012-03-03T11:39:45Z</time>
      </trkpt>
      <trkpt lat="44.15025" lon="6.96234">
        <ele>2724</ele>
        <time>2012-03-03T11:40:02Z</time>
      </trkpt>
      <trkpt lat="44.15033" lon="6.9624">
        <ele>2726</ele>
        <time>2012-03-03T11:40:07Z</time>
      </trkpt>
      <trkpt lat="44.1504" lon="6.96245">
        <ele>2729</ele>
        <time>2012-03-03T11:40:20Z</time>
      </trkpt>
      <trkpt lat="44.15033" lon="6.96252">
        <ele>2725</ele>
        <time>2012-03-03T11:44:56Z</time>
      </trkpt>
      <trkpt lat="44.15033" lon="6.96252">
        <ele>2725</ele>
        <time>2012-03-03T11:44:57Z</time>
      </trkpt>
      <trkpt lat="44.15042" lon="6.96254">
        <ele>2724</ele>
        <time>2012-03-03T12:05:12Z</time>
      </trkpt>
      <trkpt lat="44.15058" lon="6.96255">
        <ele>2721</ele>
        <time>2012-03-03T12:05:27Z</time>
      </trkpt>
      <trkpt lat="44.15065" lon="6.9626">
        <ele>2719</ele>
        <time>2012-03-03T12:05:46Z</time>
      </trkpt>
      <trkpt lat="44.15073" lon="6.96262">
        <ele>2717</ele>
        <time>2012-03-03T12:05:53Z</time>
      </trkpt>
      <trkpt lat="44.15081" lon="6.96266">
        <ele>2716</ele>
        <time>2012-03-03T12:06:00Z</time>
      </trkpt>
      <trkpt lat="44.15082" lon="6.96277">
        <ele>2712</ele>
        <time>2012-03-03T12:06:09Z</time>
      </trkpt>
      <trkpt lat="44.15089" lon="6.96282">
        <ele>2713</ele>
        <time>2012-03-03T12:06:15Z</time>
      </trkpt>
      <trkpt lat="44.1509" lon="6.96284">
        <ele>2713</ele>
        <time>2012-03-03T12:06:16Z</time>
      </trkpt>
      <trkpt lat="44.15097" lon="6.96304">
        <ele>2715</ele>
        <time>2012-03-03T12:06:30Z</time>
      </trkpt>
      <trkpt lat="44.15102" lon="6.96313">
        <ele>2712</ele>
        <time>2012-03-03T12:06:36Z</time>
      </trkpt>
      <trkpt lat="44.15107" lon="6.96321">
        <ele>2706</ele>
        <time>2012-03-03T12:06:51Z</time>
      </trkpt>
      <trkpt lat="44.15114" lon="6.96329">
        <ele>2706</ele>
        <time>2012-03-03T12:07:07Z</time>
      </trkpt>
      <trkpt lat="44.15117" lon="6.9634">
        <ele>2706</ele>
        <time>2012-03-03T12:07:18Z</time>
      </trkpt>
      <trkpt lat="44.15117" lon="6.96341">
        <ele>2706</ele>
        <time>2012-03-03T12:07:19Z</time>
      </trkpt>
      <trkpt lat="44.15128" lon="6.96357">
        <ele>2708</ele>
        <time>2012-03-03T12:07:37Z</time>
      </trkpt>
      <trkpt lat="44.15133" lon="6.96367">
        <ele>2707</ele>
        <time>2012-03-03T12:07:48Z</time>
      </trkpt>
      <trkpt lat="44.15135" lon="6.96378">
        <ele>2710</ele>
        <time>2012-03-03T12:07:57Z</time>
      </trkpt>
      <trkpt lat="44.1514" lon="6.96388">
        <ele>2706</ele>
        <time>2012-03-03T12:08:08Z</time>
      </trkpt>
      <trkpt lat="44.15146" lon="6.96395">
        <ele>2711</ele>
        <time>2012-03-03T12:08:14Z</time>
      </trkpt>
      <trkpt lat="44.15152" lon="6.96402">
        <ele>2708</ele>
        <time>2012-03-03T12:08:19Z</time>
      </trkpt>
      <trkpt lat="44.15154" lon="6.96404">
        <ele>2708</ele>
        <time>2012-03-03T12:08:20Z</time>
      </trkpt>
      <trkpt lat="44.15157" lon="6.96425">
        <ele>2705</ele>
        <time>2012-03-03T12:08:35Z</time>
      </trkpt>
      <trkpt lat="44.1516" lon="6.96435">
        <ele>2706</ele>
        <time>2012-03-03T12:08:45Z</time>
      </trkpt>
      <trkpt lat="44.15164" lon="6.96446">
        <ele>2705</ele>
        <time>2012-03-03T12:08:53Z</time>
      </trkpt>
      <trkpt lat="44.15171" lon="6.96455">
        <ele>2705</ele>
        <time>2012-03-03T12:09:01Z</time>
      </trkpt>
      <trkpt lat="44.15174" lon="6.96464">
        <ele>2703</ele>
        <time>2012-03-03T12:09:07Z</time>
      </trkpt>
      <trkpt lat="44.15178" lon="6.96474">
        <ele>2705</ele>
        <time>2012-03-03T12:09:16Z</time>
      </trkpt>
      <trkpt lat="44.15181" lon="6.96485">
        <ele>2705</ele>
        <time>2012-03-03T12:09:22Z</time>
      </trkpt>
      <trkpt lat="44.15181" lon="6.96486">
        <ele>2704</ele>
        <time>2012-03-03T12:09:23Z</time>
      </trkpt>
      <trkpt lat="44.15187" lon="6.96507">
        <ele>2706</ele>
        <time>2012-03-03T12:09:34Z</time>
      </trkpt>
      <trkpt lat="44.1519" lon="6.96519">
        <ele>2705</ele>
        <time>2012-03-03T12:09:41Z</time>
      </trkpt>
      <trkpt lat="44.15191" lon="6.96532">
        <ele>2704</ele>
        <time>2012-03-03T12:09:50Z</time>
      </trkpt>
      <trkpt lat="44.15197" lon="6.96539">
        <ele>2705</ele>
        <time>2012-03-03T12:09:55Z</time>
      </trkpt>
      <trkpt lat="44.15203" lon="6.96547">
        <ele>2707</ele>
        <time>2012-03-03T12:10:01Z</time>
      </trkpt>
      <trkpt lat="44.15205" lon="6.96558">
        <ele>2702</ele>
        <time>2012-03-03T12:10:13Z</time>
      </trkpt>
      <trkpt lat="44.15209" lon="6.96569">
        <ele>2703</ele>
        <time>2012-03-03T12:10:23Z</time>
      </trkpt>
      <trkpt lat="44.1521" lon="6.96569">
        <ele>2702</ele>
        <time>2012-03-03T12:10:24Z</time>
      </trkpt>
      <trkpt lat="44.15219" lon="6.96587">
        <ele>2702</ele>
        <time>2012-03-03T12:10:39Z</time>
      </trkpt>
      <trkpt lat="44.15226" lon="6.96595">
        <ele>2698</ele>
        <time>2012-03-03T12:10:55Z</time>
      </trkpt>
      <trkpt lat="44.15229" lon="6.96605">
        <ele>2692</ele>
        <time>2012-03-03T12:11:03Z</time>
      </trkpt>
      <trkpt lat="44.15233" lon="6.96616">
        <ele>2693</ele>
        <time>2012-03-03T12:11:10Z</time>
      </trkpt>
      <trkpt lat="44.15236" lon="6.96627">
        <ele>2695</ele>
        <time>2012-03-03T12:11:35Z</time>
      </trkpt>
      <trkpt lat="44.15237" lon="6.96628">
        <ele>2695</ele>
        <time>2012-03-03T12:11:36Z</time>
      </trkpt>
      <trkpt lat="44.15242" lon="6.96648">
        <ele>2703</ele>
        <time>2012-03-03T12:11:55Z</time>
      </trkpt>
      <trkpt lat="44.15246" lon="6.96659">
        <ele>2706</ele>
        <time>2012-03-03T12:12:03Z</time>
      </trkpt>
      <trkpt lat="44.15251" lon="6.96669">
        <ele>2709</ele>
        <time>2012-03-03T12:12:13Z</time>
      </trkpt>
      <trkpt lat="44.15254" lon="6.9668">
        <ele>2710</ele>
        <time>2012-03-03T12:12:23Z</time>
      </trkpt>
      <trkpt lat="44.15258" lon="6.9669">
        <ele>2714</ele>
        <time>2012-03-03T12:12:30Z</time>
      </trkpt>
      <trkpt lat="44.15263" lon="6.967">
        <ele>2716</ele>
        <time>2012-03-03T12:12:37Z</time>
      </trkpt>
      <trkpt lat="44.15263" lon="6.96701">
        <ele>2716</ele>
        <time>2012-03-03T12:12:38Z</time>
      </trkpt>
      <trkpt lat="44.15271" lon="6.96721">
        <ele>2718</ele>
        <time>2012-03-03T12:12:54Z</time>
      </trkpt>
      <trkpt lat="44.15272" lon="6.96733">
        <ele>2719</ele>
        <time>2012-03-03T12:13:02Z</time>
      </trkpt>
      <trkpt lat="44.15274" lon="6.96744">
        <ele>2721</ele>
        <time>2012-03-03T12:13:10Z</time>
      </trkpt>
      <trkpt lat="44.15279" lon="6.96754">
        <ele>2717</ele>
        <time>2012-03-03T12:13:25Z</time>
      </trkpt>
      <trkpt lat="44.15278" lon="6.96766">
        <ele>2722</ele>
        <time>2012-03-03T12:13:35Z</time>
      </trkpt>
      <trkpt lat="44.15277" lon="6.96778">
        <ele>2729</ele>
        <time>2012-03-03T12:13:51Z</time>
      </trkpt>
      <trkpt lat="44.15277" lon="6.96779">
        <ele>2729</ele>
        <time>2012-03-03T12:13:52Z</time>
      </trkpt>
      <trkpt lat="44.15283" lon="6.968">
        <ele>2733</ele>
        <time>2012-03-03T12:14:18Z</time>
      </trkpt>
      <trkpt lat="44.15287" lon="6.96811">
        <ele>2733</ele>
        <time>2012-03-03T12:14:29Z</time>
      </trkpt>
      <trkpt lat="44.1529" lon="6.96822">
        <ele>2733</ele>
        <time>2012-03-03T12:14:36Z</time>
      </trkpt>
      <trkpt lat="44.15295" lon="6.96831">
        <ele>2742</ele>
        <time>2012-03-03T12:14:52Z</time>
      </trkpt>
      <trkpt lat="44.15295" lon="6.96832">
        <ele>2743</ele>
        <time>2012-03-03T12:14:53Z</time>
      </trkpt>
      <trkpt lat="44.15299" lon="6.96855">
        <ele>2747</ele>
        <time>2012-03-03T12:15:18Z</time>
      </trkpt>
      <trkpt lat="44.15301" lon="6.96866">
        <ele>2746</ele>
        <time>2012-03-03T12:15:27Z</time>
      </trkpt>
      <trkpt lat="44.15305" lon="6.96875">
        <ele>2743</ele>
        <time>2012-03-03T12:15:37Z</time>
      </trkpt>
      <trkpt lat="44.1531" lon="6.96885">
        <ele>2743</ele>
        <time>2012-03-03T12:15:47Z</time>
      </trkpt>
      <trkpt lat="44.15313" lon="6.96895">
        <ele>2743</ele>
        <time>2012-03-03T12:15:56Z</time>
      </trkpt>
      <trkpt lat="44.15314" lon="6.96896">
        <ele>2744</ele>
        <time>2012-03-03T12:15:57Z</time>
      </trkpt>
      <trkpt lat="44.15325" lon="6.96914">
        <ele>2746</ele>
        <time>2012-03-03T12:16:18Z</time>
      </trkpt>
      <trkpt lat="44.15329" lon="6.96924">
        <ele>2751</ele>
        <time>2012-03-03T12:16:27Z</time>
      </trkpt>
      <trkpt lat="44.15335" lon="6.96933">
        <ele>2754</ele>
        <time>2012-03-03T12:16:40Z</time>
      </trkpt>
      <trkpt lat="44.1534" lon="6.96943">
        <ele>2758</ele>
        <time>2012-03-03T12:16:55Z</time>
      </trkpt>
      <trkpt lat="44.15343" lon="6.96955">
        <ele>2761</ele>
        <time>2012-03-03T12:17:09Z</time>
      </trkpt>
      <trkpt lat="44.15343" lon="6.96956">
        <ele>2761</ele>
        <time>2012-03-03T12:17:10Z</time>
      </trkpt>
      <trkpt lat="44.1535" lon="6.96977">
        <ele>2770</ele>
        <time>2012-03-03T12:17:36Z</time>
      </trkpt>
      <trkpt lat="44.15354" lon="6.96988">
        <ele>2771</ele>
        <time>2012-03-03T12:17:47Z</time>
      </trkpt>
      <trkpt lat="44.15359" lon="6.96998">
        <ele>2773</ele>
        <time>2012-03-03T12:17:56Z</time>
      </trkpt>
      <trkpt lat="44.15362" lon="6.9701">
        <ele>2776</ele>
        <time>2012-03-03T12:18:10Z</time>
      </trkpt>
      <trkpt lat="44.15362" lon="6.9701">
        <ele>2776</ele>
        <time>2012-03-03T12:18:11Z</time>
      </trkpt>
      <trkpt lat="44.15372" lon="6.9703">
        <ele>2778</ele>
        <time>2012-03-03T12:18:34Z</time>
      </trkpt>
      <trkpt lat="44.15374" lon="6.97042">
        <ele>2784</ele>
        <time>2012-03-03T12:18:47Z</time>
      </trkpt>
      <trkpt lat="44.15377" lon="6.97054">
        <ele>2787</ele>
        <time>2012-03-03T12:18:59Z</time>
      </trkpt>
      <trkpt lat="44.15383" lon="6.97063">
        <ele>2789</ele>
        <time>2012-03-03T12:19:12Z</time>
      </trkpt>
      <trkpt lat="44.15383" lon="6.97064">
        <ele>2789</ele>
        <time>2012-03-03T12:19:13Z</time>
      </trkpt>
      <trkpt lat="44.1539" lon="6.97085">
        <ele>2794</ele>
        <time>2012-03-03T12:19:37Z</time>
      </trkpt>
      <trkpt lat="44.15394" lon="6.97096">
        <ele>2798</ele>
        <time>2012-03-03T12:19:50Z</time>
      </trkpt>
      <trkpt lat="44.15398" lon="6.97105">
        <ele>2802</ele>
        <time>2012-03-03T12:20:06Z</time>
      </trkpt>
      <trkpt lat="44.15402" lon="6.97116">
        <ele>2806</ele>
        <time>2012-03-03T12:20:19Z</time>
      </trkpt>
      <trkpt lat="44.15402" lon="6.97116">
        <ele>2806</ele>
        <time>2012-03-03T12:20:20Z</time>
      </trkpt>
      <trkpt lat="44.15409" lon="6.97135">
        <ele>2816</ele>
        <time>2012-03-03T12:20:42Z</time>
      </trkpt>
      <trkpt lat="44.15414" lon="6.97145">
        <ele>2817</ele>
        <time>2012-03-03T12:21:00Z</time>
      </trkpt>
      <trkpt lat="44.15421" lon="6.9715">
        <ele>2815</ele>
        <time>2012-03-03T12:21:10Z</time>
      </trkpt>
      <trkpt lat="44.15426" lon="6.9716">
        <ele>2814</ele>
        <time>2012-03-03T12:21:20Z</time>
      </trkpt>
      <trkpt lat="44.15427" lon="6.9716">
        <ele>2813</ele>
        <time>2012-03-03T12:21:21Z</time>
      </trkpt>
      <trkpt lat="44.15438" lon="6.97175">
        <ele>2815</ele>
        <time>2012-03-03T12:21:40Z</time>
      </trkpt>
      <trkpt lat="44.15439" lon="6.97186">
        <ele>2811</ele>
        <time>2012-03-03T12:23:00Z</time>
      </trkpt>
      <trkpt lat="44.15439" lon="6.97188">
        <ele>2811</ele>
        <time>2012-03-03T12:23:01Z</time>
      </trkpt>
      <trkpt lat="44.15447" lon="6.97192">
        <ele>2813</ele>
        <time>2012-03-03T12:24:57Z</time>
      </trkpt>
      <trkpt lat="44.15436" lon="6.97189">
        <ele>2811</ele>
        <time>2012-03-03T12:27:38Z</time>
      </trkpt>
      <trkpt lat="44.15428" lon="6.9717">
        <ele>2807</ele>
        <time>2012-03-03T12:27:55Z</time>
      </trkpt>
      <trkpt lat="44.15424" lon="6.97159">
        <ele>2807</ele>
        <time>2012-03-03T12:28:08Z</time>
      </trkpt>
      <trkpt lat="44.15418" lon="6.9715">
        <ele>2806</ele>
        <time>2012-03-03T12:28:20Z</time>
      </trkpt>
      <trkpt lat="44.15412" lon="6.97141">
        <ele>2805</ele>
        <time>2012-03-03T12:28:49Z</time>
      </trkpt>
      <trkpt lat="44.15412" lon="6.97141">
        <ele>2805</ele>
        <time>2012-03-03T12:28:50Z</time>
      </trkpt>
      <trkpt lat="44.154" lon="6.97125">
        <ele>2800</ele>
        <time>2012-03-03T12:29:46Z</time>
      </trkpt>
      <trkpt lat="44.15399" lon="6.97113">
        <ele>2799</ele>
        <time>2012-03-03T12:30:06Z</time>
      </trkpt>
      <trkpt lat="44.15398" lon="6.97112">
        <ele>2799</ele>
        <time>2012-03-03T12:30:07Z</time>
      </trkpt>
      <trkpt lat="44.15391" lon="6.97092">
        <ele>2795</ele>
        <time>2012-03-03T12:30:36Z</time>
      </trkpt>
      <trkpt lat="44.15388" lon="6.97081">
        <ele>2797</ele>
        <time>2012-03-03T12:30:47Z</time>
      </trkpt>
      <trkpt lat="44.15381" lon="6.97074">
        <ele>2794</ele>
        <time>2012-03-03T12:30:57Z</time>
      </trkpt>
      <trkpt lat="44.15377" lon="6.97064">
        <ele>2796</ele>
        <time>2012-03-03T12:31:04Z</time>
      </trkpt>
      <trkpt lat="44.15374" lon="6.97053">
        <ele>2792</ele>
        <time>2012-03-03T12:31:12Z</time>
      </trkpt>
      <trkpt lat="44.15373" lon="6.97052">
        <ele>2793</ele>
        <time>2012-03-03T12:31:13Z</time>
      </trkpt>
      <trkpt lat="44.15368" lon="6.9703">
        <ele>2778</ele>
        <time>2012-03-03T12:31:40Z</time>
      </trkpt>
      <trkpt lat="44.15364" lon="6.97021">
        <ele>2776</ele>
        <time>2012-03-03T12:32:21Z</time>
      </trkpt>
      <trkpt lat="44.15363" lon="6.97019">
        <ele>2778</ele>
        <time>2012-03-03T12:32:22Z</time>
      </trkpt>
      <trkpt lat="44.15357" lon="6.97001">
        <ele>2774</ele>
        <time>2012-03-03T12:32:47Z</time>
      </trkpt>
      <trkpt lat="44.1535" lon="6.96999">
        <ele>2775</ele>
        <time>2012-03-03T12:33:04Z</time>
      </trkpt>
      <trkpt lat="44.15345" lon="6.96989">
        <ele>2772</ele>
        <time>2012-03-03T12:33:10Z</time>
      </trkpt>
      <trkpt lat="44.15346" lon="6.96977">
        <ele>2766</ele>
        <time>2012-03-03T12:33:27Z</time>
      </trkpt>
      <trkpt lat="44.15346" lon="6.96976">
        <ele>2765</ele>
        <time>2012-03-03T12:33:28Z</time>
      </trkpt>
      <trkpt lat="44.15339" lon="6.96957">
        <ele>2764</ele>
        <time>2012-03-03T12:34:07Z</time>
      </trkpt>
      <trkpt lat="44.15334" lon="6.96947">
        <ele>2761</ele>
        <time>2012-03-03T12:34:19Z</time>
      </trkpt>
      <trkpt lat="44.15331" lon="6.96937">
        <ele>2757</ele>
        <time>2012-03-03T12:34:24Z</time>
      </trkpt>
      <trkpt lat="44.15326" lon="6.96928">
        <ele>2753</ele>
        <time>2012-03-03T12:35:18Z</time>
      </trkpt>
      <trkpt lat="44.15325" lon="6.96927">
        <ele>2753</ele>
        <time>2012-03-03T12:35:19Z</time>
      </trkpt>
      <trkpt lat="44.15317" lon="6.96908">
        <ele>2749</ele>
        <time>2012-03-03T12:35:53Z</time>
      </trkpt>
      <trkpt lat="44.1531" lon="6.96901">
        <ele>2745</ele>
        <time>2012-03-03T12:36:06Z</time>
      </trkpt>
      <trkpt lat="44.15308" lon="6.96889">
        <ele>2744</ele>
        <time>2012-03-03T12:36:16Z</time>
      </trkpt>
      <trkpt lat="44.15305" lon="6.96879">
        <ele>2745</ele>
        <time>2012-03-03T12:36:20Z</time>
      </trkpt>
      <trkpt lat="44.15304" lon="6.96877">
        <ele>2744</ele>
        <time>2012-03-03T12:36:21Z</time>
      </trkpt>
      <trkpt lat="44.15299" lon="6.9686">
        <ele>2736</ele>
        <time>2012-03-03T12:37:08Z</time>
      </trkpt>
      <trkpt lat="44.15294" lon="6.96851">
        <ele>2731</ele>
        <time>2012-03-03T12:37:19Z</time>
      </trkpt>
      <trkpt lat="44.15293" lon="6.96839">
        <ele>2732</ele>
        <time>2012-03-03T12:37:28Z</time>
      </trkpt>
      <trkpt lat="44.15292" lon="6.96837">
        <ele>2732</ele>
        <time>2012-03-03T12:37:29Z</time>
      </trkpt>
      <trkpt lat="44.15289" lon="6.96816">
        <ele>2732</ele>
        <time>2012-03-03T12:38:01Z</time>
      </trkpt>
      <trkpt lat="44.15285" lon="6.96806">
        <ele>2728</ele>
        <time>2012-03-03T12:38:11Z</time>
      </trkpt>
      <trkpt lat="44.1528" lon="6.96796">
        <ele>2730</ele>
        <time>2012-03-03T12:38:19Z</time>
      </trkpt>
      <trkpt lat="44.15282" lon="6.96784">
        <ele>2731</ele>
        <time>2012-03-03T12:38:48Z</time>
      </trkpt>
      <trkpt lat="44.15282" lon="6.96783">
        <ele>2732</ele>
        <time>2012-03-03T12:38:49Z</time>
      </trkpt>
      <trkpt lat="44.15276" lon="6.96761">
        <ele>2720</ele>
        <time>2012-03-03T12:39:28Z</time>
      </trkpt>
      <trkpt lat="44.15275" lon="6.96749">
        <ele>2721</ele>
        <time>2012-03-03T12:41:20Z</time>
      </trkpt>
      <trkpt lat="44.15275" lon="6.96747">
        <ele>2721</ele>
        <time>2012-03-03T12:41:21Z</time>
      </trkpt>
      <trkpt lat="44.15269" lon="6.96726">
        <ele>2720</ele>
        <time>2012-03-03T12:41:35Z</time>
      </trkpt>
      <trkpt lat="44.15266" lon="6.96715">
        <ele>2718</ele>
        <time>2012-03-03T12:41:45Z</time>
      </trkpt>
      <trkpt lat="44.15263" lon="6.96706">
        <ele>2718</ele>
        <time>2012-03-03T12:42:06Z</time>
      </trkpt>
      <trkpt lat="44.15258" lon="6.96696">
        <ele>2716</ele>
        <time>2012-03-03T12:42:10Z</time>
      </trkpt>
      <trkpt lat="44.15253" lon="6.96686">
        <ele>2716</ele>
        <time>2012-03-03T12:42:26Z</time>
      </trkpt>
      <trkpt lat="44.15252" lon="6.96686">
        <ele>2716</ele>
        <time>2012-03-03T12:42:27Z</time>
      </trkpt>
      <trkpt lat="44.15249" lon="6.96663">
        <ele>2717</ele>
        <time>2012-03-03T12:42:42Z</time>
      </trkpt>
      <trkpt lat="44.15244" lon="6.96654">
        <ele>2701</ele>
        <time>2012-03-03T12:43:11Z</time>
      </trkpt>
      <trkpt lat="44.15238" lon="6.96644">
        <ele>2701</ele>
        <time>2012-03-03T12:43:33Z</time>
      </trkpt>
      <trkpt lat="44.15237" lon="6.96643">
        <ele>2702</ele>
        <time>2012-03-03T12:43:34Z</time>
      </trkpt>
      <trkpt lat="44.15233" lon="6.96624">
        <ele>2700</ele>
        <time>2012-03-03T12:43:49Z</time>
      </trkpt>
      <trkpt lat="44.1523" lon="6.96613">
        <ele>2698</ele>
        <time>2012-03-03T12:44:05Z</time>
      </trkpt>
      <trkpt lat="44.15226" lon="6.96603">
        <ele>2695</ele>
        <time>2012-03-03T12:44:15Z</time>
      </trkpt>
      <trkpt lat="44.1522" lon="6.96595">
        <ele>2687</ele>
        <time>2012-03-03T12:44:23Z</time>
      </trkpt>
      <trkpt lat="44.15212" lon="6.96589">
        <ele>2696</ele>
        <time>2012-03-03T12:44:33Z</time>
      </trkpt>
      <trkpt lat="44.15211" lon="6.96588">
        <ele>2695</ele>
        <time>2012-03-03T12:44:34Z</time>
      </trkpt>
      <trkpt lat="44.15201" lon="6.9657">
        <ele>2698</ele>
        <time>2012-03-03T12:44:52Z</time>
      </trkpt>
      <trkpt lat="44.152" lon="6.96558">
        <ele>2698</ele>
        <time>2012-03-03T12:45:02Z</time>
      </trkpt>
      <trkpt lat="44.15197" lon="6.96546">
        <ele>2704</ele>
        <time>2012-03-03T12:45:25Z</time>
      </trkpt>
      <trkpt lat="44.15196" lon="6.96535">
        <ele>2704</ele>
        <time>2012-03-03T12:45:36Z</time>
      </trkpt>
      <trkpt lat="44.15195" lon="6.96534">
        <ele>2703</ele>
        <time>2012-03-03T12:45:37Z</time>
      </trkpt>
      <trkpt lat="44.15186" lon="6.96515">
        <ele>2699</ele>
        <time>2012-03-03T12:46:03Z</time>
      </trkpt>
      <trkpt lat="44.15186" lon="6.96502">
        <ele>2705</ele>
        <time>2012-03-03T12:47:11Z</time>
      </trkpt>
      <trkpt lat="44.15184" lon="6.96497">
        <ele>2705</ele>
        <time>2012-03-03T12:47:12Z</time>
      </trkpt>
      <trkpt lat="44.15178" lon="6.96496">
        <ele>2700</ele>
        <time>2012-03-03T12:49:30Z</time>
      </trkpt>
      <trkpt lat="44.1517" lon="6.96478">
        <ele>2699</ele>
        <time>2012-03-03T12:49:44Z</time>
      </trkpt>
      <trkpt lat="44.1517" lon="6.96465">
        <ele>2698</ele>
        <time>2012-03-03T12:50:01Z</time>
      </trkpt>
      <trkpt lat="44.15166" lon="6.96455">
        <ele>2697</ele>
        <time>2012-03-03T12:50:09Z</time>
      </trkpt>
      <trkpt lat="44.1516" lon="6.96447">
        <ele>2696</ele>
        <time>2012-03-03T12:50:25Z</time>
      </trkpt>
      <trkpt lat="44.15157" lon="6.96435">
        <ele>2695</ele>
        <time>2012-03-03T12:50:29Z</time>
      </trkpt>
      <trkpt lat="44.15153" lon="6.96425">
        <ele>2697</ele>
        <time>2012-03-03T12:50:38Z</time>
      </trkpt>
      <trkpt lat="44.15152" lon="6.96424">
        <ele>2697</ele>
        <time>2012-03-03T12:50:39Z</time>
      </trkpt>
      <trkpt lat="44.15146" lon="6.96403">
        <ele>2700</ele>
        <time>2012-03-03T12:51:11Z</time>
      </trkpt>
      <trkpt lat="44.15143" lon="6.96392">
        <ele>2699</ele>
        <time>2012-03-03T12:51:25Z</time>
      </trkpt>
      <trkpt lat="44.15137" lon="6.96383">
        <ele>2697</ele>
        <time>2012-03-03T12:51:35Z</time>
      </trkpt>
      <trkpt lat="44.1513" lon="6.96375">
        <ele>2698</ele>
        <time>2012-03-03T12:51:52Z</time>
      </trkpt>
      <trkpt lat="44.1513" lon="6.96374">
        <ele>2698</ele>
        <time>2012-03-03T12:51:53Z</time>
      </trkpt>
      <trkpt lat="44.15121" lon="6.96356">
        <ele>2700</ele>
        <time>2012-03-03T12:52:09Z</time>
      </trkpt>
      <trkpt lat="44.15117" lon="6.96347">
        <ele>2698</ele>
        <time>2012-03-03T12:52:27Z</time>
      </trkpt>
      <trkpt lat="44.15112" lon="6.96339">
        <ele>2702</ele>
        <time>2012-03-03T12:52:42Z</time>
      </trkpt>
      <trkpt lat="44.15105" lon="6.96331">
        <ele>2702</ele>
        <time>2012-03-03T12:52:51Z</time>
      </trkpt>
      <trkpt lat="44.15101" lon="6.96321">
        <ele>2707</ele>
        <time>2012-03-03T12:53:23Z</time>
      </trkpt>
      <trkpt lat="44.151" lon="6.9632">
        <ele>2707</ele>
        <time>2012-03-03T12:53:24Z</time>
      </trkpt>
      <trkpt lat="44.1509" lon="6.96302">
        <ele>2711</ele>
        <time>2012-03-03T12:53:45Z</time>
      </trkpt>
      <trkpt lat="44.15085" lon="6.96292">
        <ele>2709</ele>
        <time>2012-03-03T12:53:56Z</time>
      </trkpt>
      <trkpt lat="44.15079" lon="6.96283">
        <ele>2713</ele>
        <time>2012-03-03T12:55:38Z</time>
      </trkpt>
      <trkpt lat="44.15078" lon="6.96282">
        <ele>2714</ele>
        <time>2012-03-03T12:55:39Z</time>
      </trkpt>
      <trkpt lat="44.15066" lon="6.96267">
        <ele>2715</ele>
        <time>2012-03-03T12:55:53Z</time>
      </trkpt>
      <trkpt lat="44.15057" lon="6.96266">
        <ele>2718</ele>
        <time>2012-03-03T12:56:06Z</time>
      </trkpt>
      <trkpt lat="44.1505" lon="6.96273">
        <ele>2719</ele>
        <time>2012-03-03T12:56:20Z</time>
      </trkpt>
      <trkpt lat="44.15042" lon="6.96273">
        <ele>2721</ele>
        <time>2012-03-03T12:56:41Z</time>
      </trkpt>
      <trkpt lat="44.15041" lon="6.96273">
        <ele>2720</ele>
        <time>2012-03-03T12:56:42Z</time>
      </trkpt>
      <trkpt lat="44.15035" lon="6.96262">
        <ele>2719</ele>
        <time>2012-03-03T12:57:49Z</time>
      </trkpt>
      <trkpt lat="44.15035" lon="6.96261">
        <ele>2721</ele>
        <time>2012-03-03T12:57:50Z</time>
      </trkpt>
      <trkpt lat="44.15036" lon="6.96247">
        <ele>2725</ele>
        <time>2012-03-03T13:17:47Z</time>
      </trkpt>
      <trkpt lat="44.15029" lon="6.96244">
        <ele>2722</ele>
        <time>2012-03-03T13:26:19Z</time>
      </trkpt>
      <trkpt lat="44.15016" lon="6.9623">
        <ele>2718</ele>
        <time>2012-03-03T13:26:38Z</time>
      </trkpt>
      <trkpt lat="44.15009" lon="6.96224">
        <ele>2721</ele>
        <time>2012-03-03T13:26:49Z</time>
      </trkpt>
      <trkpt lat="44.15001" lon="6.96219">
        <ele>2722</ele>
        <time>2012-03-03T13:27:19Z</time>
      </trkpt>
      <trkpt lat="44.15001" lon="6.96219">
        <ele>2722</ele>
        <time>2012-03-03T13:27:20Z</time>
      </trkpt>
      <trkpt lat="44.14987" lon="6.96206">
        <ele>2725</ele>
        <time>2012-03-03T13:27:44Z</time>
      </trkpt>
      <trkpt lat="44.14981" lon="6.96197">
        <ele>2728</ele>
        <time>2012-03-03T13:27:54Z</time>
      </trkpt>
      <trkpt lat="44.14979" lon="6.96185">
        <ele>2729</ele>
        <time>2012-03-03T13:28:05Z</time>
      </trkpt>
      <trkpt lat="44.1497" lon="6.96184">
        <ele>2733</ele>
        <time>2012-03-03T13:28:31Z</time>
      </trkpt>
      <trkpt lat="44.14969" lon="6.96185">
        <ele>2733</ele>
        <time>2012-03-03T13:28:32Z</time>
      </trkpt>
      <trkpt lat="44.14955" lon="6.96195">
        <ele>2732</ele>
        <time>2012-03-03T13:28:48Z</time>
      </trkpt>
      <trkpt lat="44.1495" lon="6.96204">
        <ele>2730</ele>
        <time>2012-03-03T13:28:58Z</time>
      </trkpt>
      <trkpt lat="44.14948" lon="6.96215">
        <ele>2731</ele>
        <time>2012-03-03T13:29:04Z</time>
      </trkpt>
      <trkpt lat="44.14944" lon="6.96226">
        <ele>2733</ele>
        <time>2012-03-03T13:29:12Z</time>
      </trkpt>
      <trkpt lat="44.14939" lon="6.96235">
        <ele>2731</ele>
        <time>2012-03-03T13:29:21Z</time>
      </trkpt>
      <trkpt lat="44.14936" lon="6.96247">
        <ele>2730</ele>
        <time>2012-03-03T13:29:30Z</time>
      </trkpt>
      <trkpt lat="44.14927" lon="6.96249">
        <ele>2730</ele>
        <time>2012-03-03T13:29:37Z</time>
      </trkpt>
      <trkpt lat="44.14926" lon="6.96249">
        <ele>2730</ele>
        <time>2012-03-03T13:29:38Z</time>
      </trkpt>
      <trkpt lat="44.14918" lon="6.96267">
        <ele>2729</ele>
        <time>2012-03-03T13:29:53Z</time>
      </trkpt>
      <trkpt lat="44.14914" lon="6.96276">
        <ele>2729</ele>
        <time>2012-03-03T13:29:59Z</time>
      </trkpt>
      <trkpt lat="44.14917" lon="6.96266">
        <ele>2727</ele>
        <time>2012-03-03T13:30:11Z</time>
      </trkpt>
      <trkpt lat="44.14923" lon="6.96258">
        <ele>2730</ele>
        <time>2012-03-03T13:30:15Z</time>
      </trkpt>
      <trkpt lat="44.14928" lon="6.96248">
        <ele>2730</ele>
        <time>2012-03-03T13:30:20Z</time>
      </trkpt>
      <trkpt lat="44.14932" lon="6.96238">
        <ele>2730</ele>
        <time>2012-03-03T13:30:25Z</time>
      </trkpt>
      <trkpt lat="44.14937" lon="6.96228">
        <ele>2730</ele>
        <time>2012-03-03T13:30:32Z</time>
      </trkpt>
      <trkpt lat="44.14941" lon="6.96217">
        <ele>2729</ele>
        <time>2012-03-03T13:30:38Z</time>
      </trkpt>
      <trkpt lat="44.14942" lon="6.96216">
        <ele>2729</ele>
        <time>2012-03-03T13:30:39Z</time>
      </trkpt>
      <trkpt lat="44.14953" lon="6.96202">
        <ele>2732</ele>
        <time>2012-03-03T13:30:49Z</time>
      </trkpt>
      <trkpt lat="44.14959" lon="6.96194">
        <ele>2732</ele>
        <time>2012-03-03T13:30:56Z</time>
      </trkpt>
      <trkpt lat="44.14965" lon="6.96185">
        <ele>2732</ele>
        <time>2012-03-03T13:31:04Z</time>
      </trkpt>
      <trkpt lat="44.1497" lon="6.96175">
        <ele>2734</ele>
        <time>2012-03-03T13:31:09Z</time>
      </trkpt>
      <trkpt lat="44.14972" lon="6.96163">
        <ele>2734</ele>
        <time>2012-03-03T13:31:16Z</time>
      </trkpt>
      <trkpt lat="44.14974" lon="6.96152">
        <ele>2731</ele>
        <time>2012-03-03T13:31:22Z</time>
      </trkpt>
      <trkpt lat="44.14976" lon="6.96141">
        <ele>2729</ele>
        <time>2012-03-03T13:31:28Z</time>
      </trkpt>
      <trkpt lat="44.1498" lon="6.96129">
        <ele>2728</ele>
        <time>2012-03-03T13:31:34Z</time>
      </trkpt>
      <trkpt lat="44.14982" lon="6.96118">
        <ele>2726</ele>
        <time>2012-03-03T13:31:41Z</time>
      </trkpt>
      <trkpt lat="44.14982" lon="6.96116">
        <ele>2725</ele>
        <time>2012-03-03T13:31:42Z</time>
      </trkpt>
      <trkpt lat="44.14984" lon="6.96094">
        <ele>2725</ele>
        <time>2012-03-03T13:31:55Z</time>
      </trkpt>
      <trkpt lat="44.14984" lon="6.96082">
        <ele>2727</ele>
        <time>2012-03-03T13:32:03Z</time>
      </trkpt>
      <trkpt lat="44.14984" lon="6.9607">
        <ele>2727</ele>
        <time>2012-03-03T13:32:10Z</time>
      </trkpt>
      <trkpt lat="44.14983" lon="6.96059">
        <ele>2728</ele>
        <time>2012-03-03T13:32:16Z</time>
      </trkpt>
      <trkpt lat="44.14982" lon="6.96047">
        <ele>2727</ele>
        <time>2012-03-03T13:32:23Z</time>
      </trkpt>
      <trkpt lat="44.1498" lon="6.96036">
        <ele>2727</ele>
        <time>2012-03-03T13:32:30Z</time>
      </trkpt>
      <trkpt lat="44.14976" lon="6.96026">
        <ele>2725</ele>
        <time>2012-03-03T13:32:36Z</time>
      </trkpt>
      <trkpt lat="44.14975" lon="6.96014">
        <ele>2720</ele>
        <time>2012-03-03T13:32:42Z</time>
      </trkpt>
      <trkpt lat="44.14974" lon="6.96012">
        <ele>2719</ele>
        <time>2012-03-03T13:32:43Z</time>
      </trkpt>
      <trkpt lat="44.14971" lon="6.95992">
        <ele>2715</ele>
        <time>2012-03-03T13:32:56Z</time>
      </trkpt>
      <trkpt lat="44.14969" lon="6.95981">
        <ele>2716</ele>
        <time>2012-03-03T13:33:02Z</time>
      </trkpt>
      <trkpt lat="44.14966" lon="6.9597">
        <ele>2720</ele>
        <time>2012-03-03T13:33:08Z</time>
      </trkpt>
      <trkpt lat="44.14963" lon="6.9596">
        <ele>2719</ele>
        <time>2012-03-03T13:33:13Z</time>
      </trkpt>
      <trkpt lat="44.1496" lon="6.95949">
        <ele>2717</ele>
        <time>2012-03-03T13:33:18Z</time>
      </trkpt>
      <trkpt lat="44.14957" lon="6.9594">
        <ele>2713</ele>
        <time>2012-03-03T13:33:23Z</time>
      </trkpt>
      <trkpt lat="44.14952" lon="6.9593">
        <ele>2710</ele>
        <time>2012-03-03T13:33:28Z</time>
      </trkpt>
      <trkpt lat="44.14947" lon="6.9592">
        <ele>2714</ele>
        <time>2012-03-03T13:33:35Z</time>
      </trkpt>
      <trkpt lat="44.14942" lon="6.95911">
        <ele>2713</ele>
        <time>2012-03-03T13:33:42Z</time>
      </trkpt>
      <trkpt lat="44.14937" lon="6.95901">
        <ele>2708</ele>
        <time>2012-03-03T13:33:48Z</time>
      </trkpt>
      <trkpt lat="44.14936" lon="6.95899">
        <ele>2707</ele>
        <time>2012-03-03T13:33:49Z</time>
      </trkpt>
      <trkpt lat="44.14925" lon="6.95885">
        <ele>2705</ele>
        <time>2012-03-03T13:34:01Z</time>
      </trkpt>
      <trkpt lat="44.14918" lon="6.95878">
        <ele>2700</ele>
        <time>2012-03-03T13:34:08Z</time>
      </trkpt>
      <trkpt lat="44.14914" lon="6.95868">
        <ele>2695</ele>
        <time>2012-03-03T13:34:13Z</time>
      </trkpt>
      <trkpt lat="44.14908" lon="6.9586">
        <ele>2693</ele>
        <time>2012-03-03T13:34:19Z</time>
      </trkpt>
      <trkpt lat="44.14902" lon="6.95853">
        <ele>2700</ele>
        <time>2012-03-03T13:34:26Z</time>
      </trkpt>
      <trkpt lat="44.14899" lon="6.95844">
        <ele>2701</ele>
        <time>2012-03-03T13:34:31Z</time>
      </trkpt>
      <trkpt lat="44.14892" lon="6.95837">
        <ele>2696</ele>
        <time>2012-03-03T13:34:37Z</time>
      </trkpt>
      <trkpt lat="44.14885" lon="6.9583">
        <ele>2694</ele>
        <time>2012-03-03T13:34:42Z</time>
      </trkpt>
      <trkpt lat="44.1488" lon="6.95822">
        <ele>2692</ele>
        <time>2012-03-03T13:34:48Z</time>
      </trkpt>
      <trkpt lat="44.14875" lon="6.95811">
        <ele>2690</ele>
        <time>2012-03-03T13:34:55Z</time>
      </trkpt>
      <trkpt lat="44.14875" lon="6.9581">
        <ele>2689</ele>
        <time>2012-03-03T13:34:56Z</time>
      </trkpt>
      <trkpt lat="44.14861" lon="6.95799">
        <ele>2684</ele>
        <time>2012-03-03T13:35:08Z</time>
      </trkpt>
      <trkpt lat="44.14856" lon="6.95789">
        <ele>2686</ele>
        <time>2012-03-03T13:35:16Z</time>
      </trkpt>
      <trkpt lat="44.1485" lon="6.9578">
        <ele>2683</ele>
        <time>2012-03-03T13:35:27Z</time>
      </trkpt>
      <trkpt lat="44.14851" lon="6.95768">
        <ele>2678</ele>
        <time>2012-03-03T13:35:38Z</time>
      </trkpt>
      <trkpt lat="44.14853" lon="6.95756">
        <ele>2673</ele>
        <time>2012-03-03T13:35:53Z</time>
      </trkpt>
      <trkpt lat="44.14853" lon="6.95744">
        <ele>2671</ele>
        <time>2012-03-03T13:36:08Z</time>
      </trkpt>
      <trkpt lat="44.14853" lon="6.95743">
        <ele>2671</ele>
        <time>2012-03-03T13:36:09Z</time>
      </trkpt>
      <trkpt lat="44.14859" lon="6.95723">
        <ele>2657</ele>
        <time>2012-03-03T13:36:29Z</time>
      </trkpt>
      <trkpt lat="44.1486" lon="6.95711">
        <ele>2656</ele>
        <time>2012-03-03T13:36:35Z</time>
      </trkpt>
      <trkpt lat="44.14862" lon="6.95699">
        <ele>2655</ele>
        <time>2012-03-03T13:36:47Z</time>
      </trkpt>
      <trkpt lat="44.14867" lon="6.95689">
        <ele>2650</ele>
        <time>2012-03-03T13:36:55Z</time>
      </trkpt>
      <trkpt lat="44.14871" lon="6.95677">
        <ele>2653</ele>
        <time>2012-03-03T13:37:03Z</time>
      </trkpt>
      <trkpt lat="44.14874" lon="6.95666">
        <ele>2654</ele>
        <time>2012-03-03T13:37:10Z</time>
      </trkpt>
      <trkpt lat="44.14874" lon="6.95664">
        <ele>2654</ele>
        <time>2012-03-03T13:37:11Z</time>
      </trkpt>
      <trkpt lat="44.14875" lon="6.95643">
        <ele>2653</ele>
        <time>2012-03-03T13:37:24Z</time>
      </trkpt>
      <trkpt lat="44.14876" lon="6.95631">
        <ele>2654</ele>
        <time>2012-03-03T13:37:33Z</time>
      </trkpt>
      <trkpt lat="44.14874" lon="6.95621">
        <ele>2656</ele>
        <time>2012-03-03T13:37:39Z</time>
      </trkpt>
      <trkpt lat="44.14872" lon="6.95609">
        <ele>2656</ele>
        <time>2012-03-03T13:37:46Z</time>
      </trkpt>
      <trkpt lat="44.14872" lon="6.95597">
        <ele>2653</ele>
        <time>2012-03-03T13:37:54Z</time>
      </trkpt>
      <trkpt lat="44.14864" lon="6.95591">
        <ele>2651</ele>
        <time>2012-03-03T13:38:02Z</time>
      </trkpt>
      <trkpt lat="44.14857" lon="6.95585">
        <ele>2651</ele>
        <time>2012-03-03T13:38:09Z</time>
      </trkpt>
      <trkpt lat="44.14852" lon="6.95577">
        <ele>2651</ele>
        <time>2012-03-03T13:38:16Z</time>
      </trkpt>
      <trkpt lat="44.14851" lon="6.95575">
        <ele>2651</ele>
        <time>2012-03-03T13:38:17Z</time>
      </trkpt>
      <trkpt lat="44.1484" lon="6.95561">
        <ele>2651</ele>
        <time>2012-03-03T13:38:30Z</time>
      </trkpt>
      <trkpt lat="44.14834" lon="6.95552">
        <ele>2652</ele>
        <time>2012-03-03T13:38:37Z</time>
      </trkpt>
      <trkpt lat="44.14829" lon="6.95543">
        <ele>2653</ele>
        <time>2012-03-03T13:38:44Z</time>
      </trkpt>
      <trkpt lat="44.14826" lon="6.95532">
        <ele>2654</ele>
        <time>2012-03-03T13:38:51Z</time>
      </trkpt>
      <trkpt lat="44.14823" lon="6.95522">
        <ele>2655</ele>
        <time>2012-03-03T13:38:58Z</time>
      </trkpt>
      <trkpt lat="44.14819" lon="6.95511">
        <ele>2656</ele>
        <time>2012-03-03T13:39:06Z</time>
      </trkpt>
      <trkpt lat="44.14817" lon="6.95499">
        <ele>2656</ele>
        <time>2012-03-03T13:39:13Z</time>
      </trkpt>
      <trkpt lat="44.14815" lon="6.95488">
        <ele>2658</ele>
        <time>2012-03-03T13:39:20Z</time>
      </trkpt>
      <trkpt lat="44.14815" lon="6.95486">
        <ele>2658</ele>
        <time>2012-03-03T13:39:21Z</time>
      </trkpt>
      <trkpt lat="44.1481" lon="6.95467">
        <ele>2658</ele>
        <time>2012-03-03T13:39:34Z</time>
      </trkpt>
      <trkpt lat="44.14808" lon="6.95456">
        <ele>2657</ele>
        <time>2012-03-03T13:39:41Z</time>
      </trkpt>
      <trkpt lat="44.14805" lon="6.95444">
        <ele>2657</ele>
        <time>2012-03-03T13:39:48Z</time>
      </trkpt>
      <trkpt lat="44.14801" lon="6.95434">
        <ele>2655</ele>
        <time>2012-03-03T13:39:55Z</time>
      </trkpt>
      <trkpt lat="44.14795" lon="6.95427">
        <ele>2654</ele>
        <time>2012-03-03T13:40:03Z</time>
      </trkpt>
      <trkpt lat="44.14789" lon="6.95418">
        <ele>2653</ele>
        <time>2012-03-03T13:40:11Z</time>
      </trkpt>
      <trkpt lat="44.14784" lon="6.95408">
        <ele>2650</ele>
        <time>2012-03-03T13:40:49Z</time>
      </trkpt>
      <trkpt lat="44.14783" lon="6.95407">
        <ele>2650</ele>
        <time>2012-03-03T13:40:50Z</time>
      </trkpt>
      <trkpt lat="44.14768" lon="6.95399">
        <ele>2645</ele>
        <time>2012-03-03T13:41:15Z</time>
      </trkpt>
      <trkpt lat="44.14761" lon="6.95394">
        <ele>2642</ele>
        <time>2012-03-03T13:41:28Z</time>
      </trkpt>
      <trkpt lat="44.14753" lon="6.9539">
        <ele>2637</ele>
        <time>2012-03-03T13:41:45Z</time>
      </trkpt>
      <trkpt lat="44.14744" lon="6.95387">
        <ele>2634</ele>
        <time>2012-03-03T13:42:01Z</time>
      </trkpt>
      <trkpt lat="44.14743" lon="6.95386">
        <ele>2633</ele>
        <time>2012-03-03T13:42:02Z</time>
      </trkpt>
      <trkpt lat="44.14727" lon="6.9538">
        <ele>2628</ele>
        <time>2012-03-03T13:42:27Z</time>
      </trkpt>
      <trkpt lat="44.1472" lon="6.95379">
        <ele>2628</ele>
        <time>2012-03-03T13:42:34Z</time>
      </trkpt>
      <trkpt lat="44.14712" lon="6.95376">
        <ele>2623</ele>
        <time>2012-03-03T13:42:40Z</time>
      </trkpt>
      <trkpt lat="44.14703" lon="6.95372">
        <ele>2618</ele>
        <time>2012-03-03T13:42:47Z</time>
      </trkpt>
      <trkpt lat="44.14697" lon="6.95366">
        <ele>2615</ele>
        <time>2012-03-03T13:42:54Z</time>
      </trkpt>
      <trkpt lat="44.14689" lon="6.95362">
        <ele>2613</ele>
        <time>2012-03-03T13:43:02Z</time>
      </trkpt>
      <trkpt lat="44.14688" lon="6.95362">
        <ele>2613</ele>
        <time>2012-03-03T13:43:03Z</time>
      </trkpt>
      <trkpt lat="44.14672" lon="6.95359">
        <ele>2606</ele>
        <time>2012-03-03T13:43:20Z</time>
      </trkpt>
      <trkpt lat="44.14663" lon="6.95357">
        <ele>2603</ele>
        <time>2012-03-03T13:43:27Z</time>
      </trkpt>
      <trkpt lat="44.14655" lon="6.95351">
        <ele>2606</ele>
        <time>2012-03-03T13:43:36Z</time>
      </trkpt>
      <trkpt lat="44.14647" lon="6.95346">
        <ele>2606</ele>
        <time>2012-03-03T13:43:45Z</time>
      </trkpt>
      <trkpt lat="44.14639" lon="6.95342">
        <ele>2607</ele>
        <time>2012-03-03T13:43:53Z</time>
      </trkpt>
      <trkpt lat="44.14631" lon="6.95339">
        <ele>2609</ele>
        <time>2012-03-03T13:44:02Z</time>
      </trkpt>
      <trkpt lat="44.14623" lon="6.95334">
        <ele>2610</ele>
        <time>2012-03-03T13:44:10Z</time>
      </trkpt>
      <trkpt lat="44.14623" lon="6.95334">
        <ele>2610</ele>
        <time>2012-03-03T13:44:11Z</time>
      </trkpt>
      <trkpt lat="44.14609" lon="6.95324">
        <ele>2608</ele>
        <time>2012-03-03T13:44:24Z</time>
      </trkpt>
      <trkpt lat="44.146" lon="6.95321">
        <ele>2610</ele>
        <time>2012-03-03T13:44:32Z</time>
      </trkpt>
      <trkpt lat="44.14592" lon="6.95321">
        <ele>2612</ele>
        <time>2012-03-03T13:44:40Z</time>
      </trkpt>
      <trkpt lat="44.14584" lon="6.95321">
        <ele>2608</ele>
        <time>2012-03-03T13:44:46Z</time>
      </trkpt>
      <trkpt lat="44.14575" lon="6.9532">
        <ele>2605</ele>
        <time>2012-03-03T13:44:52Z</time>
      </trkpt>
      <trkpt lat="44.14566" lon="6.95317">
        <ele>2605</ele>
        <time>2012-03-03T13:45:00Z</time>
      </trkpt>
      <trkpt lat="44.14558" lon="6.95312">
        <ele>2604</ele>
        <time>2012-03-03T13:45:06Z</time>
      </trkpt>
      <trkpt lat="44.1455" lon="6.95308">
        <ele>2602</ele>
        <time>2012-03-03T13:45:13Z</time>
      </trkpt>
      <trkpt lat="44.14549" lon="6.95307">
        <ele>2602</ele>
        <time>2012-03-03T13:45:14Z</time>
      </trkpt>
      <trkpt lat="44.14534" lon="6.95299">
        <ele>2602</ele>
        <time>2012-03-03T13:45:30Z</time>
      </trkpt>
      <trkpt lat="44.14525" lon="6.95298">
        <ele>2601</ele>
        <time>2012-03-03T13:45:38Z</time>
      </trkpt>
      <trkpt lat="44.14517" lon="6.95297">
        <ele>2601</ele>
        <time>2012-03-03T13:45:46Z</time>
      </trkpt>
      <trkpt lat="44.14508" lon="6.95295">
        <ele>2597</ele>
        <time>2012-03-03T13:45:54Z</time>
      </trkpt>
      <trkpt lat="44.145" lon="6.9529">
        <ele>2595</ele>
        <time>2012-03-03T13:46:01Z</time>
      </trkpt>
      <trkpt lat="44.14493" lon="6.95288">
        <ele>2594</ele>
        <time>2012-03-03T13:46:07Z</time>
      </trkpt>
      <trkpt lat="44.14485" lon="6.95287">
        <ele>2596</ele>
        <time>2012-03-03T13:46:14Z</time>
      </trkpt>
      <trkpt lat="44.14484" lon="6.95287">
        <ele>2596</ele>
        <time>2012-03-03T13:46:15Z</time>
      </trkpt>
      <trkpt lat="44.14468" lon="6.95285">
        <ele>2596</ele>
        <time>2012-03-03T13:46:29Z</time>
      </trkpt>
      <trkpt lat="44.1446" lon="6.95282">
        <ele>2596</ele>
        <time>2012-03-03T13:46:35Z</time>
      </trkpt>
      <trkpt lat="44.14452" lon="6.95281">
        <ele>2596</ele>
        <time>2012-03-03T13:46:42Z</time>
      </trkpt>
      <trkpt lat="44.14444" lon="6.95278">
        <ele>2595</ele>
        <time>2012-03-03T13:46:49Z</time>
      </trkpt>
      <trkpt lat="44.14435" lon="6.95278">
        <ele>2594</ele>
        <time>2012-03-03T13:47:02Z</time>
      </trkpt>
      <trkpt lat="44.14427" lon="6.9528">
        <ele>2589</ele>
        <time>2012-03-03T13:48:02Z</time>
      </trkpt>
      <trkpt lat="44.14426" lon="6.9528">
        <ele>2590</ele>
        <time>2012-03-03T13:48:03Z</time>
      </trkpt>
      <trkpt lat="44.14417" lon="6.953">
        <ele>2577</ele>
        <time>2012-03-03T13:48:34Z</time>
      </trkpt>
      <trkpt lat="44.14413" lon="6.9531">
        <ele>2573</ele>
        <time>2012-03-03T13:48:46Z</time>
      </trkpt>
      <trkpt lat="44.14405" lon="6.95316">
        <ele>2568</ele>
        <time>2012-03-03T13:48:56Z</time>
      </trkpt>
      <trkpt lat="44.14399" lon="6.95323">
        <ele>2565</ele>
        <time>2012-03-03T13:49:10Z</time>
      </trkpt>
      <trkpt lat="44.14398" lon="6.95323">
        <ele>2565</ele>
        <time>2012-03-03T13:49:11Z</time>
      </trkpt>
      <trkpt lat="44.14384" lon="6.95335">
        <ele>2557</ele>
        <time>2012-03-03T13:49:44Z</time>
      </trkpt>
      <trkpt lat="44.14378" lon="6.95344">
        <ele>2551</ele>
        <time>2012-03-03T13:50:00Z</time>
      </trkpt>
      <trkpt lat="44.14371" lon="6.95351">
        <ele>2549</ele>
        <time>2012-03-03T13:50:14Z</time>
      </trkpt>
      <trkpt lat="44.14371" lon="6.95351">
        <ele>2548</ele>
        <time>2012-03-03T13:50:15Z</time>
      </trkpt>
      <trkpt lat="44.14356" lon="6.95363">
        <ele>2540</ele>
        <time>2012-03-03T13:50:38Z</time>
      </trkpt>
      <trkpt lat="44.14352" lon="6.95374">
        <ele>2537</ele>
        <time>2012-03-03T13:50:48Z</time>
      </trkpt>
      <trkpt lat="44.14347" lon="6.95384">
        <ele>2532</ele>
        <time>2012-03-03T13:50:59Z</time>
      </trkpt>
      <trkpt lat="44.14339" lon="6.9539">
        <ele>2531</ele>
        <time>2012-03-03T13:51:12Z</time>
      </trkpt>
      <trkpt lat="44.14332" lon="6.95397">
        <ele>2527</ele>
        <time>2012-03-03T13:51:23Z</time>
      </trkpt>
      <trkpt lat="44.14332" lon="6.95398">
        <ele>2527</ele>
        <time>2012-03-03T13:51:24Z</time>
      </trkpt>
      <trkpt lat="44.14319" lon="6.95413">
        <ele>2521</ele>
        <time>2012-03-03T13:51:49Z</time>
      </trkpt>
      <trkpt lat="44.14313" lon="6.95421">
        <ele>2522</ele>
        <time>2012-03-03T13:52:02Z</time>
      </trkpt>
      <trkpt lat="44.14309" lon="6.95432">
        <ele>2522</ele>
        <time>2012-03-03T13:52:14Z</time>
      </trkpt>
      <trkpt lat="44.14305" lon="6.95443">
        <ele>2520</ele>
        <time>2012-03-03T13:52:26Z</time>
      </trkpt>
      <trkpt lat="44.14304" lon="6.95444">
        <ele>2520</ele>
        <time>2012-03-03T13:52:27Z</time>
      </trkpt>
      <trkpt lat="44.14292" lon="6.95458">
        <ele>2515</ele>
        <time>2012-03-03T13:52:44Z</time>
      </trkpt>
      <trkpt lat="44.14285" lon="6.95464">
        <ele>2512</ele>
        <time>2012-03-03T13:52:53Z</time>
      </trkpt>
      <trkpt lat="44.1428" lon="6.95473">
        <ele>2513</ele>
        <time>2012-03-03T13:53:03Z</time>
      </trkpt>
      <trkpt lat="44.14277" lon="6.95484">
        <ele>2507</ele>
        <time>2012-03-03T13:53:11Z</time>
      </trkpt>
      <trkpt lat="44.14273" lon="6.95495">
        <ele>2503</ele>
        <time>2012-03-03T13:53:17Z</time>
      </trkpt>
      <trkpt lat="44.14266" lon="6.95502">
        <ele>2496</ele>
        <time>2012-03-03T13:53:23Z</time>
      </trkpt>
      <trkpt lat="44.1426" lon="6.95509">
        <ele>2497</ele>
        <time>2012-03-03T13:53:30Z</time>
      </trkpt>
      <trkpt lat="44.14259" lon="6.95511">
        <ele>2497</ele>
        <time>2012-03-03T13:53:31Z</time>
      </trkpt>
      <trkpt lat="44.14249" lon="6.95527">
        <ele>2501</ele>
        <time>2012-03-03T13:53:45Z</time>
      </trkpt>
      <trkpt lat="44.14241" lon="6.95531">
        <ele>2502</ele>
        <time>2012-03-03T13:53:53Z</time>
      </trkpt>
      <trkpt lat="44.14236" lon="6.95541">
        <ele>2502</ele>
        <time>2012-03-03T13:54:02Z</time>
      </trkpt>
      <trkpt lat="44.14233" lon="6.95553">
        <ele>2498</ele>
        <time>2012-03-03T13:54:10Z</time>
      </trkpt>
      <trkpt lat="44.14229" lon="6.95564">
        <ele>2494</ele>
        <time>2012-03-03T13:54:19Z</time>
      </trkpt>
      <trkpt lat="44.14224" lon="6.95573">
        <ele>2491</ele>
        <time>2012-03-03T13:54:27Z</time>
      </trkpt>
      <trkpt lat="44.14218" lon="6.95581">
        <ele>2490</ele>
        <time>2012-03-03T13:54:35Z</time>
      </trkpt>
      <trkpt lat="44.14217" lon="6.95582">
        <ele>2490</ele>
        <time>2012-03-03T13:54:36Z</time>
      </trkpt>
      <trkpt lat="44.14203" lon="6.95592">
        <ele>2485</ele>
        <time>2012-03-03T13:54:48Z</time>
      </trkpt>
      <trkpt lat="44.14197" lon="6.95601">
        <ele>2482</ele>
        <time>2012-03-03T13:54:55Z</time>
      </trkpt>
      <trkpt lat="44.14194" lon="6.95612">
        <ele>2480</ele>
        <time>2012-03-03T13:55:02Z</time>
      </trkpt>
      <trkpt lat="44.14191" lon="6.95622">
        <ele>2480</ele>
        <time>2012-03-03T13:55:09Z</time>
      </trkpt>
      <trkpt lat="44.14185" lon="6.9563">
        <ele>2475</ele>
        <time>2012-03-03T13:55:16Z</time>
      </trkpt>
      <trkpt lat="44.1418" lon="6.9564">
        <ele>2475</ele>
        <time>2012-03-03T13:55:23Z</time>
      </trkpt>
      <trkpt lat="44.14176" lon="6.95649">
        <ele>2475</ele>
        <time>2012-03-03T13:55:31Z</time>
      </trkpt>
      <trkpt lat="44.14171" lon="6.95658">
        <ele>2472</ele>
        <time>2012-03-03T13:55:38Z</time>
      </trkpt>
      <trkpt lat="44.1417" lon="6.9566">
        <ele>2471</ele>
        <time>2012-03-03T13:55:39Z</time>
      </trkpt>
      <trkpt lat="44.14164" lon="6.95679">
        <ele>2469</ele>
        <time>2012-03-03T13:55:56Z</time>
      </trkpt>
      <trkpt lat="44.14163" lon="6.95691">
        <ele>2465</ele>
        <time>2012-03-03T13:56:02Z</time>
      </trkpt>
      <trkpt lat="44.14164" lon="6.95703">
        <ele>2464</ele>
        <time>2012-03-03T13:56:17Z</time>
      </trkpt>
      <trkpt lat="44.14161" lon="6.95714">
        <ele>2459</ele>
        <time>2012-03-03T13:56:24Z</time>
      </trkpt>
      <trkpt lat="44.1416" lon="6.95727">
        <ele>2458</ele>
        <time>2012-03-03T13:56:33Z</time>
      </trkpt>
      <trkpt lat="44.14157" lon="6.95738">
        <ele>2455</ele>
        <time>2012-03-03T13:56:40Z</time>
      </trkpt>
      <trkpt lat="44.14157" lon="6.95739">
        <ele>2455</ele>
        <time>2012-03-03T13:56:41Z</time>
      </trkpt>
      <trkpt lat="44.14155" lon="6.95761">
        <ele>2448</ele>
        <time>2012-03-03T13:56:53Z</time>
      </trkpt>
      <trkpt lat="44.14155" lon="6.95773">
        <ele>2445</ele>
        <time>2012-03-03T13:57:02Z</time>
      </trkpt>
      <trkpt lat="44.14153" lon="6.95784">
        <ele>2445</ele>
        <time>2012-03-03T13:57:10Z</time>
      </trkpt>
      <trkpt lat="44.14149" lon="6.95795">
        <ele>2446</ele>
        <time>2012-03-03T13:57:18Z</time>
      </trkpt>
      <trkpt lat="44.14149" lon="6.95807">
        <ele>2447</ele>
        <time>2012-03-03T13:57:25Z</time>
      </trkpt>
      <trkpt lat="44.14148" lon="6.95818">
        <ele>2446</ele>
        <time>2012-03-03T13:57:34Z</time>
      </trkpt>
      <trkpt lat="44.14146" lon="6.9583">
        <ele>2440</ele>
        <time>2012-03-03T13:58:33Z</time>
      </trkpt>
      <trkpt lat="44.14143" lon="6.95829">
        <ele>2440</ele>
        <time>2012-03-03T13:58:34Z</time>
      </trkpt>
      <trkpt lat="44.14137" lon="6.95825">
        <ele>2443</ele>
        <time>2012-03-03T14:32:01Z</time>
      </trkpt>
      <trkpt lat="44.14121" lon="6.95823">
        <ele>2445</ele>
        <time>2012-03-03T14:32:22Z</time>
      </trkpt>
      <trkpt lat="44.14112" lon="6.95823">
        <ele>2443</ele>
        <time>2012-03-03T14:32:33Z</time>
      </trkpt>
      <trkpt lat="44.14105" lon="6.95831">
        <ele>2442</ele>
        <time>2012-03-03T14:32:51Z</time>
      </trkpt>
      <trkpt lat="44.14098" lon="6.95838">
        <ele>2441</ele>
        <time>2012-03-03T14:32:59Z</time>
      </trkpt>
      <trkpt lat="44.14094" lon="6.95848">
        <ele>2441</ele>
        <time>2012-03-03T14:33:06Z</time>
      </trkpt>
      <trkpt lat="44.14093" lon="6.95849">
        <ele>2441</ele>
        <time>2012-03-03T14:33:07Z</time>
      </trkpt>
      <trkpt lat="44.1408" lon="6.95861">
        <ele>2446</ele>
        <time>2012-03-03T14:33:18Z</time>
      </trkpt>
      <trkpt lat="44.14075" lon="6.9587">
        <ele>2446</ele>
        <time>2012-03-03T14:33:26Z</time>
      </trkpt>
      <trkpt lat="44.14068" lon="6.95879">
        <ele>2445</ele>
        <time>2012-03-03T14:33:34Z</time>
      </trkpt>
      <trkpt lat="44.14064" lon="6.95889">
        <ele>2444</ele>
        <time>2012-03-03T14:33:46Z</time>
      </trkpt>
      <trkpt lat="44.14062" lon="6.959">
        <ele>2442</ele>
        <time>2012-03-03T14:33:55Z</time>
      </trkpt>
      <trkpt lat="44.14057" lon="6.9591">
        <ele>2441</ele>
        <time>2012-03-03T14:34:02Z</time>
      </trkpt>
      <trkpt lat="44.14052" lon="6.9592">
        <ele>2443</ele>
        <time>2012-03-03T14:34:21Z</time>
      </trkpt>
      <trkpt lat="44.14052" lon="6.95923">
        <ele>2443</ele>
        <time>2012-03-03T14:34:22Z</time>
      </trkpt>
      <trkpt lat="44.14042" lon="6.95938">
        <ele>2442</ele>
        <time>2012-03-03T14:34:32Z</time>
      </trkpt>
      <trkpt lat="44.14038" lon="6.95949">
        <ele>2442</ele>
        <time>2012-03-03T14:34:39Z</time>
      </trkpt>
      <trkpt lat="44.14034" lon="6.95959">
        <ele>2441</ele>
        <time>2012-03-03T14:34:47Z</time>
      </trkpt>
      <trkpt lat="44.14027" lon="6.95967">
        <ele>2442</ele>
        <time>2012-03-03T14:34:53Z</time>
      </trkpt>
      <trkpt lat="44.14023" lon="6.95978">
        <ele>2441</ele>
        <time>2012-03-03T14:35:01Z</time>
      </trkpt>
      <trkpt lat="44.14025" lon="6.95989">
        <ele>2439</ele>
        <time>2012-03-03T14:35:11Z</time>
      </trkpt>
      <trkpt lat="44.14022" lon="6.96001">
        <ele>2439</ele>
        <time>2012-03-03T14:35:18Z</time>
      </trkpt>
      <trkpt lat="44.14017" lon="6.9601">
        <ele>2440</ele>
        <time>2012-03-03T14:35:23Z</time>
      </trkpt>
      <trkpt lat="44.14016" lon="6.96013">
        <ele>2441</ele>
        <time>2012-03-03T14:35:24Z</time>
      </trkpt>
      <trkpt lat="44.14007" lon="6.9603">
        <ele>2445</ele>
        <time>2012-03-03T14:35:36Z</time>
      </trkpt>
      <trkpt lat="44.14006" lon="6.96043">
        <ele>2444</ele>
        <time>2012-03-03T14:35:43Z</time>
      </trkpt>
      <trkpt lat="44.14003" lon="6.96054">
        <ele>2443</ele>
        <time>2012-03-03T14:35:58Z</time>
      </trkpt>
      <trkpt lat="44.14" lon="6.96065">
        <ele>2444</ele>
        <time>2012-03-03T14:36:04Z</time>
      </trkpt>
      <trkpt lat="44.13996" lon="6.96075">
        <ele>2441</ele>
        <time>2012-03-03T14:36:12Z</time>
      </trkpt>
      <trkpt lat="44.13991" lon="6.96085">
        <ele>2441</ele>
        <time>2012-03-03T14:36:19Z</time>
      </trkpt>
      <trkpt lat="44.13987" lon="6.96095">
        <ele>2443</ele>
        <time>2012-03-03T14:36:25Z</time>
      </trkpt>
      <trkpt lat="44.13986" lon="6.96097">
        <ele>2443</ele>
        <time>2012-03-03T14:36:26Z</time>
      </trkpt>
      <trkpt lat="44.13979" lon="6.96115">
        <ele>2445</ele>
        <time>2012-03-03T14:36:39Z</time>
      </trkpt>
      <trkpt lat="44.13974" lon="6.96125">
        <ele>2445</ele>
        <time>2012-03-03T14:36:47Z</time>
      </trkpt>
      <trkpt lat="44.13972" lon="6.96136">
        <ele>2444</ele>
        <time>2012-03-03T14:36:55Z</time>
      </trkpt>
      <trkpt lat="44.13969" lon="6.96146">
        <ele>2444</ele>
        <time>2012-03-03T14:37:01Z</time>
      </trkpt>
      <trkpt lat="44.13964" lon="6.96156">
        <ele>2445</ele>
        <time>2012-03-03T14:37:08Z</time>
      </trkpt>
      <trkpt lat="44.1396" lon="6.96166">
        <ele>2445</ele>
        <time>2012-03-03T14:37:16Z</time>
      </trkpt>
      <trkpt lat="44.13958" lon="6.96177">
        <ele>2445</ele>
        <time>2012-03-03T14:37:25Z</time>
      </trkpt>
      <trkpt lat="44.13955" lon="6.96189">
        <ele>2443</ele>
        <time>2012-03-03T14:37:33Z</time>
      </trkpt>
      <trkpt lat="44.13955" lon="6.96191">
        <ele>2443</ele>
        <time>2012-03-03T14:37:34Z</time>
      </trkpt>
      <trkpt lat="44.13947" lon="6.96209">
        <ele>2442</ele>
        <time>2012-03-03T14:37:46Z</time>
      </trkpt>
      <trkpt lat="44.13943" lon="6.9622">
        <ele>2444</ele>
        <time>2012-03-03T14:37:52Z</time>
      </trkpt>
      <trkpt lat="44.13939" lon="6.9623">
        <ele>2445</ele>
        <time>2012-03-03T14:37:59Z</time>
      </trkpt>
      <trkpt lat="44.13935" lon="6.96239">
        <ele>2449</ele>
        <time>2012-03-03T14:38:04Z</time>
      </trkpt>
      <trkpt lat="44.13931" lon="6.9625">
        <ele>2448</ele>
        <time>2012-03-03T14:38:11Z</time>
      </trkpt>
      <trkpt lat="44.1393" lon="6.96261">
        <ele>2448</ele>
        <time>2012-03-03T14:38:19Z</time>
      </trkpt>
      <trkpt lat="44.13926" lon="6.96272">
        <ele>2446</ele>
        <time>2012-03-03T14:38:27Z</time>
      </trkpt>
      <trkpt lat="44.13919" lon="6.96277">
        <ele>2446</ele>
        <time>2012-03-03T14:38:33Z</time>
      </trkpt>
      <trkpt lat="44.13916" lon="6.96287">
        <ele>2445</ele>
        <time>2012-03-03T14:38:40Z</time>
      </trkpt>
      <trkpt lat="44.13917" lon="6.96289">
        <ele>2446</ele>
        <time>2012-03-03T14:38:41Z</time>
      </trkpt>
      <trkpt lat="44.13913" lon="6.9631">
        <ele>2445</ele>
        <time>2012-03-03T14:38:53Z</time>
      </trkpt>
      <trkpt lat="44.13906" lon="6.96318">
        <ele>2448</ele>
        <time>2012-03-03T14:38:59Z</time>
      </trkpt>
      <trkpt lat="44.13899" lon="6.96325">
        <ele>2448</ele>
        <time>2012-03-03T14:39:06Z</time>
      </trkpt>
      <trkpt lat="44.13895" lon="6.96335">
        <ele>2448</ele>
        <time>2012-03-03T14:39:13Z</time>
      </trkpt>
      <trkpt lat="44.13893" lon="6.96347">
        <ele>2448</ele>
        <time>2012-03-03T14:39:20Z</time>
      </trkpt>
      <trkpt lat="44.13888" lon="6.96356">
        <ele>2447</ele>
        <time>2012-03-03T14:39:27Z</time>
      </trkpt>
      <trkpt lat="44.13884" lon="6.96367">
        <ele>2443</ele>
        <time>2012-03-03T14:39:34Z</time>
      </trkpt>
      <trkpt lat="44.1388" lon="6.96378">
        <ele>2444</ele>
        <time>2012-03-03T14:39:41Z</time>
      </trkpt>
      <trkpt lat="44.13879" lon="6.96379">
        <ele>2444</ele>
        <time>2012-03-03T14:39:42Z</time>
      </trkpt>
      <trkpt lat="44.13865" lon="6.96388">
        <ele>2450</ele>
        <time>2012-03-03T14:39:56Z</time>
      </trkpt>
      <trkpt lat="44.13857" lon="6.96387">
        <ele>2450</ele>
        <time>2012-03-03T14:40:03Z</time>
      </trkpt>
      <trkpt lat="44.13849" lon="6.9639">
        <ele>2448</ele>
        <time>2012-03-03T14:40:11Z</time>
      </trkpt>
      <trkpt lat="44.1384" lon="6.96392">
        <ele>2447</ele>
        <time>2012-03-03T14:40:19Z</time>
      </trkpt>
      <trkpt lat="44.13832" lon="6.96393">
        <ele>2449</ele>
        <time>2012-03-03T14:40:26Z</time>
      </trkpt>
      <trkpt lat="44.13825" lon="6.96396">
        <ele>2449</ele>
        <time>2012-03-03T14:40:33Z</time>
      </trkpt>
      <trkpt lat="44.13816" lon="6.96397">
        <ele>2450</ele>
        <time>2012-03-03T14:40:40Z</time>
      </trkpt>
      <trkpt lat="44.13807" lon="6.964">
        <ele>2451</ele>
        <time>2012-03-03T14:40:47Z</time>
      </trkpt>
      <trkpt lat="44.13806" lon="6.96401">
        <ele>2451</ele>
        <time>2012-03-03T14:40:48Z</time>
      </trkpt>
      <trkpt lat="44.13791" lon="6.96406">
        <ele>2452</ele>
        <time>2012-03-03T14:41:04Z</time>
      </trkpt>
      <trkpt lat="44.13783" lon="6.96408">
        <ele>2455</ele>
        <time>2012-03-03T14:41:10Z</time>
      </trkpt>
      <trkpt lat="44.13774" lon="6.9641">
        <ele>2455</ele>
        <time>2012-03-03T14:41:17Z</time>
      </trkpt>
      <trkpt lat="44.13766" lon="6.96413">
        <ele>2453</ele>
        <time>2012-03-03T14:41:24Z</time>
      </trkpt>
      <trkpt lat="44.13757" lon="6.96416">
        <ele>2453</ele>
        <time>2012-03-03T14:41:31Z</time>
      </trkpt>
      <trkpt lat="44.13749" lon="6.96419">
        <ele>2455</ele>
        <time>2012-03-03T14:41:37Z</time>
      </trkpt>
      <trkpt lat="44.13741" lon="6.96422">
        <ele>2458</ele>
        <time>2012-03-03T14:41:43Z</time>
      </trkpt>
      <trkpt lat="44.13733" lon="6.9642">
        <ele>2458</ele>
        <time>2012-03-03T14:41:49Z</time>
      </trkpt>
      <trkpt lat="44.13732" lon="6.9642">
        <ele>2458</ele>
        <time>2012-03-03T14:41:50Z</time>
      </trkpt>
      <trkpt lat="44.13717" lon="6.9641">
        <ele>2459</ele>
        <time>2012-03-03T14:42:04Z</time>
      </trkpt>
      <trkpt lat="44.1371" lon="6.96403">
        <ele>2456</ele>
        <time>2012-03-03T14:42:11Z</time>
      </trkpt>
      <trkpt lat="44.13703" lon="6.96395">
        <ele>2456</ele>
        <time>2012-03-03T14:42:19Z</time>
      </trkpt>
      <trkpt lat="44.13697" lon="6.96386">
        <ele>2458</ele>
        <time>2012-03-03T14:42:26Z</time>
      </trkpt>
      <trkpt lat="44.13689" lon="6.96382">
        <ele>2459</ele>
        <time>2012-03-03T14:42:36Z</time>
      </trkpt>
      <trkpt lat="44.13682" lon="6.96387">
        <ele>2454</ele>
        <time>2012-03-03T14:43:24Z</time>
      </trkpt>
      <trkpt lat="44.13682" lon="6.96389">
        <ele>2452</ele>
        <time>2012-03-03T14:43:25Z</time>
      </trkpt>
      <trkpt lat="44.13678" lon="6.96411">
        <ele>2450</ele>
        <time>2012-03-03T14:43:44Z</time>
      </trkpt>
      <trkpt lat="44.13673" lon="6.9642">
        <ele>2452</ele>
        <time>2012-03-03T14:43:54Z</time>
      </trkpt>
      <trkpt lat="44.13667" lon="6.96429">
        <ele>2450</ele>
        <time>2012-03-03T14:44:03Z</time>
      </trkpt>
      <trkpt lat="44.13662" lon="6.96439">
        <ele>2451</ele>
        <time>2012-03-03T14:44:12Z</time>
      </trkpt>
      <trkpt lat="44.13658" lon="6.9645">
        <ele>2451</ele>
        <time>2012-03-03T14:44:21Z</time>
      </trkpt>
      <trkpt lat="44.13651" lon="6.96456">
        <ele>2445</ele>
        <time>2012-03-03T14:44:37Z</time>
      </trkpt>
      <trkpt lat="44.1365" lon="6.96457">
        <ele>2446</ele>
        <time>2012-03-03T14:44:38Z</time>
      </trkpt>
      <trkpt lat="44.13638" lon="6.96472">
        <ele>2443</ele>
        <time>2012-03-03T14:45:04Z</time>
      </trkpt>
      <trkpt lat="44.13633" lon="6.96481">
        <ele>2441</ele>
        <time>2012-03-03T14:45:14Z</time>
      </trkpt>
      <trkpt lat="44.13629" lon="6.96491">
        <ele>2439</ele>
        <time>2012-03-03T14:45:23Z</time>
      </trkpt>
      <trkpt lat="44.13623" lon="6.965">
        <ele>2436</ele>
        <time>2012-03-03T14:45:31Z</time>
      </trkpt>
      <trkpt lat="44.13617" lon="6.96508">
        <ele>2435</ele>
        <time>2012-03-03T14:45:41Z</time>
      </trkpt>
      <trkpt lat="44.13616" lon="6.96508">
        <ele>2435</ele>
        <time>2012-03-03T14:45:42Z</time>
      </trkpt>
      <trkpt lat="44.13601" lon="6.96518">
        <ele>2433</ele>
        <time>2012-03-03T14:46:05Z</time>
      </trkpt>
      <trkpt lat="44.13593" lon="6.96522">
        <ele>2432</ele>
        <time>2012-03-03T14:46:18Z</time>
      </trkpt>
      <trkpt lat="44.13586" lon="6.96529">
        <ele>2432</ele>
        <time>2012-03-03T14:46:28Z</time>
      </trkpt>
      <trkpt lat="44.13578" lon="6.96536">
        <ele>2434</ele>
        <time>2012-03-03T14:46:37Z</time>
      </trkpt>
      <trkpt lat="44.13571" lon="6.96541">
        <ele>2433</ele>
        <time>2012-03-03T14:46:44Z</time>
      </trkpt>
      <trkpt lat="44.1357" lon="6.96542">
        <ele>2433</ele>
        <time>2012-03-03T14:46:45Z</time>
      </trkpt>
      <trkpt lat="44.13555" lon="6.96552">
        <ele>2430</ele>
        <time>2012-03-03T14:47:02Z</time>
      </trkpt>
      <trkpt lat="44.13547" lon="6.9655">
        <ele>2430</ele>
        <time>2012-03-03T14:47:10Z</time>
      </trkpt>
      <trkpt lat="44.1354" lon="6.96557">
        <ele>2427</ele>
        <time>2012-03-03T14:47:21Z</time>
      </trkpt>
      <trkpt lat="44.13533" lon="6.96563">
        <ele>2427</ele>
        <time>2012-03-03T14:47:28Z</time>
      </trkpt>
      <trkpt lat="44.13524" lon="6.96566">
        <ele>2425</ele>
        <time>2012-03-03T14:47:36Z</time>
      </trkpt>
      <trkpt lat="44.13515" lon="6.96567">
        <ele>2424</ele>
        <time>2012-03-03T14:47:51Z</time>
      </trkpt>
      <trkpt lat="44.13514" lon="6.96568">
        <ele>2424</ele>
        <time>2012-03-03T14:47:52Z</time>
      </trkpt>
      <trkpt lat="44.13498" lon="6.9657">
        <ele>2420</ele>
        <time>2012-03-03T14:48:05Z</time>
      </trkpt>
      <trkpt lat="44.13489" lon="6.96567">
        <ele>2419</ele>
        <time>2012-03-03T14:48:13Z</time>
      </trkpt>
      <trkpt lat="44.13482" lon="6.96563">
        <ele>2416</ele>
        <time>2012-03-03T14:48:21Z</time>
      </trkpt>
      <trkpt lat="44.13475" lon="6.96556">
        <ele>2415</ele>
        <time>2012-03-03T14:48:30Z</time>
      </trkpt>
      <trkpt lat="44.13467" lon="6.96552">
        <ele>2416</ele>
        <time>2012-03-03T14:49:27Z</time>
      </trkpt>
      <trkpt lat="44.13466" lon="6.96551">
        <ele>2416</ele>
        <time>2012-03-03T14:49:28Z</time>
      </trkpt>
      <trkpt lat="44.13451" lon="6.96544">
        <ele>2420</ele>
        <time>2012-03-03T14:49:49Z</time>
      </trkpt>
      <trkpt lat="44.13444" lon="6.96537">
        <ele>2419</ele>
        <time>2012-03-03T14:50:00Z</time>
      </trkpt>
      <trkpt lat="44.13435" lon="6.96534">
        <ele>2420</ele>
        <time>2012-03-03T14:50:09Z</time>
      </trkpt>
      <trkpt lat="44.13426" lon="6.96536">
        <ele>2419</ele>
        <time>2012-03-03T14:50:27Z</time>
      </trkpt>
      <trkpt lat="44.13418" lon="6.96535">
        <ele>2419</ele>
        <time>2012-03-03T14:50:34Z</time>
      </trkpt>
      <trkpt lat="44.13416" lon="6.96536">
        <ele>2419</ele>
        <time>2012-03-03T14:50:35Z</time>
      </trkpt>
      <trkpt lat="44.13401" lon="6.96541">
        <ele>2421</ele>
        <time>2012-03-03T14:51:01Z</time>
      </trkpt>
      <trkpt lat="44.13392" lon="6.9654">
        <ele>2418</ele>
        <time>2012-03-03T14:51:11Z</time>
      </trkpt>
      <trkpt lat="44.13384" lon="6.9654">
        <ele>2417</ele>
        <time>2012-03-03T14:51:21Z</time>
      </trkpt>
      <trkpt lat="44.13375" lon="6.9654">
        <ele>2416</ele>
        <time>2012-03-03T14:51:32Z</time>
      </trkpt>
      <trkpt lat="44.13366" lon="6.9654">
        <ele>2416</ele>
        <time>2012-03-03T14:53:05Z</time>
      </trkpt>
      <trkpt lat="44.13366" lon="6.9654">
        <ele>2415</ele>
        <time>2012-03-03T14:53:06Z</time>
      </trkpt>
      <trkpt lat="44.13352" lon="6.96554">
        <ele>2412</ele>
        <time>2012-03-03T14:54:10Z</time>
      </trkpt>
      <trkpt lat="44.13352" lon="6.96555">
        <ele>2412</ele>
        <time>2012-03-03T14:54:11Z</time>
      </trkpt>
      <trkpt lat="44.13345" lon="6.96576">
        <ele>2402</ele>
        <time>2012-03-03T14:54:33Z</time>
      </trkpt>
      <trkpt lat="44.13342" lon="6.96588">
        <ele>2401</ele>
        <time>2012-03-03T14:54:44Z</time>
      </trkpt>
      <trkpt lat="44.13342" lon="6.966">
        <ele>2402</ele>
        <time>2012-03-03T14:54:54Z</time>
      </trkpt>
      <trkpt lat="44.13339" lon="6.96611">
        <ele>2403</ele>
        <time>2012-03-03T14:55:01Z</time>
      </trkpt>
      <trkpt lat="44.13337" lon="6.96623">
        <ele>2404</ele>
        <time>2012-03-03T14:55:09Z</time>
      </trkpt>
      <trkpt lat="44.13339" lon="6.96634">
        <ele>2401</ele>
        <time>2012-03-03T14:55:17Z</time>
      </trkpt>
      <trkpt lat="44.1334" lon="6.96635">
        <ele>2402</ele>
        <time>2012-03-03T14:55:18Z</time>
      </trkpt>
      <trkpt lat="44.1334" lon="6.96657">
        <ele>2398</ele>
        <time>2012-03-03T14:55:35Z</time>
      </trkpt>
      <trkpt lat="44.13342" lon="6.96669">
        <ele>2397</ele>
        <time>2012-03-03T14:55:44Z</time>
      </trkpt>
      <trkpt lat="44.13343" lon="6.96681">
        <ele>2395</ele>
        <time>2012-03-03T14:55:53Z</time>
      </trkpt>
      <trkpt lat="44.1334" lon="6.96692">
        <ele>2392</ele>
        <time>2012-03-03T14:56:04Z</time>
      </trkpt>
      <trkpt lat="44.13333" lon="6.96699">
        <ele>2394</ele>
        <time>2012-03-03T14:56:10Z</time>
      </trkpt>
      <trkpt lat="44.13324" lon="6.96697">
        <ele>2394</ele>
        <time>2012-03-03T14:56:19Z</time>
      </trkpt>
      <trkpt lat="44.13324" lon="6.96697">
        <ele>2393</ele>
        <time>2012-03-03T14:56:20Z</time>
      </trkpt>
      <trkpt lat="44.1332" lon="6.9672">
        <ele>2387</ele>
        <time>2012-03-03T14:56:46Z</time>
      </trkpt>
      <trkpt lat="44.13316" lon="6.9673">
        <ele>2385</ele>
        <time>2012-03-03T14:56:57Z</time>
      </trkpt>
      <trkpt lat="44.13311" lon="6.96739">
        <ele>2382</ele>
        <time>2012-03-03T14:57:07Z</time>
      </trkpt>
      <trkpt lat="44.13303" lon="6.96746">
        <ele>2376</ele>
        <time>2012-03-03T14:57:19Z</time>
      </trkpt>
      <trkpt lat="44.13295" lon="6.96751">
        <ele>2370</ele>
        <time>2012-03-03T14:57:31Z</time>
      </trkpt>
      <trkpt lat="44.13295" lon="6.96751">
        <ele>2370</ele>
        <time>2012-03-03T14:57:32Z</time>
      </trkpt>
      <trkpt lat="44.13291" lon="6.96774">
        <ele>2369</ele>
        <time>2012-03-03T14:57:45Z</time>
      </trkpt>
      <trkpt lat="44.13291" lon="6.96785">
        <ele>2364</ele>
        <time>2012-03-03T14:57:53Z</time>
      </trkpt>
      <trkpt lat="44.1329" lon="6.96797">
        <ele>2360</ele>
        <time>2012-03-03T14:58:01Z</time>
      </trkpt>
      <trkpt lat="44.13288" lon="6.96808">
        <ele>2357</ele>
        <time>2012-03-03T14:58:09Z</time>
      </trkpt>
      <trkpt lat="44.13286" lon="6.96819">
        <ele>2354</ele>
        <time>2012-03-03T14:58:16Z</time>
      </trkpt>
      <trkpt lat="44.13285" lon="6.9683">
        <ele>2350</ele>
        <time>2012-03-03T14:58:24Z</time>
      </trkpt>
      <trkpt lat="44.13282" lon="6.96842">
        <ele>2349</ele>
        <time>2012-03-03T14:58:31Z</time>
      </trkpt>
      <trkpt lat="44.13282" lon="6.96844">
        <ele>2349</ele>
        <time>2012-03-03T14:58:32Z</time>
      </trkpt>
      <trkpt lat="44.13275" lon="6.96863">
        <ele>2350</ele>
        <time>2012-03-03T14:58:47Z</time>
      </trkpt>
      <trkpt lat="44.13268" lon="6.96872">
        <ele>2347</ele>
        <time>2012-03-03T14:58:55Z</time>
      </trkpt>
      <trkpt lat="44.13265" lon="6.96882">
        <ele>2348</ele>
        <time>2012-03-03T14:59:02Z</time>
      </trkpt>
      <trkpt lat="44.13264" lon="6.96894">
        <ele>2345</ele>
        <time>2012-03-03T14:59:10Z</time>
      </trkpt>
      <trkpt lat="44.13262" lon="6.96905">
        <ele>2342</ele>
        <time>2012-03-03T14:59:20Z</time>
      </trkpt>
      <trkpt lat="44.13255" lon="6.96912">
        <ele>2340</ele>
        <time>2012-03-03T14:59:28Z</time>
      </trkpt>
      <trkpt lat="44.13247" lon="6.9691">
        <ele>2338</ele>
        <time>2012-03-03T14:59:35Z</time>
      </trkpt>
      <trkpt lat="44.13246" lon="6.9691">
        <ele>2338</ele>
        <time>2012-03-03T14:59:36Z</time>
      </trkpt>
      <trkpt lat="44.1323" lon="6.96906">
        <ele>2335</ele>
        <time>2012-03-03T14:59:54Z</time>
      </trkpt>
      <trkpt lat="44.1323" lon="6.96917">
        <ele>2330</ele>
        <time>2012-03-03T15:00:03Z</time>
      </trkpt>
      <trkpt lat="44.13229" lon="6.96929">
        <ele>2330</ele>
        <time>2012-03-03T15:00:12Z</time>
      </trkpt>
      <trkpt lat="44.13227" lon="6.96941">
        <ele>2326</ele>
        <time>2012-03-03T15:00:23Z</time>
      </trkpt>
      <trkpt lat="44.13225" lon="6.96953">
        <ele>2325</ele>
        <time>2012-03-03T15:00:32Z</time>
      </trkpt>
      <trkpt lat="44.1322" lon="6.96962">
        <ele>2324</ele>
        <time>2012-03-03T15:00:39Z</time>
      </trkpt>
      <trkpt lat="44.13219" lon="6.96963">
        <ele>2324</ele>
        <time>2012-03-03T15:00:40Z</time>
      </trkpt>
      <trkpt lat="44.13208" lon="6.96979">
        <ele>2319</ele>
        <time>2012-03-03T15:00:58Z</time>
      </trkpt>
      <trkpt lat="44.13206" lon="6.9699">
        <ele>2317</ele>
        <time>2012-03-03T15:01:07Z</time>
      </trkpt>
      <trkpt lat="44.13199" lon="6.96998">
        <ele>2313</ele>
        <time>2012-03-03T15:01:15Z</time>
      </trkpt>
      <trkpt lat="44.13193" lon="6.97006">
        <ele>2317</ele>
        <time>2012-03-03T15:01:24Z</time>
      </trkpt>
      <trkpt lat="44.13189" lon="6.97016">
        <ele>2313</ele>
        <time>2012-03-03T15:01:31Z</time>
      </trkpt>
      <trkpt lat="44.13183" lon="6.97025">
        <ele>2310</ele>
        <time>2012-03-03T15:01:39Z</time>
      </trkpt>
      <trkpt lat="44.13182" lon="6.97026">
        <ele>2311</ele>
        <time>2012-03-03T15:01:40Z</time>
      </trkpt>
      <trkpt lat="44.1317" lon="6.97039">
        <ele>2309</ele>
        <time>2012-03-03T15:01:57Z</time>
      </trkpt>
      <trkpt lat="44.13163" lon="6.97047">
        <ele>2304</ele>
        <time>2012-03-03T15:02:06Z</time>
      </trkpt>
      <trkpt lat="44.13157" lon="6.97056">
        <ele>2300</ele>
        <time>2012-03-03T15:02:14Z</time>
      </trkpt>
      <trkpt lat="44.13152" lon="6.97065">
        <ele>2297</ele>
        <time>2012-03-03T15:02:23Z</time>
      </trkpt>
      <trkpt lat="44.13147" lon="6.97074">
        <ele>2296</ele>
        <time>2012-03-03T15:02:33Z</time>
      </trkpt>
      <trkpt lat="44.13141" lon="6.97082">
        <ele>2293</ele>
        <time>2012-03-03T15:02:43Z</time>
      </trkpt>
      <trkpt lat="44.13141" lon="6.97083">
        <ele>2293</ele>
        <time>2012-03-03T15:02:44Z</time>
      </trkpt>
      <trkpt lat="44.13132" lon="6.97102">
        <ele>2291</ele>
        <time>2012-03-03T15:03:01Z</time>
      </trkpt>
      <trkpt lat="44.13126" lon="6.97111">
        <ele>2287</ele>
        <time>2012-03-03T15:03:11Z</time>
      </trkpt>
      <trkpt lat="44.13122" lon="6.97121">
        <ele>2287</ele>
        <time>2012-03-03T15:03:22Z</time>
      </trkpt>
      <trkpt lat="44.13116" lon="6.97128">
        <ele>2282</ele>
        <time>2012-03-03T15:03:31Z</time>
      </trkpt>
      <trkpt lat="44.1311" lon="6.97138">
        <ele>2281</ele>
        <time>2012-03-03T15:03:42Z</time>
      </trkpt>
      <trkpt lat="44.13106" lon="6.97149">
        <ele>2274</ele>
        <time>2012-03-03T15:03:54Z</time>
      </trkpt>
      <trkpt lat="44.13105" lon="6.9715">
        <ele>2274</ele>
        <time>2012-03-03T15:03:55Z</time>
      </trkpt>
      <trkpt lat="44.13098" lon="6.97153">
        <ele>2273</ele>
        <time>2012-03-03T15:04:43Z</time>
      </trkpt>
      <trkpt lat="44.13089" lon="6.97151">
        <ele>2269</ele>
        <time>2012-03-03T15:04:55Z</time>
      </trkpt>
      <trkpt lat="44.13088" lon="6.97151">
        <ele>2269</ele>
        <time>2012-03-03T15:04:56Z</time>
      </trkpt>
      <trkpt lat="44.13072" lon="6.97151">
        <ele>2258</ele>
        <time>2012-03-03T15:05:20Z</time>
      </trkpt>
      <trkpt lat="44.1307" lon="6.97161">
        <ele>2260</ele>
        <time>2012-03-03T15:05:26Z</time>
      </trkpt>
      <trkpt lat="44.13068" lon="6.97173">
        <ele>2258</ele>
        <time>2012-03-03T15:05:35Z</time>
      </trkpt>
      <trkpt lat="44.13061" lon="6.9718">
        <ele>2257</ele>
        <time>2012-03-03T15:05:46Z</time>
      </trkpt>
      <trkpt lat="44.1306" lon="6.97191">
        <ele>2253</ele>
        <time>2012-03-03T15:05:55Z</time>
      </trkpt>
      <trkpt lat="44.13059" lon="6.97192">
        <ele>2252</ele>
        <time>2012-03-03T15:05:56Z</time>
      </trkpt>
      <trkpt lat="44.13046" lon="6.97207">
        <ele>2248</ele>
        <time>2012-03-03T15:06:15Z</time>
      </trkpt>
      <trkpt lat="44.13039" lon="6.97201">
        <ele>2247</ele>
        <time>2012-03-03T15:06:21Z</time>
      </trkpt>
      <trkpt lat="44.13032" lon="6.97195">
        <ele>2245</ele>
        <time>2012-03-03T15:06:28Z</time>
      </trkpt>
      <trkpt lat="44.13024" lon="6.97192">
        <ele>2242</ele>
        <time>2012-03-03T15:06:38Z</time>
      </trkpt>
      <trkpt lat="44.13016" lon="6.97188">
        <ele>2239</ele>
        <time>2012-03-03T15:06:47Z</time>
      </trkpt>
      <trkpt lat="44.13008" lon="6.97186">
        <ele>2234</ele>
        <time>2012-03-03T15:06:55Z</time>
      </trkpt>
      <trkpt lat="44.13" lon="6.9718">
        <ele>2229</ele>
        <time>2012-03-03T15:07:06Z</time>
      </trkpt>
      <trkpt lat="44.12999" lon="6.9718">
        <ele>2229</ele>
        <time>2012-03-03T15:07:07Z</time>
      </trkpt>
      <trkpt lat="44.12983" lon="6.97172">
        <ele>2221</ele>
        <time>2012-03-03T15:07:32Z</time>
      </trkpt>
      <trkpt lat="44.12975" lon="6.97167">
        <ele>2219</ele>
        <time>2012-03-03T15:07:43Z</time>
      </trkpt>
      <trkpt lat="44.12967" lon="6.97168">
        <ele>2213</ele>
        <time>2012-03-03T15:07:54Z</time>
      </trkpt>
      <trkpt lat="44.12958" lon="6.97166">
        <ele>2211</ele>
        <time>2012-03-03T15:08:06Z</time>
      </trkpt>
      <trkpt lat="44.12957" lon="6.97166">
        <ele>2211</ele>
        <time>2012-03-03T15:08:07Z</time>
      </trkpt>
      <trkpt lat="44.12941" lon="6.9717">
        <ele>2206</ele>
        <time>2012-03-03T15:08:25Z</time>
      </trkpt>
      <trkpt lat="44.12933" lon="6.97173">
        <ele>2204</ele>
        <time>2012-03-03T15:08:34Z</time>
      </trkpt>
      <trkpt lat="44.12926" lon="6.97176">
        <ele>2201</ele>
        <time>2012-03-03T15:08:42Z</time>
      </trkpt>
      <trkpt lat="44.12917" lon="6.97176">
        <ele>2199</ele>
        <time>2012-03-03T15:08:51Z</time>
      </trkpt>
      <trkpt lat="44.12909" lon="6.97178">
        <ele>2197</ele>
        <time>2012-03-03T15:08:58Z</time>
      </trkpt>
      <trkpt lat="44.129" lon="6.97178">
        <ele>2194</ele>
        <time>2012-03-03T15:09:05Z</time>
      </trkpt>
      <trkpt lat="44.12892" lon="6.97181">
        <ele>2193</ele>
        <time>2012-03-03T15:09:14Z</time>
      </trkpt>
      <trkpt lat="44.12891" lon="6.97181">
        <ele>2193</ele>
        <time>2012-03-03T15:09:15Z</time>
      </trkpt>
      <trkpt lat="44.12875" lon="6.97182">
        <ele>2195</ele>
        <time>2012-03-03T15:09:28Z</time>
      </trkpt>
      <trkpt lat="44.12867" lon="6.97186">
        <ele>2194</ele>
        <time>2012-03-03T15:09:35Z</time>
      </trkpt>
      <trkpt lat="44.12859" lon="6.97187">
        <ele>2193</ele>
        <time>2012-03-03T15:09:44Z</time>
      </trkpt>
      <trkpt lat="44.12852" lon="6.97194">
        <ele>2189</ele>
        <time>2012-03-03T15:09:55Z</time>
      </trkpt>
      <trkpt lat="44.12844" lon="6.97193">
        <ele>2186</ele>
        <time>2012-03-03T15:10:04Z</time>
      </trkpt>
      <trkpt lat="44.12835" lon="6.97195">
        <ele>2179</ele>
        <time>2012-03-03T15:10:16Z</time>
      </trkpt>
      <trkpt lat="44.12835" lon="6.97196">
        <ele>2179</ele>
        <time>2012-03-03T15:10:17Z</time>
      </trkpt>
      <trkpt lat="44.12818" lon="6.97197">
        <ele>2170</ele>
        <time>2012-03-03T15:10:39Z</time>
      </trkpt>
      <trkpt lat="44.12813" lon="6.97206">
        <ele>2166</ele>
        <time>2012-03-03T15:10:52Z</time>
      </trkpt>
      <trkpt lat="44.12805" lon="6.97203">
        <ele>2163</ele>
        <time>2012-03-03T15:10:59Z</time>
      </trkpt>
      <trkpt lat="44.12797" lon="6.97198">
        <ele>2159</ele>
        <time>2012-03-03T15:11:08Z</time>
      </trkpt>
      <trkpt lat="44.12789" lon="6.97192">
        <ele>2157</ele>
        <time>2012-03-03T15:11:16Z</time>
      </trkpt>
      <trkpt lat="44.12782" lon="6.97186">
        <ele>2155</ele>
        <time>2012-03-03T15:11:24Z</time>
      </trkpt>
      <trkpt lat="44.12782" lon="6.97185">
        <ele>2154</ele>
        <time>2012-03-03T15:11:25Z</time>
      </trkpt>
      <trkpt lat="44.12767" lon="6.97177">
        <ele>2155</ele>
        <time>2012-03-03T15:11:44Z</time>
      </trkpt>
      <trkpt lat="44.1276" lon="6.97171">
        <ele>2155</ele>
        <time>2012-03-03T15:11:53Z</time>
      </trkpt>
      <trkpt lat="44.12753" lon="6.97165">
        <ele>2150</ele>
        <time>2012-03-03T15:12:02Z</time>
      </trkpt>
      <trkpt lat="44.12745" lon="6.97158">
        <ele>2147</ele>
        <time>2012-03-03T15:12:11Z</time>
      </trkpt>
      <trkpt lat="44.12737" lon="6.97154">
        <ele>2145</ele>
        <time>2012-03-03T15:12:19Z</time>
      </trkpt>
      <trkpt lat="44.1273" lon="6.97148">
        <ele>2144</ele>
        <time>2012-03-03T15:12:25Z</time>
      </trkpt>
      <trkpt lat="44.12729" lon="6.97147">
        <ele>2144</ele>
        <time>2012-03-03T15:12:26Z</time>
      </trkpt>
      <trkpt lat="44.12715" lon="6.97136">
        <ele>2145</ele>
        <time>2012-03-03T15:12:42Z</time>
      </trkpt>
      <trkpt lat="44.12707" lon="6.97131">
        <ele>2142</ele>
        <time>2012-03-03T15:12:53Z</time>
      </trkpt>
      <trkpt lat="44.12701" lon="6.97124">
        <ele>2139</ele>
        <time>2012-03-03T15:13:01Z</time>
      </trkpt>
      <trkpt lat="44.12695" lon="6.97115">
        <ele>2137</ele>
        <time>2012-03-03T15:13:09Z</time>
      </trkpt>
      <trkpt lat="44.12691" lon="6.97105">
        <ele>2135</ele>
        <time>2012-03-03T15:13:17Z</time>
      </trkpt>
      <trkpt lat="44.12686" lon="6.97095">
        <ele>2131</ele>
        <time>2012-03-03T15:13:29Z</time>
      </trkpt>
      <trkpt lat="44.12686" lon="6.97094">
        <ele>2131</ele>
        <time>2012-03-03T15:13:30Z</time>
      </trkpt>
      <trkpt lat="44.1268" lon="6.97073">
        <ele>2127</ele>
        <time>2012-03-03T15:13:45Z</time>
      </trkpt>
      <trkpt lat="44.12675" lon="6.97064">
        <ele>2125</ele>
        <time>2012-03-03T15:13:53Z</time>
      </trkpt>
      <trkpt lat="44.12674" lon="6.97075">
        <ele>2126</ele>
        <time>2012-03-03T15:14:07Z</time>
      </trkpt>
      <trkpt lat="44.12673" lon="6.97086">
        <ele>2126</ele>
        <time>2012-03-03T15:14:14Z</time>
      </trkpt>
      <trkpt lat="44.12672" lon="6.97099">
        <ele>2121</ele>
        <time>2012-03-03T15:14:25Z</time>
      </trkpt>
      <trkpt lat="44.12669" lon="6.9711">
        <ele>2110</ele>
        <time>2012-03-03T15:14:46Z</time>
      </trkpt>
      <trkpt lat="44.12669" lon="6.97111">
        <ele>2110</ele>
        <time>2012-03-03T15:14:47Z</time>
      </trkpt>
      <trkpt lat="44.12654" lon="6.9711">
        <ele>2111</ele>
        <time>2012-03-03T15:15:30Z</time>
      </trkpt>
      <trkpt lat="44.12646" lon="6.97113">
        <ele>2106</ele>
        <time>2012-03-03T15:15:40Z</time>
      </trkpt>
      <trkpt lat="44.12638" lon="6.97117">
        <ele>2103</ele>
        <time>2012-03-03T15:15:53Z</time>
      </trkpt>
      <trkpt lat="44.12637" lon="6.97117">
        <ele>2102</ele>
        <time>2012-03-03T15:15:54Z</time>
      </trkpt>
      <trkpt lat="44.12629" lon="6.97137">
        <ele>2089</ele>
        <time>2012-03-03T15:16:23Z</time>
      </trkpt>
      <trkpt lat="44.12623" lon="6.97145">
        <ele>2087</ele>
        <time>2012-03-03T15:16:32Z</time>
      </trkpt>
      <trkpt lat="44.12621" lon="6.97156">
        <ele>2083</ele>
        <time>2012-03-03T15:16:41Z</time>
      </trkpt>
      <trkpt lat="44.12619" lon="6.97168">
        <ele>2085</ele>
        <time>2012-03-03T15:16:52Z</time>
      </trkpt>
      <trkpt lat="44.12618" lon="6.9718">
        <ele>2082</ele>
        <time>2012-03-03T15:17:03Z</time>
      </trkpt>
      <trkpt lat="44.12618" lon="6.97182">
        <ele>2082</ele>
        <time>2012-03-03T15:17:04Z</time>
      </trkpt>
      <trkpt lat="44.12618" lon="6.97202">
        <ele>2079</ele>
        <time>2012-03-03T15:17:21Z</time>
      </trkpt>
      <trkpt lat="44.12615" lon="6.97213">
        <ele>2076</ele>
        <time>2012-03-03T15:17:29Z</time>
      </trkpt>
      <trkpt lat="44.12612" lon="6.97225">
        <ele>2076</ele>
        <time>2012-03-03T15:17:37Z</time>
      </trkpt>
      <trkpt lat="44.1261" lon="6.97236">
        <ele>2077</ele>
        <time>2012-03-03T15:17:44Z</time>
      </trkpt>
      <trkpt lat="44.12608" lon="6.97248">
        <ele>2077</ele>
        <time>2012-03-03T15:17:54Z</time>
      </trkpt>
      <trkpt lat="44.12613" lon="6.97258">
        <ele>2076</ele>
        <time>2012-03-03T15:18:45Z</time>
      </trkpt>
      <trkpt lat="44.12614" lon="6.97258">
        <ele>2075</ele>
        <time>2012-03-03T15:18:46Z</time>
      </trkpt>
      <trkpt lat="44.12628" lon="6.97271">
        <ele>2080</ele>
        <time>2012-03-03T15:19:22Z</time>
      </trkpt>
      <trkpt lat="44.12626" lon="6.97259">
        <ele>2074</ele>
        <time>2012-03-03T15:19:31Z</time>
      </trkpt>
      <trkpt lat="44.12618" lon="6.97255">
        <ele>2075</ele>
        <time>2012-03-03T15:19:37Z</time>
      </trkpt>
      <trkpt lat="44.12609" lon="6.97255">
        <ele>2073</ele>
        <time>2012-03-03T15:20:34Z</time>
      </trkpt>
      <trkpt lat="44.12608" lon="6.97255">
        <ele>2071</ele>
        <time>2012-03-03T15:20:35Z</time>
      </trkpt>
      <trkpt lat="44.12594" lon="6.97256">
        <ele>2066</ele>
        <time>2012-03-03T15:22:23Z</time>
      </trkpt>
      <trkpt lat="44.12593" lon="6.97255">
        <ele>2067</ele>
        <time>2012-03-03T15:22:24Z</time>
      </trkpt>
      <trkpt lat="44.12579" lon="6.97254">
        <ele>2071</ele>
        <time>2012-03-03T15:23:39Z</time>
      </trkpt>
      <trkpt lat="44.12578" lon="6.97255">
        <ele>2070</ele>
        <time>2012-03-03T15:23:40Z</time>
      </trkpt>
      <trkpt lat="44.12589" lon="6.97252">
        <ele>2068</ele>
        <time>2012-03-03T15:43:54Z</time>
      </trkpt>
      <trkpt lat="44.12594" lon="6.97251">
        <ele>2071</ele>
        <time>2012-03-03T15:45:23Z</time>
      </trkpt>
      <trkpt lat="44.12577" lon="6.97235">
        <ele>2062</ele>
        <time>2012-03-03T15:46:20Z</time>
      </trkpt>
      <trkpt lat="44.12569" lon="6.97228">
        <ele>2061</ele>
        <time>2012-03-03T15:46:32Z</time>
      </trkpt>
      <trkpt lat="44.12569" lon="6.97228">
        <ele>2060</ele>
        <time>2012-03-03T15:46:33Z</time>
      </trkpt>
      <trkpt lat="44.1256" lon="6.97208">
        <ele>2059</ele>
        <time>2012-03-03T15:46:55Z</time>
      </trkpt>
      <trkpt lat="44.12554" lon="6.972">
        <ele>2055</ele>
        <time>2012-03-03T15:47:09Z</time>
      </trkpt>
      <trkpt lat="44.12546" lon="6.97199">
        <ele>2047</ele>
        <time>2012-03-03T15:47:30Z</time>
      </trkpt>
      <trkpt lat="44.12541" lon="6.97189">
        <ele>2046</ele>
        <time>2012-03-03T15:47:39Z</time>
      </trkpt>
      <trkpt lat="44.1254" lon="6.97188">
        <ele>2047</ele>
        <time>2012-03-03T15:47:39Z</time>
      </trkpt>
      <trkpt lat="44.12529" lon="6.97172">
        <ele>2040</ele>
        <time>2012-03-03T15:48:00Z</time>
      </trkpt>
      <trkpt lat="44.12523" lon="6.97163">
        <ele>2041</ele>
        <time>2012-03-03T15:48:08Z</time>
      </trkpt>
      <trkpt lat="44.12517" lon="6.97156">
        <ele>2041</ele>
        <time>2012-03-03T15:48:15Z</time>
      </trkpt>
      <trkpt lat="44.12511" lon="6.97147">
        <ele>2038</ele>
        <time>2012-03-03T15:48:23Z</time>
      </trkpt>
      <trkpt lat="44.12505" lon="6.97141">
        <ele>2038</ele>
        <time>2012-03-03T15:48:31Z</time>
      </trkpt>
      <trkpt lat="44.12497" lon="6.97137">
        <ele>2030</ele>
        <time>2012-03-03T15:48:48Z</time>
      </trkpt>
      <trkpt lat="44.12496" lon="6.97137">
        <ele>2029</ele>
        <time>2012-03-03T15:48:48Z</time>
      </trkpt>
      <trkpt lat="44.12481" lon="6.9714">
        <ele>2022</ele>
        <time>2012-03-03T15:48:57Z</time>
      </trkpt>
      <trkpt lat="44.12473" lon="6.97145">
        <ele>2019</ele>
        <time>2012-03-03T15:49:05Z</time>
      </trkpt>
      <trkpt lat="44.12466" lon="6.97151">
        <ele>2015</ele>
        <time>2012-03-03T15:49:13Z</time>
      </trkpt>
      <trkpt lat="44.12459" lon="6.97156">
        <ele>2012</ele>
        <time>2012-03-03T15:49:19Z</time>
      </trkpt>
      <trkpt lat="44.12455" lon="6.97165">
        <ele>2011</ele>
        <time>2012-03-03T15:49:25Z</time>
      </trkpt>
      <trkpt lat="44.12451" lon="6.97177">
        <ele>2009</ele>
        <time>2012-03-03T15:49:34Z</time>
      </trkpt>
      <trkpt lat="44.12447" lon="6.97187">
        <ele>2007</ele>
        <time>2012-03-03T15:49:41Z</time>
      </trkpt>
      <trkpt lat="44.12443" lon="6.97196">
        <ele>2004</ele>
        <time>2012-03-03T15:49:48Z</time>
      </trkpt>
      <trkpt lat="44.12439" lon="6.97206">
        <ele>2004</ele>
        <time>2012-03-03T15:49:53Z</time>
      </trkpt>
      <trkpt lat="44.12438" lon="6.97207">
        <ele>2004</ele>
        <time>2012-03-03T15:49:54Z</time>
      </trkpt>
      <trkpt lat="44.12432" lon="6.97226">
        <ele>2001</ele>
        <time>2012-03-03T15:50:05Z</time>
      </trkpt>
      <trkpt lat="44.12428" lon="6.97235">
        <ele>2001</ele>
        <time>2012-03-03T15:50:13Z</time>
      </trkpt>
      <trkpt lat="44.12423" lon="6.97244">
        <ele>1999</ele>
        <time>2012-03-03T15:50:20Z</time>
      </trkpt>
      <trkpt lat="44.12416" lon="6.97251">
        <ele>1999</ele>
        <time>2012-03-03T15:51:44Z</time>
      </trkpt>
      <trkpt lat="44.12415" lon="6.97251">
        <ele>2000</ele>
        <time>2012-03-03T15:51:44Z</time>
      </trkpt>
      <trkpt lat="44.12398" lon="6.9725">
        <ele>1994</ele>
        <time>2012-03-03T15:52:05Z</time>
      </trkpt>
      <trkpt lat="44.12389" lon="6.97251">
        <ele>1988</ele>
        <time>2012-03-03T15:52:17Z</time>
      </trkpt>
      <trkpt lat="44.12381" lon="6.97248">
        <ele>1986</ele>
        <time>2012-03-03T15:52:24Z</time>
      </trkpt>
      <trkpt lat="44.12373" lon="6.97244">
        <ele>1986</ele>
        <time>2012-03-03T15:52:32Z</time>
      </trkpt>
      <trkpt lat="44.12365" lon="6.97242">
        <ele>1984</ele>
        <time>2012-03-03T15:52:39Z</time>
      </trkpt>
      <trkpt lat="44.12356" lon="6.97239">
        <ele>1983</ele>
        <time>2012-03-03T15:52:47Z</time>
      </trkpt>
      <trkpt lat="44.12355" lon="6.97239">
        <ele>1983</ele>
        <time>2012-03-03T15:52:48Z</time>
      </trkpt>
      <trkpt lat="44.12342" lon="6.97229">
        <ele>1979</ele>
        <time>2012-03-03T15:53:00Z</time>
      </trkpt>
      <trkpt lat="44.12334" lon="6.97223">
        <ele>1976</ele>
        <time>2012-03-03T15:53:08Z</time>
      </trkpt>
      <trkpt lat="44.12325" lon="6.97222">
        <ele>1973</ele>
        <time>2012-03-03T15:53:15Z</time>
      </trkpt>
      <trkpt lat="44.12317" lon="6.97228">
        <ele>1966</ele>
        <time>2012-03-03T15:53:24Z</time>
      </trkpt>
      <trkpt lat="44.1231" lon="6.97234">
        <ele>1965</ele>
        <time>2012-03-03T15:53:28Z</time>
      </trkpt>
      <trkpt lat="44.12302" lon="6.97235">
        <ele>1964</ele>
        <time>2012-03-03T15:53:33Z</time>
      </trkpt>
      <trkpt lat="44.12294" lon="6.97234">
        <ele>1962</ele>
        <time>2012-03-03T15:53:41Z</time>
      </trkpt>
      <trkpt lat="44.12285" lon="6.97232">
        <ele>1961</ele>
        <time>2012-03-03T15:53:48Z</time>
      </trkpt>
      <trkpt lat="44.12284" lon="6.97232">
        <ele>1961</ele>
        <time>2012-03-03T15:53:49Z</time>
      </trkpt>
      <trkpt lat="44.12268" lon="6.97234">
        <ele>1958</ele>
        <time>2012-03-03T15:54:01Z</time>
      </trkpt>
      <trkpt lat="44.12261" lon="6.97237">
        <ele>1958</ele>
        <time>2012-03-03T15:54:09Z</time>
      </trkpt>
      <trkpt lat="44.12256" lon="6.97246">
        <ele>1955</ele>
        <time>2012-03-03T15:54:15Z</time>
      </trkpt>
      <trkpt lat="44.12251" lon="6.97256">
        <ele>1955</ele>
        <time>2012-03-03T15:54:21Z</time>
      </trkpt>
      <trkpt lat="44.12253" lon="6.97267">
        <ele>1951</ele>
        <time>2012-03-03T15:54:29Z</time>
      </trkpt>
      <trkpt lat="44.12259" lon="6.97276">
        <ele>1950</ele>
        <time>2012-03-03T15:54:38Z</time>
      </trkpt>
      <trkpt lat="44.12262" lon="6.97287">
        <ele>1947</ele>
        <time>2012-03-03T15:54:48Z</time>
      </trkpt>
      <trkpt lat="44.12262" lon="6.97288">
        <ele>1947</ele>
        <time>2012-03-03T15:54:49Z</time>
      </trkpt>
      <trkpt lat="44.12255" lon="6.97307">
        <ele>1944</ele>
        <time>2012-03-03T15:55:07Z</time>
      </trkpt>
      <trkpt lat="44.12247" lon="6.97312">
        <ele>1944</ele>
        <time>2012-03-03T15:55:16Z</time>
      </trkpt>
      <trkpt lat="44.12238" lon="6.97312">
        <ele>1943</ele>
        <time>2012-03-03T15:55:25Z</time>
      </trkpt>
      <trkpt lat="44.12229" lon="6.97313">
        <ele>1938</ele>
        <time>2012-03-03T15:55:35Z</time>
      </trkpt>
      <trkpt lat="44.12222" lon="6.9732">
        <ele>1931</ele>
        <time>2012-03-03T15:55:48Z</time>
      </trkpt>
      <trkpt lat="44.12214" lon="6.97325">
        <ele>1925</ele>
        <time>2012-03-03T15:55:59Z</time>
      </trkpt>
      <trkpt lat="44.12213" lon="6.97324">
        <ele>1925</ele>
        <time>2012-03-03T15:55:59Z</time>
      </trkpt>
      <trkpt lat="44.12198" lon="6.97315">
        <ele>1922</ele>
        <time>2012-03-03T15:56:14Z</time>
      </trkpt>
      <trkpt lat="44.12191" lon="6.97309">
        <ele>1922</ele>
        <time>2012-03-03T15:56:25Z</time>
      </trkpt>
      <trkpt lat="44.12183" lon="6.97302">
        <ele>1918</ele>
        <time>2012-03-03T15:56:36Z</time>
      </trkpt>
      <trkpt lat="44.12174" lon="6.97299">
        <ele>1913</ele>
        <time>2012-03-03T15:56:52Z</time>
      </trkpt>
      <trkpt lat="44.12168" lon="6.97291">
        <ele>1912</ele>
        <time>2012-03-03T15:56:58Z</time>
      </trkpt>
      <trkpt lat="44.12165" lon="6.9728">
        <ele>1909</ele>
        <time>2012-03-03T15:57:09Z</time>
      </trkpt>
      <trkpt lat="44.12164" lon="6.97279">
        <ele>1910</ele>
        <time>2012-03-03T15:57:10Z</time>
      </trkpt>
      <trkpt lat="44.12151" lon="6.97272">
        <ele>1906</ele>
        <time>2012-03-03T15:57:23Z</time>
      </trkpt>
      <trkpt lat="44.12143" lon="6.97275">
        <ele>1902</ele>
        <time>2012-03-03T15:57:28Z</time>
      </trkpt>
      <trkpt lat="44.12134" lon="6.97277">
        <ele>1900</ele>
        <time>2012-03-03T15:57:36Z</time>
      </trkpt>
      <trkpt lat="44.12126" lon="6.97276">
        <ele>1898</ele>
        <time>2012-03-03T15:57:47Z</time>
      </trkpt>
      <trkpt lat="44.12118" lon="6.97277">
        <ele>1896</ele>
        <time>2012-03-03T15:57:57Z</time>
      </trkpt>
      <trkpt lat="44.1211" lon="6.97283">
        <ele>1891</ele>
        <time>2012-03-03T15:58:24Z</time>
      </trkpt>
      <trkpt lat="44.12109" lon="6.97283">
        <ele>1891</ele>
        <time>2012-03-03T15:58:25Z</time>
      </trkpt>
      <trkpt lat="44.12092" lon="6.97286">
        <ele>1884</ele>
        <time>2012-03-03T15:58:46Z</time>
      </trkpt>
      <trkpt lat="44.12085" lon="6.9728">
        <ele>1882</ele>
        <time>2012-03-03T15:58:59Z</time>
      </trkpt>
      <trkpt lat="44.12077" lon="6.97279">
        <ele>1880</ele>
        <time>2012-03-03T15:59:12Z</time>
      </trkpt>
      <trkpt lat="44.12068" lon="6.97281">
        <ele>1877</ele>
        <time>2012-03-03T15:59:26Z</time>
      </trkpt>
      <trkpt lat="44.12067" lon="6.97281">
        <ele>1877</ele>
        <time>2012-03-03T15:59:28Z</time>
      </trkpt>
      <trkpt lat="44.12051" lon="6.97281">
        <ele>1872</ele>
        <time>2012-03-03T15:59:48Z</time>
      </trkpt>
      <trkpt lat="44.12043" lon="6.97277">
        <ele>1869</ele>
        <time>2012-03-03T15:59:58Z</time>
      </trkpt>
      <trkpt lat="44.12035" lon="6.97275">
        <ele>1866</ele>
        <time>2012-03-03T16:00:07Z</time>
      </trkpt>
      <trkpt lat="44.1203" lon="6.97284">
        <ele>1863</ele>
        <time>2012-03-03T16:00:18Z</time>
      </trkpt>
      <trkpt lat="44.12023" lon="6.97291">
        <ele>1862</ele>
        <time>2012-03-03T16:00:29Z</time>
      </trkpt>
      <trkpt lat="44.12023" lon="6.97291">
        <ele>1861</ele>
        <time>2012-03-03T16:00:30Z</time>
      </trkpt>
      <trkpt lat="44.12012" lon="6.9729">
        <ele>1851</ele>
        <time>2012-03-03T16:00:52Z</time>
      </trkpt>
      <trkpt lat="44.12005" lon="6.97286">
        <ele>1850</ele>
        <time>2012-03-03T16:00:59Z</time>
      </trkpt>
      <trkpt lat="44.11996" lon="6.97289">
        <ele>1846</ele>
        <time>2012-03-03T16:01:07Z</time>
      </trkpt>
      <trkpt lat="44.11988" lon="6.97292">
        <ele>1844</ele>
        <time>2012-03-03T16:01:15Z</time>
      </trkpt>
      <trkpt lat="44.11981" lon="6.97297">
        <ele>1842</ele>
        <time>2012-03-03T16:01:25Z</time>
      </trkpt>
      <trkpt lat="44.11972" lon="6.97298">
        <ele>1840</ele>
        <time>2012-03-03T16:01:36Z</time>
      </trkpt>
      <trkpt lat="44.11971" lon="6.97298">
        <ele>1839</ele>
        <time>2012-03-03T16:01:38Z</time>
      </trkpt>
      <trkpt lat="44.11954" lon="6.97301">
        <ele>1835</ele>
        <time>2012-03-03T16:01:51Z</time>
      </trkpt>
      <trkpt lat="44.11947" lon="6.97305">
        <ele>1836</ele>
        <time>2012-03-03T16:01:58Z</time>
      </trkpt>
      <trkpt lat="44.11939" lon="6.97308">
        <ele>1835</ele>
        <time>2012-03-03T16:02:03Z</time>
      </trkpt>
      <trkpt lat="44.11931" lon="6.97312">
        <ele>1833</ele>
        <time>2012-03-03T16:02:11Z</time>
      </trkpt>
      <trkpt lat="44.11923" lon="6.97316">
        <ele>1832</ele>
        <time>2012-03-03T16:02:16Z</time>
      </trkpt>
      <trkpt lat="44.11915" lon="6.9732">
        <ele>1831</ele>
        <time>2012-03-03T16:02:24Z</time>
      </trkpt>
      <trkpt lat="44.11907" lon="6.97323">
        <ele>1830</ele>
        <time>2012-03-03T16:02:32Z</time>
      </trkpt>
      <trkpt lat="44.11899" lon="6.97324">
        <ele>1827</ele>
        <time>2012-03-03T16:02:43Z</time>
      </trkpt>
      <trkpt lat="44.11897" lon="6.97328">
        <ele>1827</ele>
        <time>2012-03-03T16:02:44Z</time>
      </trkpt>
      <trkpt lat="44.11889" lon="6.97339">
        <ele>1826</ele>
        <time>2012-03-03T16:02:50Z</time>
      </trkpt>
      <trkpt lat="44.11883" lon="6.97347">
        <ele>1827</ele>
        <time>2012-03-03T16:02:55Z</time>
      </trkpt>
      <trkpt lat="44.11878" lon="6.97353">
        <ele>1827</ele>
        <time>2012-03-03T16:03:01Z</time>
      </trkpt>
      <trkpt lat="44.11871" lon="6.97361">
        <ele>1828</ele>
        <time>2012-03-03T16:03:06Z</time>
      </trkpt>
      <trkpt lat="44.11863" lon="6.97364">
        <ele>1826</ele>
        <time>2012-03-03T16:03:18Z</time>
      </trkpt>
      <trkpt lat="44.11856" lon="6.9737">
        <ele>1824</ele>
        <time>2012-03-03T16:03:25Z</time>
      </trkpt>
      <trkpt lat="44.11851" lon="6.97379">
        <ele>1824</ele>
        <time>2012-03-03T16:03:31Z</time>
      </trkpt>
      <trkpt lat="44.11846" lon="6.97389">
        <ele>1825</ele>
        <time>2012-03-03T16:03:35Z</time>
      </trkpt>
      <trkpt lat="44.1184" lon="6.97398">
        <ele>1822</ele>
        <time>2012-03-03T16:03:40Z</time>
      </trkpt>
      <trkpt lat="44.11835" lon="6.97406">
        <ele>1821</ele>
        <time>2012-03-03T16:03:47Z</time>
      </trkpt>
      <trkpt lat="44.11834" lon="6.97407">
        <ele>1820</ele>
        <time>2012-03-03T16:03:48Z</time>
      </trkpt>
      <trkpt lat="44.11822" lon="6.97423">
        <ele>1818</ele>
        <time>2012-03-03T16:04:04Z</time>
      </trkpt>
      <trkpt lat="44.11815" lon="6.97431">
        <ele>1817</ele>
        <time>2012-03-03T16:04:10Z</time>
      </trkpt>
      <trkpt lat="44.11809" lon="6.97438">
        <ele>1815</ele>
        <time>2012-03-03T16:04:18Z</time>
      </trkpt>
      <trkpt lat="44.11804" lon="6.97447">
        <ele>1816</ele>
        <time>2012-03-03T16:04:25Z</time>
      </trkpt>
      <trkpt lat="44.11798" lon="6.97455">
        <ele>1812</ele>
        <time>2012-03-03T16:04:33Z</time>
      </trkpt>
      <trkpt lat="44.11793" lon="6.97463">
        <ele>1810</ele>
        <time>2012-03-03T16:04:40Z</time>
      </trkpt>
      <trkpt lat="44.11785" lon="6.97469">
        <ele>1810</ele>
        <time>2012-03-03T16:04:47Z</time>
      </trkpt>
      <trkpt lat="44.11777" lon="6.97474">
        <ele>1810</ele>
        <time>2012-03-03T16:04:52Z</time>
      </trkpt>
      <trkpt lat="44.11776" lon="6.97475">
        <ele>1811</ele>
        <time>2012-03-03T16:04:53Z</time>
      </trkpt>
      <trkpt lat="44.11762" lon="6.9748">
        <ele>1809</ele>
        <time>2012-03-03T16:05:10Z</time>
      </trkpt>
      <trkpt lat="44.11754" lon="6.97485">
        <ele>1809</ele>
        <time>2012-03-03T16:05:17Z</time>
      </trkpt>
      <trkpt lat="44.11747" lon="6.97492">
        <ele>1810</ele>
        <time>2012-03-03T16:05:21Z</time>
      </trkpt>
      <trkpt lat="44.11739" lon="6.97494">
        <ele>1807</ele>
        <time>2012-03-03T16:05:28Z</time>
      </trkpt>
      <trkpt lat="44.1173" lon="6.97492">
        <ele>1803</ele>
        <time>2012-03-03T16:05:35Z</time>
      </trkpt>
      <trkpt lat="44.11722" lon="6.97493">
        <ele>1801</ele>
        <time>2012-03-03T16:05:44Z</time>
      </trkpt>
      <trkpt lat="44.11716" lon="6.97501">
        <ele>1796</ele>
        <time>2012-03-03T16:05:53Z</time>
      </trkpt>
      <trkpt lat="44.11715" lon="6.97502">
        <ele>1796</ele>
        <time>2012-03-03T16:05:55Z</time>
      </trkpt>
      <trkpt lat="44.11703" lon="6.97512">
        <ele>1787</ele>
        <time>2012-03-03T16:06:11Z</time>
      </trkpt>
      <trkpt lat="44.11706" lon="6.97523">
        <ele>1780</ele>
        <time>2012-03-03T16:06:20Z</time>
      </trkpt>
      <trkpt lat="44.11707" lon="6.97535">
        <ele>1778</ele>
        <time>2012-03-03T16:06:32Z</time>
      </trkpt>
      <trkpt lat="44.11709" lon="6.97546">
        <ele>1775</ele>
        <time>2012-03-03T16:06:40Z</time>
      </trkpt>
      <trkpt lat="44.11705" lon="6.97557">
        <ele>1777</ele>
        <time>2012-03-03T16:06:52Z</time>
      </trkpt>
      <trkpt lat="44.11702" lon="6.97568">
        <ele>1781</ele>
        <time>2012-03-03T16:07:02Z</time>
      </trkpt>
      <trkpt lat="44.11702" lon="6.97569">
        <ele>1779</ele>
        <time>2012-03-03T16:07:04Z</time>
      </trkpt>
      <trkpt lat="44.11695" lon="6.97587">
        <ele>1783</ele>
        <time>2012-03-03T16:07:17Z</time>
      </trkpt>
      <trkpt lat="44.11688" lon="6.97594">
        <ele>1776</ele>
        <time>2012-03-03T16:07:27Z</time>
      </trkpt>
      <trkpt lat="44.11684" lon="6.97602">
        <ele>1777</ele>
        <time>2012-03-03T16:07:31Z</time>
      </trkpt>
      <trkpt lat="44.11679" lon="6.97613">
        <ele>1776</ele>
        <time>2012-03-03T16:07:36Z</time>
      </trkpt>
      <trkpt lat="44.11673" lon="6.97622">
        <ele>1773</ele>
        <time>2012-03-03T16:07:44Z</time>
      </trkpt>
      <trkpt lat="44.11665" lon="6.97626">
        <ele>1775</ele>
        <time>2012-03-03T16:07:58Z</time>
      </trkpt>
      <trkpt lat="44.11668" lon="6.97636">
        <ele>1765</ele>
        <time>2012-03-03T16:08:04Z</time>
      </trkpt>
      <trkpt lat="44.1167" lon="6.97638">
        <ele>1765</ele>
        <time>2012-03-03T16:08:04Z</time>
      </trkpt>
      <trkpt lat="44.1167" lon="6.97659">
        <ele>1762</ele>
        <time>2012-03-03T16:08:18Z</time>
      </trkpt>
      <trkpt lat="44.11678" lon="6.97665">
        <ele>1756</ele>
        <time>2012-03-03T16:08:25Z</time>
      </trkpt>
      <trkpt lat="44.11683" lon="6.97675">
        <ele>1747</ele>
        <time>2012-03-03T16:08:40Z</time>
      </trkpt>
      <trkpt lat="44.1168" lon="6.97686">
        <ele>1744</ele>
        <time>2012-03-03T16:08:49Z</time>
      </trkpt>
      <trkpt lat="44.11676" lon="6.97697">
        <ele>1743</ele>
        <time>2012-03-03T16:09:03Z</time>
      </trkpt>
      <trkpt lat="44.1167" lon="6.97706">
        <ele>1740</ele>
        <time>2012-03-03T16:09:12Z</time>
      </trkpt>
      <trkpt lat="44.11669" lon="6.97705">
        <ele>1740</ele>
        <time>2012-03-03T16:09:12Z</time>
      </trkpt>
      <trkpt lat="44.11655" lon="6.97712">
        <ele>1734</ele>
        <time>2012-03-03T16:09:33Z</time>
      </trkpt>
      <trkpt lat="44.11648" lon="6.97719">
        <ele>1732</ele>
        <time>2012-03-03T16:09:40Z</time>
      </trkpt>
      <trkpt lat="44.11641" lon="6.97724">
        <ele>1730</ele>
        <time>2012-03-03T16:09:49Z</time>
      </trkpt>
      <trkpt lat="44.11635" lon="6.97733">
        <ele>1725</ele>
        <time>2012-03-03T16:10:01Z</time>
      </trkpt>
      <trkpt lat="44.11629" lon="6.97741">
        <ele>1720</ele>
        <time>2012-03-03T16:10:14Z</time>
      </trkpt>
      <trkpt lat="44.11628" lon="6.97743">
        <ele>1719</ele>
        <time>2012-03-03T16:10:14Z</time>
      </trkpt>
      <trkpt lat="44.11615" lon="6.97756">
        <ele>1714</ele>
        <time>2012-03-03T16:10:30Z</time>
      </trkpt>
      <trkpt lat="44.11608" lon="6.97764">
        <ele>1713</ele>
        <time>2012-03-03T16:10:39Z</time>
      </trkpt>
      <trkpt lat="44.11601" lon="6.97769">
        <ele>1710</ele>
        <time>2012-03-03T16:10:48Z</time>
      </trkpt>
      <trkpt lat="44.11593" lon="6.97772">
        <ele>1707</ele>
        <time>2012-03-03T16:10:58Z</time>
      </trkpt>
      <trkpt lat="44.11584" lon="6.97776">
        <ele>1704</ele>
        <time>2012-03-03T16:11:09Z</time>
      </trkpt>
      <trkpt lat="44.11579" lon="6.97783">
        <ele>1703</ele>
        <time>2012-03-03T16:11:13Z</time>
      </trkpt>
      <trkpt lat="44.11577" lon="6.97785">
        <ele>1704</ele>
        <time>2012-03-03T16:11:14Z</time>
      </trkpt>
      <trkpt lat="44.11568" lon="6.978">
        <ele>1705</ele>
        <time>2012-03-03T16:11:26Z</time>
      </trkpt>
      <trkpt lat="44.11565" lon="6.97811">
        <ele>1707</ele>
        <time>2012-03-03T16:11:32Z</time>
      </trkpt>
      <trkpt lat="44.11562" lon="6.97822">
        <ele>1707</ele>
        <time>2012-03-03T16:11:36Z</time>
      </trkpt>
      <trkpt lat="44.11554" lon="6.97825">
        <ele>1707</ele>
        <time>2012-03-03T16:11:49Z</time>
      </trkpt>
      <trkpt lat="44.11547" lon="6.9782">
        <ele>1698</ele>
        <time>2012-03-03T16:12:09Z</time>
      </trkpt>
      <trkpt lat="44.11538" lon="6.97816">
        <ele>1694</ele>
        <time>2012-03-03T16:12:19Z</time>
      </trkpt>
      <trkpt lat="44.11538" lon="6.97817">
        <ele>1694</ele>
        <time>2012-03-03T16:12:19Z</time>
      </trkpt>
      <trkpt lat="44.11525" lon="6.9783">
        <ele>1692</ele>
        <time>2012-03-03T16:12:36Z</time>
      </trkpt>
      <trkpt lat="44.11522" lon="6.97841">
        <ele>1692</ele>
        <time>2012-03-03T16:12:44Z</time>
      </trkpt>
      <trkpt lat="44.11517" lon="6.9785">
        <ele>1693</ele>
        <time>2012-03-03T16:12:56Z</time>
      </trkpt>
      <trkpt lat="44.1151" lon="6.97859">
        <ele>1693</ele>
        <time>2012-03-03T16:13:06Z</time>
      </trkpt>
      <trkpt lat="44.11504" lon="6.97867">
        <ele>1692</ele>
        <time>2012-03-03T16:13:20Z</time>
      </trkpt>
      <trkpt lat="44.11504" lon="6.97868">
        <ele>1693</ele>
        <time>2012-03-03T16:13:20Z</time>
      </trkpt>
      <trkpt lat="44.11492" lon="6.97885">
        <ele>1687</ele>
        <time>2012-03-03T16:13:40Z</time>
      </trkpt>
      <trkpt lat="44.11487" lon="6.97894">
        <ele>1680</ele>
        <time>2012-03-03T16:13:50Z</time>
      </trkpt>
      <trkpt lat="44.1148" lon="6.97902">
        <ele>1680</ele>
        <time>2012-03-03T16:14:02Z</time>
      </trkpt>
      <trkpt lat="44.11474" lon="6.97911">
        <ele>1682</ele>
        <time>2012-03-03T16:14:13Z</time>
      </trkpt>
      <trkpt lat="44.1147" lon="6.97921">
        <ele>1680</ele>
        <time>2012-03-03T16:14:20Z</time>
      </trkpt>
      <trkpt lat="44.11469" lon="6.97922">
        <ele>1679</ele>
        <time>2012-03-03T16:14:21Z</time>
      </trkpt>
      <trkpt lat="44.11465" lon="6.97943">
        <ele>1679</ele>
        <time>2012-03-03T16:14:37Z</time>
      </trkpt>
      <trkpt lat="44.11458" lon="6.97949">
        <ele>1678</ele>
        <time>2012-03-03T16:14:44Z</time>
      </trkpt>
      <trkpt lat="44.11451" lon="6.97957">
        <ele>1678</ele>
        <time>2012-03-03T16:14:50Z</time>
      </trkpt>
      <trkpt lat="44.11446" lon="6.97967">
        <ele>1677</ele>
        <time>2012-03-03T16:15:04Z</time>
      </trkpt>
      <trkpt lat="44.1144" lon="6.97976">
        <ele>1676</ele>
        <time>2012-03-03T16:15:09Z</time>
      </trkpt>
      <trkpt lat="44.11438" lon="6.97988">
        <ele>1673</ele>
        <time>2012-03-03T16:15:16Z</time>
      </trkpt>
      <trkpt lat="44.11436" lon="6.97998">
        <ele>1670</ele>
        <time>2012-03-03T16:15:22Z</time>
      </trkpt>
      <trkpt lat="44.11435" lon="6.98">
        <ele>1671</ele>
        <time>2012-03-03T16:15:24Z</time>
      </trkpt>
      <trkpt lat="44.11425" lon="6.98016">
        <ele>1664</ele>
        <time>2012-03-03T16:15:46Z</time>
      </trkpt>
      <trkpt lat="44.11417" lon="6.98022">
        <ele>1659</ele>
        <time>2012-03-03T16:15:57Z</time>
      </trkpt>
      <trkpt lat="44.11414" lon="6.98033">
        <ele>1653</ele>
        <time>2012-03-03T16:16:06Z</time>
      </trkpt>
      <trkpt lat="44.11411" lon="6.98044">
        <ele>1653</ele>
        <time>2012-03-03T16:16:13Z</time>
      </trkpt>
      <trkpt lat="44.11409" lon="6.98055">
        <ele>1652</ele>
        <time>2012-03-03T16:16:19Z</time>
      </trkpt>
      <trkpt lat="44.11407" lon="6.98067">
        <ele>1650</ele>
        <time>2012-03-03T16:16:26Z</time>
      </trkpt>
      <trkpt lat="44.11407" lon="6.98069">
        <ele>1650</ele>
        <time>2012-03-03T16:16:26Z</time>
      </trkpt>
      <trkpt lat="44.11399" lon="6.98089">
        <ele>1644</ele>
        <time>2012-03-03T16:16:46Z</time>
      </trkpt>
      <trkpt lat="44.11392" lon="6.98097">
        <ele>1641</ele>
        <time>2012-03-03T16:16:54Z</time>
      </trkpt>
      <trkpt lat="44.11388" lon="6.98107">
        <ele>1638</ele>
        <time>2012-03-03T16:17:03Z</time>
      </trkpt>
      <trkpt lat="44.11385" lon="6.98118">
        <ele>1637</ele>
        <time>2012-03-03T16:17:10Z</time>
      </trkpt>
      <trkpt lat="44.11385" lon="6.98131">
        <ele>1637</ele>
        <time>2012-03-03T16:17:20Z</time>
      </trkpt>
      <trkpt lat="44.11387" lon="6.98142">
        <ele>1638</ele>
        <time>2012-03-03T16:17:28Z</time>
      </trkpt>
      <trkpt lat="44.11387" lon="6.98143">
        <ele>1638</ele>
        <time>2012-03-03T16:17:29Z</time>
      </trkpt>
      <trkpt lat="44.11379" lon="6.98164">
        <ele>1636</ele>
        <time>2012-03-03T16:17:48Z</time>
      </trkpt>
      <trkpt lat="44.11385" lon="6.98173">
        <ele>1633</ele>
        <time>2012-03-03T16:17:56Z</time>
      </trkpt>
      <trkpt lat="44.11384" lon="6.98185">
        <ele>1629</ele>
        <time>2012-03-03T16:18:01Z</time>
      </trkpt>
      <trkpt lat="44.11386" lon="6.98196">
        <ele>1629</ele>
        <time>2012-03-03T16:18:10Z</time>
      </trkpt>
      <trkpt lat="44.11386" lon="6.98209">
        <ele>1626</ele>
        <time>2012-03-03T16:18:27Z</time>
      </trkpt>
      <trkpt lat="44.11383" lon="6.98221">
        <ele>1620</ele>
        <time>2012-03-03T16:18:34Z</time>
      </trkpt>
      <trkpt lat="44.11383" lon="6.98223">
        <ele>1622</ele>
        <time>2012-03-03T16:18:35Z</time>
      </trkpt>
      <trkpt lat="44.11378" lon="6.98242">
        <ele>1620</ele>
        <time>2012-03-03T16:18:45Z</time>
      </trkpt>
      <trkpt lat="44.11374" lon="6.98249">
        <ele>1619</ele>
        <time>2012-03-03T16:18:48Z</time>
      </trkpt>
      <trkpt lat="44.11367" lon="6.98258">
        <ele>1618</ele>
        <time>2012-03-03T16:18:54Z</time>
      </trkpt>
      <trkpt lat="44.1136" lon="6.98264">
        <ele>1623</ele>
        <time>2012-03-03T16:18:59Z</time>
      </trkpt>
      <trkpt lat="44.11354" lon="6.98273">
        <ele>1622</ele>
        <time>2012-03-03T16:19:06Z</time>
      </trkpt>
      <trkpt lat="44.11348" lon="6.9828">
        <ele>1621</ele>
        <time>2012-03-03T16:19:15Z</time>
      </trkpt>
      <trkpt lat="44.11342" lon="6.98288">
        <ele>1616</ele>
        <time>2012-03-03T16:19:21Z</time>
      </trkpt>
      <trkpt lat="44.11336" lon="6.98294">
        <ele>1616</ele>
        <time>2012-03-03T16:19:26Z</time>
      </trkpt>
      <trkpt lat="44.11329" lon="6.983">
        <ele>1614</ele>
        <time>2012-03-03T16:19:31Z</time>
      </trkpt>
      <trkpt lat="44.11323" lon="6.98309">
        <ele>1614</ele>
        <time>2012-03-03T16:19:39Z</time>
      </trkpt>
      <trkpt lat="44.11322" lon="6.98311">
        <ele>1615</ele>
        <time>2012-03-03T16:19:39Z</time>
      </trkpt>
      <trkpt lat="44.11308" lon="6.9832">
        <ele>1614</ele>
        <time>2012-03-03T16:19:59Z</time>
      </trkpt>
      <trkpt lat="44.11301" lon="6.98326">
        <ele>1611</ele>
        <time>2012-03-03T16:20:06Z</time>
      </trkpt>
      <trkpt lat="44.11295" lon="6.98334">
        <ele>1610</ele>
        <time>2012-03-03T16:20:14Z</time>
      </trkpt>
      <trkpt lat="44.11286" lon="6.98338">
        <ele>1608</ele>
        <time>2012-03-03T16:20:21Z</time>
      </trkpt>
      <trkpt lat="44.1128" lon="6.98346">
        <ele>1609</ele>
        <time>2012-03-03T16:20:32Z</time>
      </trkpt>
      <trkpt lat="44.11275" lon="6.98354">
        <ele>1612</ele>
        <time>2012-03-03T16:20:37Z</time>
      </trkpt>
      <trkpt lat="44.11268" lon="6.98362">
        <ele>1610</ele>
        <time>2012-03-03T16:20:45Z</time>
      </trkpt>
      <trkpt lat="44.11267" lon="6.98362">
        <ele>1610</ele>
        <time>2012-03-03T16:20:47Z</time>
      </trkpt>
      <trkpt lat="44.11255" lon="6.98373">
        <ele>1613</ele>
        <time>2012-03-03T16:20:57Z</time>
      </trkpt>
      <trkpt lat="44.11249" lon="6.9838">
        <ele>1610</ele>
        <time>2012-03-03T16:21:02Z</time>
      </trkpt>
      <trkpt lat="44.11243" lon="6.98387">
        <ele>1608</ele>
        <time>2012-03-03T16:21:11Z</time>
      </trkpt>
      <trkpt lat="44.11237" lon="6.98396">
        <ele>1606</ele>
        <time>2012-03-03T16:21:18Z</time>
      </trkpt>
      <trkpt lat="44.11233" lon="6.98404">
        <ele>1606</ele>
        <time>2012-03-03T16:21:23Z</time>
      </trkpt>
      <trkpt lat="44.11227" lon="6.98411">
        <ele>1608</ele>
        <time>2012-03-03T16:21:26Z</time>
      </trkpt>
      <trkpt lat="44.11222" lon="6.98421">
        <ele>1611</ele>
        <time>2012-03-03T16:21:31Z</time>
      </trkpt>
      <trkpt lat="44.11218" lon="6.98431">
        <ele>1613</ele>
        <time>2012-03-03T16:21:39Z</time>
      </trkpt>
      <trkpt lat="44.11214" lon="6.98442">
        <ele>1615</ele>
        <time>2012-03-03T16:21:48Z</time>
      </trkpt>
      <trkpt lat="44.11213" lon="6.98443">
        <ele>1615</ele>
        <time>2012-03-03T16:21:48Z</time>
      </trkpt>
      <trkpt lat="44.11198" lon="6.98448">
        <ele>1614</ele>
        <time>2012-03-03T16:22:00Z</time>
      </trkpt>
      <trkpt lat="44.1119" lon="6.98445">
        <ele>1615</ele>
        <time>2012-03-03T16:22:06Z</time>
      </trkpt>
      <trkpt lat="44.11182" lon="6.98446">
        <ele>1613</ele>
        <time>2012-03-03T16:22:11Z</time>
      </trkpt>
      <trkpt lat="44.11174" lon="6.98448">
        <ele>1610</ele>
        <time>2012-03-03T16:22:17Z</time>
      </trkpt>
      <trkpt lat="44.11165" lon="6.98451">
        <ele>1607</ele>
        <time>2012-03-03T16:22:25Z</time>
      </trkpt>
      <trkpt lat="44.11158" lon="6.98452">
        <ele>1605</ele>
        <time>2012-03-03T16:22:32Z</time>
      </trkpt>
      <trkpt lat="44.1115" lon="6.98457">
        <ele>1602</ele>
        <time>2012-03-03T16:22:39Z</time>
      </trkpt>
      <trkpt lat="44.11143" lon="6.98459">
        <ele>1602</ele>
        <time>2012-03-03T16:22:46Z</time>
      </trkpt>
      <trkpt lat="44.11135" lon="6.98459">
        <ele>1603</ele>
        <time>2012-03-03T16:22:52Z</time>
      </trkpt>
      <trkpt lat="44.11133" lon="6.98459">
        <ele>1603</ele>
        <time>2012-03-03T16:22:53Z</time>
      </trkpt>
      <trkpt lat="44.11118" lon="6.98463">
        <ele>1603</ele>
        <time>2012-03-03T16:23:05Z</time>
      </trkpt>
      <trkpt lat="44.11109" lon="6.98465">
        <ele>1603</ele>
        <time>2012-03-03T16:23:11Z</time>
      </trkpt>
      <trkpt lat="44.11102" lon="6.98466">
        <ele>1602</ele>
        <time>2012-03-03T16:23:16Z</time>
      </trkpt>
      <trkpt lat="44.11093" lon="6.98466">
        <ele>1601</ele>
        <time>2012-03-03T16:23:24Z</time>
      </trkpt>
      <trkpt lat="44.11085" lon="6.9847">
        <ele>1601</ele>
        <time>2012-03-03T16:23:32Z</time>
      </trkpt>
      <trkpt lat="44.11078" lon="6.98475">
        <ele>1599</ele>
        <time>2012-03-03T16:23:38Z</time>
      </trkpt>
      <trkpt lat="44.1107" lon="6.98476">
        <ele>1597</ele>
        <time>2012-03-03T16:23:46Z</time>
      </trkpt>
      <trkpt lat="44.11062" lon="6.98475">
        <ele>1597</ele>
        <time>2012-03-03T16:23:57Z</time>
      </trkpt>
      <trkpt lat="44.11061" lon="6.98475">
        <ele>1596</ele>
        <time>2012-03-03T16:23:58Z</time>
      </trkpt>
      <trkpt lat="44.11045" lon="6.98473">
        <ele>1594</ele>
        <time>2012-03-03T16:24:10Z</time>
      </trkpt>
      <trkpt lat="44.11037" lon="6.98476">
        <ele>1593</ele>
        <time>2012-03-03T16:24:18Z</time>
      </trkpt>
      <trkpt lat="44.11029" lon="6.98478">
        <ele>1592</ele>
        <time>2012-03-03T16:24:25Z</time>
      </trkpt>
      <trkpt lat="44.1102" lon="6.9848">
        <ele>1589</ele>
        <time>2012-03-03T16:24:32Z</time>
      </trkpt>
      <trkpt lat="44.11012" lon="6.98481">
        <ele>1591</ele>
        <time>2012-03-03T16:24:46Z</time>
      </trkpt>
      <trkpt lat="44.11004" lon="6.98481">
        <ele>1589</ele>
        <time>2012-03-03T16:24:51Z</time>
      </trkpt>
      <trkpt lat="44.10995" lon="6.98483">
        <ele>1585</ele>
        <time>2012-03-03T16:24:57Z</time>
      </trkpt>
      <trkpt lat="44.10994" lon="6.98484">
        <ele>1584</ele>
        <time>2012-03-03T16:24:59Z</time>
      </trkpt>
      <trkpt lat="44.10978" lon="6.98483">
        <ele>1584</ele>
        <time>2012-03-03T16:25:11Z</time>
      </trkpt>
      <trkpt lat="44.10971" lon="6.98484">
        <ele>1581</ele>
        <time>2012-03-03T16:25:19Z</time>
      </trkpt>
      <trkpt lat="44.10963" lon="6.98487">
        <ele>1582</ele>
        <time>2012-03-03T16:25:24Z</time>
      </trkpt>
      <trkpt lat="44.10955" lon="6.98489">
        <ele>1583</ele>
        <time>2012-03-03T16:25:32Z</time>
      </trkpt>
      <trkpt lat="44.10947" lon="6.98491">
        <ele>1580</ele>
        <time>2012-03-03T16:25:39Z</time>
      </trkpt>
      <trkpt lat="44.10938" lon="6.98491">
        <ele>1580</ele>
        <time>2012-03-03T16:25:50Z</time>
      </trkpt>
      <trkpt lat="44.1093" lon="6.98488">
        <ele>1581</ele>
        <time>2012-03-03T16:26:33Z</time>
      </trkpt>
      <trkpt lat="44.10929" lon="6.98488">
        <ele>1581</ele>
        <time>2012-03-03T16:26:34Z</time>
      </trkpt>
      <trkpt lat="44.10913" lon="6.98493">
        <ele>1573</ele>
        <time>2012-03-03T16:26:55Z</time>
      </trkpt>
      <trkpt lat="44.10905" lon="6.98496">
        <ele>1569</ele>
        <time>2012-03-03T16:27:03Z</time>
      </trkpt>
      <trkpt lat="44.10896" lon="6.98498">
        <ele>1566</ele>
        <time>2012-03-03T16:27:11Z</time>
      </trkpt>
      <trkpt lat="44.10889" lon="6.98502">
        <ele>1564</ele>
        <time>2012-03-03T16:27:19Z</time>
      </trkpt>
      <trkpt lat="44.1088" lon="6.98505">
        <ele>1563</ele>
        <time>2012-03-03T16:27:25Z</time>
      </trkpt>
      <trkpt lat="44.10872" lon="6.98508">
        <ele>1560</ele>
        <time>2012-03-03T16:27:34Z</time>
      </trkpt>
      <trkpt lat="44.10871" lon="6.98508">
        <ele>1561</ele>
        <time>2012-03-03T16:27:35Z</time>
      </trkpt>
      <trkpt lat="44.10856" lon="6.9851">
        <ele>1560</ele>
        <time>2012-03-03T16:27:46Z</time>
      </trkpt>
      <trkpt lat="44.10848" lon="6.98506">
        <ele>1558</ele>
        <time>2012-03-03T16:27:54Z</time>
      </trkpt>
      <trkpt lat="44.10842" lon="6.9851">
        <ele>1555</ele>
        <time>2012-03-03T16:28:00Z</time>
      </trkpt>
      <trkpt lat="44.10838" lon="6.98517">
        <ele>1555</ele>
        <time>2012-03-03T16:28:03Z</time>
      </trkpt>
      <trkpt lat="44.10831" lon="6.98524">
        <ele>1555</ele>
        <time>2012-03-03T16:28:10Z</time>
      </trkpt>
      <trkpt lat="44.10823" lon="6.9853">
        <ele>1551</ele>
        <time>2012-03-03T16:28:21Z</time>
      </trkpt>
      <trkpt lat="44.10816" lon="6.98537">
        <ele>1551</ele>
        <time>2012-03-03T16:28:32Z</time>
      </trkpt>
      <trkpt lat="44.10808" lon="6.98535">
        <ele>1548</ele>
        <time>2012-03-03T16:28:42Z</time>
      </trkpt>
      <trkpt lat="44.10807" lon="6.98535">
        <ele>1545</ele>
        <time>2012-03-03T16:28:43Z</time>
      </trkpt>
      <trkpt lat="44.10791" lon="6.98539">
        <ele>1537</ele>
        <time>2012-03-03T16:29:00Z</time>
      </trkpt>
      <trkpt lat="44.10784" lon="6.98542">
        <ele>1537</ele>
        <time>2012-03-03T16:29:05Z</time>
      </trkpt>
      <trkpt lat="44.10777" lon="6.98546">
        <ele>1537</ele>
        <time>2012-03-03T16:29:08Z</time>
      </trkpt>
      <trkpt lat="44.1077" lon="6.98551">
        <ele>1536</ele>
        <time>2012-03-03T16:29:13Z</time>
      </trkpt>
      <trkpt lat="44.10761" lon="6.98549">
        <ele>1537</ele>
        <time>2012-03-03T16:29:21Z</time>
      </trkpt>
      <trkpt lat="44.10753" lon="6.98552">
        <ele>1536</ele>
        <time>2012-03-03T16:29:29Z</time>
      </trkpt>
      <trkpt lat="44.10746" lon="6.98556">
        <ele>1537</ele>
        <time>2012-03-03T16:29:37Z</time>
      </trkpt>
      <trkpt lat="44.10738" lon="6.98561">
        <ele>1532</ele>
        <time>2012-03-03T16:29:45Z</time>
      </trkpt>
      <trkpt lat="44.10737" lon="6.98562">
        <ele>1532</ele>
        <time>2012-03-03T16:29:46Z</time>
      </trkpt>
      <trkpt lat="44.10723" lon="6.98569">
        <ele>1529</ele>
        <time>2012-03-03T16:29:55Z</time>
      </trkpt>
      <trkpt lat="44.10715" lon="6.98575">
        <ele>1526</ele>
        <time>2012-03-03T16:30:06Z</time>
      </trkpt>
      <trkpt lat="44.10707" lon="6.98578">
        <ele>1521</ele>
        <time>2012-03-03T16:30:13Z</time>
      </trkpt>
      <trkpt lat="44.10698" lon="6.98577">
        <ele>1519</ele>
        <time>2012-03-03T16:30:21Z</time>
      </trkpt>
      <trkpt lat="44.1069" lon="6.9858">
        <ele>1518</ele>
        <time>2012-03-03T16:30:28Z</time>
      </trkpt>
      <trkpt lat="44.10682" lon="6.98584">
        <ele>1515</ele>
        <time>2012-03-03T16:30:35Z</time>
      </trkpt>
      <trkpt lat="44.10674" lon="6.98588">
        <ele>1514</ele>
        <time>2012-03-03T16:30:43Z</time>
      </trkpt>
      <trkpt lat="44.10666" lon="6.98589">
        <ele>1511</ele>
        <time>2012-03-03T16:30:50Z</time>
      </trkpt>
      <trkpt lat="44.10665" lon="6.98589">
        <ele>1511</ele>
        <time>2012-03-03T16:30:52Z</time>
      </trkpt>
      <trkpt lat="44.1065" lon="6.98588">
        <ele>1507</ele>
        <time>2012-03-03T16:31:06Z</time>
      </trkpt>
      <trkpt lat="44.10642" lon="6.98592">
        <ele>1506</ele>
        <time>2012-03-03T16:31:13Z</time>
      </trkpt>
      <trkpt lat="44.10633" lon="6.98593">
        <ele>1504</ele>
        <time>2012-03-03T16:31:20Z</time>
      </trkpt>
      <trkpt lat="44.10625" lon="6.98595">
        <ele>1503</ele>
        <time>2012-03-03T16:31:27Z</time>
      </trkpt>
      <trkpt lat="44.10616" lon="6.98598">
        <ele>1503</ele>
        <time>2012-03-03T16:31:37Z</time>
      </trkpt>
      <trkpt lat="44.10608" lon="6.98603">
        <ele>1501</ele>
        <time>2012-03-03T16:31:45Z</time>
      </trkpt>
      <trkpt lat="44.106" lon="6.98608">
        <ele>1495</ele>
        <time>2012-03-03T16:31:55Z</time>
      </trkpt>
      <trkpt lat="44.10599" lon="6.98608">
        <ele>1495</ele>
        <time>2012-03-03T16:31:56Z</time>
      </trkpt>
      <trkpt lat="44.10583" lon="6.98614">
        <ele>1490</ele>
        <time>2012-03-03T16:32:12Z</time>
      </trkpt>
      <trkpt lat="44.10575" lon="6.98617">
        <ele>1483</ele>
        <time>2012-03-03T16:32:29Z</time>
      </trkpt>
      <trkpt lat="44.10569" lon="6.98623">
        <ele>1481</ele>
        <time>2012-03-03T16:32:37Z</time>
      </trkpt>
      <trkpt lat="44.10567" lon="6.98633">
        <ele>1480</ele>
        <time>2012-03-03T16:32:42Z</time>
      </trkpt>
      <trkpt lat="44.10566" lon="6.98645">
        <ele>1480</ele>
        <time>2012-03-03T16:32:50Z</time>
      </trkpt>
      <trkpt lat="44.10559" lon="6.9865">
        <ele>1479</ele>
        <time>2012-03-03T16:33:04Z</time>
      </trkpt>
      <trkpt lat="44.10558" lon="6.98652">
        <ele>1476</ele>
        <time>2012-03-03T16:33:05Z</time>
      </trkpt>
      <trkpt lat="44.10543" lon="6.98657">
        <ele>1474</ele>
        <time>2012-03-03T16:33:27Z</time>
      </trkpt>
      <trkpt lat="44.10535" lon="6.98657">
        <ele>1474</ele>
        <time>2012-03-03T16:33:34Z</time>
      </trkpt>
      <trkpt lat="44.10526" lon="6.98657">
        <ele>1469</ele>
        <time>2012-03-03T16:33:45Z</time>
      </trkpt>
      <trkpt lat="44.10518" lon="6.98658">
        <ele>1468</ele>
        <time>2012-03-03T16:33:53Z</time>
      </trkpt>
      <trkpt lat="44.1051" lon="6.98655">
        <ele>1465</ele>
        <time>2012-03-03T16:34:00Z</time>
      </trkpt>
      <trkpt lat="44.10502" lon="6.98658">
        <ele>1460</ele>
        <time>2012-03-03T16:34:17Z</time>
      </trkpt>
      <trkpt lat="44.10501" lon="6.98659">
        <ele>1459</ele>
        <time>2012-03-03T16:34:17Z</time>
      </trkpt>
      <trkpt lat="44.1049" lon="6.98669">
        <ele>1457</ele>
        <time>2012-03-03T16:34:40Z</time>
      </trkpt>
      <trkpt lat="44.10492" lon="6.98681">
        <ele>1455</ele>
        <time>2012-03-03T16:34:47Z</time>
      </trkpt>
      <trkpt lat="44.10486" lon="6.98688">
        <ele>1454</ele>
        <time>2012-03-03T16:34:52Z</time>
      </trkpt>
      <trkpt lat="44.10478" lon="6.9869">
        <ele>1454</ele>
        <time>2012-03-03T16:35:00Z</time>
      </trkpt>
      <trkpt lat="44.10469" lon="6.98691">
        <ele>1458</ele>
        <time>2012-03-03T16:35:08Z</time>
      </trkpt>
      <trkpt lat="44.10464" lon="6.98691">
        <ele>1455</ele>
        <time>2012-03-03T16:36:32Z</time>
      </trkpt>
    </trkseg>
  </trk>
</gpx>